<?xml version='1.0' encoding='UTF-8'?><gpx version="1.1" creator="JPX - https://github.com/jenetics/jpx" xmlns="http://www.topografix.com/GPX/1/1"><trk><trkseg><trkpt lat="41.6841535" lon="2.0611294"><ele>513.0</ele><time>2026-05-03T11:08:33.159Z</time></trkpt><trkpt lat="41.6842797" lon="2.0612044"><ele>513.0</ele><time>2026-05-03T11:08:42.165Z</time></trkpt><trkpt lat="41.6843377" lon="2.061158"><ele>513.0</ele><time>2026-05-03T11:11:04.208Z</time></trkpt><trkpt lat="41.6843971" lon="2.0610692"><ele>513.0</ele><time>2026-05-03T11:11:08.177Z</time></trkpt><trkpt lat="41.6844154" lon="2.0608914"><ele>513.0</ele><time>2026-05-03T11:11:11.163Z</time></trkpt><trkpt lat="41.6843625" lon="2.0607886"><ele>511.4</ele><time>2026-05-03T11:11:13.162Z</time></trkpt><trkpt lat="41.6842824" lon="2.060708"><ele>509.79999999999995</ele><time>2026-05-03T11:11:15.163Z</time></trkpt><trkpt lat="41.6841817" lon="2.0606464"><ele>508.2</ele><time>2026-05-03T11:11:17.163Z</time></trkpt><trkpt lat="41.6841139" lon="2.0606268"><ele>506.6</ele><time>2026-05-03T11:11:18.162Z</time></trkpt><trkpt lat="41.6840051" lon="2.0606197"><ele>505.0</ele><time>2026-05-03T11:11:20.162Z</time></trkpt><trkpt lat="41.6838922" lon="2.0606762"><ele>505.00000000000006</ele><time>2026-05-03T11:11:22.163Z</time></trkpt><trkpt lat="41.6838275" lon="2.0607388"><ele>505.0</ele><time>2026-05-03T11:11:23.163Z</time></trkpt><trkpt lat="41.6837589" lon="2.0608105"><ele>505.0</ele><time>2026-05-03T11:11:24.163Z</time></trkpt><trkpt lat="41.6836961" lon="2.0608642"><ele>505.0</ele><time>2026-05-03T11:11:25.163Z</time></trkpt><trkpt lat="41.6836448" lon="2.060917"><ele>505.00000000000006</ele><time>2026-05-03T11:11:26.162Z</time></trkpt><trkpt lat="41.6835911" lon="2.0609748"><ele>505.0</ele><time>2026-05-03T11:11:27.163Z</time></trkpt><trkpt lat="41.6835336" lon="2.0610551"><ele>506.2</ele><time>2026-05-03T11:11:28.163Z</time></trkpt><trkpt lat="41.6834645" lon="2.0611511"><ele>507.4</ele><time>2026-05-03T11:11:29.162Z</time></trkpt><trkpt lat="41.6833933" lon="2.0612342"><ele>508.6</ele><time>2026-05-03T11:11:30.163Z</time></trkpt><trkpt lat="41.6833234" lon="2.0613085"><ele>509.8</ele><time>2026-05-03T11:11:31.163Z</time></trkpt><trkpt lat="41.6832507" lon="2.0613828"><ele>511.0</ele><time>2026-05-03T11:11:32.162Z</time></trkpt><trkpt lat="41.6831682" lon="2.0614594"><ele>511.0</ele><time>2026-05-03T11:11:33.163Z</time></trkpt><trkpt lat="41.6830867" lon="2.0615352"><ele>511.0</ele><time>2026-05-03T11:11:34.163Z</time></trkpt><trkpt lat="41.6830118" lon="2.0616028"><ele>511.0</ele><time>2026-05-03T11:11:35.163Z</time></trkpt><trkpt lat="41.6829427" lon="2.0616748"><ele>511.0</ele><time>2026-05-03T11:11:36.163Z</time></trkpt><trkpt lat="41.6828739" lon="2.0617449"><ele>511.0</ele><time>2026-05-03T11:11:37.163Z</time></trkpt><trkpt lat="41.6828027" lon="2.0618244"><ele>509.33333333333337</ele><time>2026-05-03T11:11:38.163Z</time></trkpt><trkpt lat="41.6827264" lon="2.0619016"><ele>507.6666666666667</ele><time>2026-05-03T11:11:39.163Z</time></trkpt><trkpt lat="41.6826569" lon="2.0619718"><ele>506.0</ele><time>2026-05-03T11:11:40.163Z</time></trkpt><trkpt lat="41.6825852" lon="2.0620342"><ele>504.33333333333337</ele><time>2026-05-03T11:11:41.163Z</time></trkpt><trkpt lat="41.6825229" lon="2.0620879"><ele>502.6666666666667</ele><time>2026-05-03T11:11:42.163Z</time></trkpt><trkpt lat="41.6824648" lon="2.0621289"><ele>501.0</ele><time>2026-05-03T11:11:43.163Z</time></trkpt><trkpt lat="41.6823731" lon="2.0621935"><ele>501.0</ele><time>2026-05-03T11:11:45.162Z</time></trkpt><trkpt lat="41.6822942" lon="2.0622535"><ele>501.0</ele><time>2026-05-03T11:11:47.162Z</time></trkpt><trkpt lat="41.6822029" lon="2.0622966"><ele>501.0</ele><time>2026-05-03T11:11:50.162Z</time></trkpt><trkpt lat="41.6820856" lon="2.062223"><ele>501.0</ele><time>2026-05-03T11:11:52.163Z</time></trkpt><trkpt lat="41.6820215" lon="2.0621776"><ele>501.0</ele><time>2026-05-03T11:11:53.163Z</time></trkpt><trkpt lat="41.6819531" lon="2.0621188"><ele>500.4</ele><time>2026-05-03T11:11:54.163Z</time></trkpt><trkpt lat="41.6818838" lon="2.0620572"><ele>499.8</ele><time>2026-05-03T11:11:55.162Z</time></trkpt><trkpt lat="41.6818092" lon="2.0619922"><ele>499.19999999999993</ele><time>2026-05-03T11:11:56.163Z</time></trkpt><trkpt lat="41.6817217" lon="2.0619291"><ele>498.59999999999997</ele><time>2026-05-03T11:11:57.163Z</time></trkpt><trkpt lat="41.6816331" lon="2.0618652"><ele>498.0</ele><time>2026-05-03T11:11:58.162Z</time></trkpt><trkpt lat="41.6815401" lon="2.0617973"><ele>498.0</ele><time>2026-05-03T11:11:59.163Z</time></trkpt><trkpt lat="41.6814403" lon="2.0617211"><ele>498.0</ele><time>2026-05-03T11:12:00.163Z</time></trkpt><trkpt lat="41.6813327" lon="2.0616409"><ele>498.0</ele><time>2026-05-03T11:12:01.162Z</time></trkpt><trkpt lat="41.6812156" lon="2.0615589"><ele>498.0</ele><time>2026-05-03T11:12:02.163Z</time></trkpt><trkpt lat="41.6810971" lon="2.061473"><ele>497.0</ele><time>2026-05-03T11:12:03.163Z</time></trkpt><trkpt lat="41.6809814" lon="2.0613762"><ele>496.0</ele><time>2026-05-03T11:12:04.163Z</time></trkpt><trkpt lat="41.6808652" lon="2.0612774"><ele>495.0</ele><time>2026-05-03T11:12:05.163Z</time></trkpt><trkpt lat="41.6807465" lon="2.0611782"><ele>494.0</ele><time>2026-05-03T11:12:06.163Z</time></trkpt><trkpt lat="41.6806295" lon="2.0610768"><ele>494.0</ele><time>2026-05-03T11:12:07.163Z</time></trkpt><trkpt lat="41.6805133" lon="2.060986"><ele>494.0</ele><time>2026-05-03T11:12:08.162Z</time></trkpt><trkpt lat="41.6804101" lon="2.0609073"><ele>494.0</ele><time>2026-05-03T11:12:09.163Z</time></trkpt><trkpt lat="41.6803116" lon="2.0608336"><ele>494.0</ele><time>2026-05-03T11:12:10.162Z</time></trkpt><trkpt lat="41.6802188" lon="2.0607687"><ele>492.79999999999995</ele><time>2026-05-03T11:12:11.163Z</time></trkpt><trkpt lat="41.6801423" lon="2.0607165"><ele>491.59999999999997</ele><time>2026-05-03T11:12:12.162Z</time></trkpt><trkpt lat="41.6800498" lon="2.0606636"><ele>490.4</ele><time>2026-05-03T11:12:14.163Z</time></trkpt><trkpt lat="41.679981" lon="2.0606787"><ele>489.2</ele><time>2026-05-03T11:12:16.162Z</time></trkpt><trkpt lat="41.6799737" lon="2.0608466"><ele>488.0</ele><time>2026-05-03T11:12:19.163Z</time></trkpt><trkpt lat="41.6799984" lon="2.0609609"><ele>487.16666666666663</ele><time>2026-05-03T11:12:20.163Z</time></trkpt><trkpt lat="41.6800063" lon="2.0610581"><ele>486.3333333333333</ele><time>2026-05-03T11:12:21.162Z</time></trkpt><trkpt lat="41.679983" lon="2.0611475"><ele>485.5</ele><time>2026-05-03T11:12:22.163Z</time></trkpt><trkpt lat="41.679928" lon="2.0612145"><ele>484.66666666666663</ele><time>2026-05-03T11:12:23.162Z</time></trkpt><trkpt lat="41.6798476" lon="2.061253"><ele>483.8333333333333</ele><time>2026-05-03T11:12:24.162Z</time></trkpt><trkpt lat="41.6797696" lon="2.0612734"><ele>483.0</ele><time>2026-05-03T11:12:25.162Z</time></trkpt><trkpt lat="41.6796721" lon="2.0612615"><ele>483.0</ele><time>2026-05-03T11:12:26.163Z</time></trkpt><trkpt lat="41.6795553" lon="2.0612293"><ele>483.0</ele><time>2026-05-03T11:12:27.162Z</time></trkpt><trkpt lat="41.6794485" lon="2.0611833"><ele>483.0</ele><time>2026-05-03T11:12:28.162Z</time></trkpt><trkpt lat="41.6793451" lon="2.0611226"><ele>483.0</ele><time>2026-05-03T11:12:29.162Z</time></trkpt><trkpt lat="41.6792347" lon="2.0610542"><ele>482.79999999999995</ele><time>2026-05-03T11:12:30.162Z</time></trkpt><trkpt lat="41.6791311" lon="2.0609869"><ele>482.59999999999997</ele><time>2026-05-03T11:12:31.163Z</time></trkpt><trkpt lat="41.6790391" lon="2.0609502"><ele>482.40000000000003</ele><time>2026-05-03T11:12:32.163Z</time></trkpt><trkpt lat="41.6789432" lon="2.0609364"><ele>482.20000000000005</ele><time>2026-05-03T11:12:33.162Z</time></trkpt><trkpt lat="41.678852" lon="2.06096"><ele>482.0</ele><time>2026-05-03T11:12:34.162Z</time></trkpt><trkpt lat="41.6787621" lon="2.0610049"><ele>481.99999999999994</ele><time>2026-05-03T11:12:35.163Z</time></trkpt><trkpt lat="41.6786706" lon="2.0610729"><ele>482.0</ele><time>2026-05-03T11:12:36.163Z</time></trkpt><trkpt lat="41.6785868" lon="2.0611457"><ele>482.0</ele><time>2026-05-03T11:12:37.163Z</time></trkpt><trkpt lat="41.6785112" lon="2.061209"><ele>482.0</ele><time>2026-05-03T11:12:38.162Z</time></trkpt><trkpt lat="41.6784379" lon="2.0612363"><ele>481.99999999999994</ele><time>2026-05-03T11:12:39.162Z</time></trkpt><trkpt lat="41.6783667" lon="2.0612412"><ele>482.0</ele><time>2026-05-03T11:12:40.163Z</time></trkpt><trkpt lat="41.678287" lon="2.061221"><ele>482.49999999999994</ele><time>2026-05-03T11:12:41.162Z</time></trkpt><trkpt lat="41.6782063" lon="2.061186"><ele>483.0</ele><time>2026-05-03T11:12:42.163Z</time></trkpt><trkpt lat="41.678136" lon="2.0611468"><ele>483.5</ele><time>2026-05-03T11:12:43.163Z</time></trkpt><trkpt lat="41.6780767" lon="2.0611133"><ele>484.0</ele><time>2026-05-03T11:12:44.163Z</time></trkpt><trkpt lat="41.6779855" lon="2.0610879"><ele>484.49999999999994</ele><time>2026-05-03T11:12:46.163Z</time></trkpt><trkpt lat="41.6779308" lon="2.0611483"><ele>485.0</ele><time>2026-05-03T11:12:48.163Z</time></trkpt><trkpt lat="41.6778694" lon="2.0613013"><ele>485.0</ele><time>2026-05-03T11:12:50.163Z</time></trkpt><trkpt lat="41.6778264" lon="2.0614021"><ele>485.0</ele><time>2026-05-03T11:12:51.162Z</time></trkpt><trkpt lat="41.6777753" lon="2.0615111"><ele>485.0</ele><time>2026-05-03T11:12:52.163Z</time></trkpt><trkpt lat="41.677726" lon="2.0616141"><ele>485.0</ele><time>2026-05-03T11:12:53.162Z</time></trkpt><trkpt lat="41.6776753" lon="2.0617295"><ele>485.0</ele><time>2026-05-03T11:12:54.163Z</time></trkpt><trkpt lat="41.6776254" lon="2.0618416"><ele>485.99999999999994</ele><time>2026-05-03T11:12:55.163Z</time></trkpt><trkpt lat="41.677572" lon="2.0619465"><ele>487.0</ele><time>2026-05-03T11:12:56.163Z</time></trkpt><trkpt lat="41.6775251" lon="2.0620426"><ele>488.0</ele><time>2026-05-03T11:12:57.163Z</time></trkpt><trkpt lat="41.6774796" lon="2.0621364"><ele>489.0</ele><time>2026-05-03T11:12:58.163Z</time></trkpt><trkpt lat="41.6774336" lon="2.0622267"><ele>489.99999999999994</ele><time>2026-05-03T11:12:59.163Z</time></trkpt><trkpt lat="41.6773804" lon="2.0623175"><ele>491.0</ele><time>2026-05-03T11:13:00.163Z</time></trkpt><trkpt lat="41.6773244" lon="2.0624091"><ele>491.66666666666663</ele><time>2026-05-03T11:13:01.162Z</time></trkpt><trkpt lat="41.6772897" lon="2.0625056"><ele>492.3333333333333</ele><time>2026-05-03T11:13:02.163Z</time></trkpt><trkpt lat="41.6772688" lon="2.0625912"><ele>493.0</ele><time>2026-05-03T11:13:03.162Z</time></trkpt><trkpt lat="41.6772638" lon="2.0627494"><ele>493.66666666666663</ele><time>2026-05-03T11:13:05.163Z</time></trkpt><trkpt lat="41.6772787" lon="2.0628382"><ele>494.3333333333333</ele><time>2026-05-03T11:13:06.162Z</time></trkpt><trkpt lat="41.6773151" lon="2.0629428"><ele>495.0</ele><time>2026-05-03T11:13:07.162Z</time></trkpt><trkpt lat="41.6773615" lon="2.0630714"><ele>495.0</ele><time>2026-05-03T11:13:08.162Z</time></trkpt><trkpt lat="41.6773965" lon="2.0631937"><ele>495.0</ele><time>2026-05-03T11:13:09.163Z</time></trkpt><trkpt lat="41.677427" lon="2.0632985"><ele>495.0</ele><time>2026-05-03T11:13:10.163Z</time></trkpt><trkpt lat="41.6774555" lon="2.0634089"><ele>495.0</ele><time>2026-05-03T11:13:11.163Z</time></trkpt><trkpt lat="41.6774786" lon="2.0635158"><ele>495.0</ele><time>2026-05-03T11:13:12.162Z</time></trkpt><trkpt lat="41.6775016" lon="2.0636194"><ele>495.0</ele><time>2026-05-03T11:13:13.163Z</time></trkpt><trkpt lat="41.677516" lon="2.0637035"><ele>493.6666666666667</ele><time>2026-05-03T11:13:14.163Z</time></trkpt><trkpt lat="41.67752" lon="2.06387"><ele>492.33333333333337</ele><time>2026-05-03T11:13:16.163Z</time></trkpt><trkpt lat="41.6775096" lon="2.0639722"><ele>491.0</ele><time>2026-05-03T11:13:17.163Z</time></trkpt><trkpt lat="41.677493" lon="2.0640717"><ele>489.6666666666667</ele><time>2026-05-03T11:13:18.162Z</time></trkpt><trkpt lat="41.6774759" lon="2.0641775"><ele>488.33333333333337</ele><time>2026-05-03T11:13:19.163Z</time></trkpt><trkpt lat="41.6774527" lon="2.0642737"><ele>487.0</ele><time>2026-05-03T11:13:20.163Z</time></trkpt><trkpt lat="41.6774194" lon="2.0643514"><ele>485.8</ele><time>2026-05-03T11:13:21.163Z</time></trkpt><trkpt lat="41.6773431" lon="2.0644206"><ele>484.6</ele><time>2026-05-03T11:13:23.162Z</time></trkpt><trkpt lat="41.6772147" lon="2.0643964"><ele>483.40000000000003</ele><time>2026-05-03T11:13:25.163Z</time></trkpt><trkpt lat="41.6771278" lon="2.0643479"><ele>482.20000000000005</ele><time>2026-05-03T11:13:26.163Z</time></trkpt><trkpt lat="41.6770344" lon="2.064315"><ele>481.0</ele><time>2026-05-03T11:13:27.163Z</time></trkpt><trkpt lat="41.6769498" lon="2.064293"><ele>480.1666666666667</ele><time>2026-05-03T11:13:28.163Z</time></trkpt><trkpt lat="41.6768703" lon="2.0642657"><ele>479.33333333333337</ele><time>2026-05-03T11:13:29.163Z</time></trkpt><trkpt lat="41.6767959" lon="2.0642367"><ele>478.5</ele><time>2026-05-03T11:13:30.162Z</time></trkpt><trkpt lat="41.6767162" lon="2.0641986"><ele>477.66666666666663</ele><time>2026-05-03T11:13:31.162Z</time></trkpt><trkpt lat="41.6766365" lon="2.0641511"><ele>476.8333333333333</ele><time>2026-05-03T11:13:32.162Z</time></trkpt><trkpt lat="41.6765669" lon="2.0640745"><ele>476.0</ele><time>2026-05-03T11:13:33.162Z</time></trkpt><trkpt lat="41.6765096" lon="2.0640046"><ele>475.99999999999994</ele><time>2026-05-03T11:13:34.162Z</time></trkpt><trkpt lat="41.6764653" lon="2.0639258"><ele>476.0</ele><time>2026-05-03T11:13:35.163Z</time></trkpt><trkpt lat="41.6764266" lon="2.063851"><ele>476.0</ele><time>2026-05-03T11:13:36.163Z</time></trkpt><trkpt lat="41.6763919" lon="2.063771"><ele>476.0</ele><time>2026-05-03T11:13:37.163Z</time></trkpt><trkpt lat="41.6763703" lon="2.063688"><ele>475.99999999999994</ele><time>2026-05-03T11:13:38.163Z</time></trkpt><trkpt lat="41.6763675" lon="2.0635209"><ele>476.0</ele><time>2026-05-03T11:13:40.163Z</time></trkpt><trkpt lat="41.6763827" lon="2.0633989"><ele>476.16666666666663</ele><time>2026-05-03T11:13:41.162Z</time></trkpt><trkpt lat="41.6764032" lon="2.063275"><ele>476.3333333333333</ele><time>2026-05-03T11:13:42.162Z</time></trkpt><trkpt lat="41.6764087" lon="2.0631501"><ele>476.5</ele><time>2026-05-03T11:13:43.163Z</time></trkpt><trkpt lat="41.6764004" lon="2.0630351"><ele>476.66666666666663</ele><time>2026-05-03T11:13:44.163Z</time></trkpt><trkpt lat="41.6763853" lon="2.0629306"><ele>476.8333333333333</ele><time>2026-05-03T11:13:45.162Z</time></trkpt><trkpt lat="41.6763427" lon="2.0628322"><ele>477.0</ele><time>2026-05-03T11:13:46.163Z</time></trkpt><trkpt lat="41.6763117" lon="2.0627424"><ele>477.0</ele><time>2026-05-03T11:13:47.163Z</time></trkpt><trkpt lat="41.6762592" lon="2.0625852"><ele>477.00000000000006</ele><time>2026-05-03T11:13:49.162Z</time></trkpt><trkpt lat="41.6762522" lon="2.0624985"><ele>477.00000000000006</ele><time>2026-05-03T11:13:50.163Z</time></trkpt><trkpt lat="41.6762556" lon="2.0624126"><ele>477.0</ele><time>2026-05-03T11:13:51.162Z</time></trkpt><trkpt lat="41.6762729" lon="2.0622904"><ele>477.0</ele><time>2026-05-03T11:13:52.162Z</time></trkpt><trkpt lat="41.6763129" lon="2.0621591"><ele>476.8333333333333</ele><time>2026-05-03T11:13:53.163Z</time></trkpt><trkpt lat="41.6763474" lon="2.0620426"><ele>476.66666666666663</ele><time>2026-05-03T11:13:54.163Z</time></trkpt><trkpt lat="41.6763717" lon="2.0619356"><ele>476.5</ele><time>2026-05-03T11:13:55.163Z</time></trkpt><trkpt lat="41.6763999" lon="2.0618384"><ele>476.3333333333333</ele><time>2026-05-03T11:13:56.163Z</time></trkpt><trkpt lat="41.6764386" lon="2.0617482"><ele>476.16666666666663</ele><time>2026-05-03T11:13:57.162Z</time></trkpt><trkpt lat="41.6764764" lon="2.0616615"><ele>476.0</ele><time>2026-05-03T11:13:58.163Z</time></trkpt><trkpt lat="41.6765013" lon="2.0615801"><ele>475.99999999999994</ele><time>2026-05-03T11:13:59.163Z</time></trkpt><trkpt lat="41.6765144" lon="2.0614951"><ele>476.0</ele><time>2026-05-03T11:14:00.163Z</time></trkpt><trkpt lat="41.6765242" lon="2.061396"><ele>476.0</ele><time>2026-05-03T11:14:01.162Z</time></trkpt><trkpt lat="41.6765296" lon="2.0612988"><ele>476.0</ele><time>2026-05-03T11:14:02.163Z</time></trkpt><trkpt lat="41.6765363" lon="2.0611636"><ele>475.99999999999994</ele><time>2026-05-03T11:14:04.162Z</time></trkpt><trkpt lat="41.6764929" lon="2.0610967"><ele>476.0</ele><time>2026-05-03T11:14:06.163Z</time></trkpt><trkpt lat="41.6763684" lon="2.0611019"><ele>475.99999999999994</ele><time>2026-05-03T11:14:08.162Z</time></trkpt><trkpt lat="41.6762495" lon="2.0610688"><ele>476.0</ele><time>2026-05-03T11:14:10.163Z</time></trkpt><trkpt lat="41.6761756" lon="2.0610231"><ele>476.0</ele><time>2026-05-03T11:14:11.162Z</time></trkpt><trkpt lat="41.6761112" lon="2.0609929"><ele>476.0</ele><time>2026-05-03T11:14:12.162Z</time></trkpt><trkpt lat="41.6760126" lon="2.0609683"><ele>475.99999999999994</ele><time>2026-05-03T11:14:14.162Z</time></trkpt><trkpt lat="41.6759477" lon="2.0610014"><ele>476.0</ele><time>2026-05-03T11:14:16.163Z</time></trkpt><trkpt lat="41.6758904" lon="2.0611176"><ele>474.8</ele><time>2026-05-03T11:14:18.163Z</time></trkpt><trkpt lat="41.6758448" lon="2.0612295"><ele>473.6</ele><time>2026-05-03T11:14:19.163Z</time></trkpt><trkpt lat="41.6757876" lon="2.0613527"><ele>472.4</ele><time>2026-05-03T11:14:20.162Z</time></trkpt><trkpt lat="41.6757291" lon="2.0614693"><ele>471.2</ele><time>2026-05-03T11:14:21.162Z</time></trkpt><trkpt lat="41.6756653" lon="2.061591"><ele>470.0</ele><time>2026-05-03T11:14:22.163Z</time></trkpt><trkpt lat="41.6755989" lon="2.0617204"><ele>470.0</ele><time>2026-05-03T11:14:23.163Z</time></trkpt><trkpt lat="41.6755313" lon="2.0618444"><ele>470.0</ele><time>2026-05-03T11:14:24.163Z</time></trkpt><trkpt lat="41.6754771" lon="2.0619696"><ele>470.0</ele><time>2026-05-03T11:14:25.163Z</time></trkpt><trkpt lat="41.6754196" lon="2.0620955"><ele>470.0</ele><time>2026-05-03T11:14:26.163Z</time></trkpt><trkpt lat="41.6753619" lon="2.0622164"><ele>470.0</ele><time>2026-05-03T11:14:27.163Z</time></trkpt><trkpt lat="41.6752961" lon="2.0623392"><ele>474.0</ele><time>2026-05-03T11:14:28.162Z</time></trkpt><trkpt lat="41.6752288" lon="2.0624703"><ele>478.0</ele><time>2026-05-03T11:14:29.163Z</time></trkpt><trkpt lat="41.6751591" lon="2.0625966"><ele>482.0</ele><time>2026-05-03T11:14:30.163Z</time></trkpt><trkpt lat="41.6750865" lon="2.0627279"><ele>486.0</ele><time>2026-05-03T11:14:31.163Z</time></trkpt><trkpt lat="41.6750096" lon="2.0628673"><ele>486.0</ele><time>2026-05-03T11:14:32.162Z</time></trkpt><trkpt lat="41.6749364" lon="2.0630015"><ele>486.0</ele><time>2026-05-03T11:14:33.163Z</time></trkpt><trkpt lat="41.6748593" lon="2.0631161"><ele>486.0</ele><time>2026-05-03T11:14:34.163Z</time></trkpt><trkpt lat="41.67479" lon="2.0632128"><ele>486.0</ele><time>2026-05-03T11:14:35.163Z</time></trkpt><trkpt lat="41.6747312" lon="2.0632802"><ele>486.0</ele><time>2026-05-03T11:14:36.162Z</time></trkpt><trkpt lat="41.6746849" lon="2.0633382"><ele>486.0</ele><time>2026-05-03T11:14:37.162Z</time></trkpt><trkpt lat="41.674637" lon="2.0633955"><ele>486.0</ele><time>2026-05-03T11:14:38.163Z</time></trkpt><trkpt lat="41.6745839" lon="2.0635561"><ele>486.0</ele><time>2026-05-03T11:14:40.163Z</time></trkpt><trkpt lat="41.6745804" lon="2.0636815"><ele>486.0</ele><time>2026-05-03T11:14:41.162Z</time></trkpt><trkpt lat="41.6745761" lon="2.0637859"><ele>486.0</ele><time>2026-05-03T11:14:42.162Z</time></trkpt><trkpt lat="41.6745603" lon="2.063879"><ele>486.0</ele><time>2026-05-03T11:14:43.163Z</time></trkpt><trkpt lat="41.6745202" lon="2.0639646"><ele>486.0</ele><time>2026-05-03T11:14:44.163Z</time></trkpt><trkpt lat="41.674463" lon="2.0640553"><ele>486.0</ele><time>2026-05-03T11:14:45.163Z</time></trkpt><trkpt lat="41.6744034" lon="2.0641699"><ele>486.0</ele><time>2026-05-03T11:14:46.162Z</time></trkpt><trkpt lat="41.6743563" lon="2.0642966"><ele>486.0</ele><time>2026-05-03T11:14:47.163Z</time></trkpt><trkpt lat="41.6743017" lon="2.0644171"><ele>486.0</ele><time>2026-05-03T11:14:48.163Z</time></trkpt><trkpt lat="41.6742526" lon="2.0645195"><ele>489.20000000000005</ele><time>2026-05-03T11:14:49.163Z</time></trkpt><trkpt lat="41.6742109" lon="2.0645872"><ele>492.40000000000003</ele><time>2026-05-03T11:14:50.163Z</time></trkpt><trkpt lat="41.6741492" lon="2.0646641"><ele>495.6</ele><time>2026-05-03T11:14:51.162Z</time></trkpt><trkpt lat="41.674067" lon="2.0647457"><ele>498.8</ele><time>2026-05-03T11:14:52.163Z</time></trkpt><trkpt lat="41.6739688" lon="2.0648028"><ele>502.0</ele><time>2026-05-03T11:14:53.163Z</time></trkpt><trkpt lat="41.6738688" lon="2.0648721"><ele>502.0</ele><time>2026-05-03T11:14:54.163Z</time></trkpt><trkpt lat="41.6737707" lon="2.0649343"><ele>502.0</ele><time>2026-05-03T11:14:55.163Z</time></trkpt><trkpt lat="41.6736638" lon="2.0649716"><ele>502.0</ele><time>2026-05-03T11:14:56.162Z</time></trkpt><trkpt lat="41.6735427" lon="2.0649947"><ele>502.0</ele><time>2026-05-03T11:14:57.163Z</time></trkpt><trkpt lat="41.6734216" lon="2.065016"><ele>502.0</ele><time>2026-05-03T11:14:58.163Z</time></trkpt><trkpt lat="41.673294" lon="2.0650385"><ele>502.0</ele><time>2026-05-03T11:14:59.163Z</time></trkpt><trkpt lat="41.6731634" lon="2.0650516"><ele>502.0</ele><time>2026-05-03T11:15:00.163Z</time></trkpt><trkpt lat="41.6730338" lon="2.0650515"><ele>502.0</ele><time>2026-05-03T11:15:01.163Z</time></trkpt><trkpt lat="41.6729242" lon="2.0650464"><ele>502.0</ele><time>2026-05-03T11:15:02.163Z</time></trkpt><trkpt lat="41.672834" lon="2.065028"><ele>502.00000000000006</ele><time>2026-05-03T11:15:03.163Z</time></trkpt><trkpt lat="41.6727515" lon="2.0650311"><ele>502.00000000000006</ele><time>2026-05-03T11:15:04.163Z</time></trkpt><trkpt lat="41.672673" lon="2.0650414"><ele>502.0</ele><time>2026-05-03T11:15:05.162Z</time></trkpt><trkpt lat="41.6725847" lon="2.0650767"><ele>502.0</ele><time>2026-05-03T11:15:06.163Z</time></trkpt><trkpt lat="41.6724833" lon="2.0651291"><ele>501.8</ele><time>2026-05-03T11:15:07.162Z</time></trkpt><trkpt lat="41.6723811" lon="2.0651686"><ele>501.6</ele><time>2026-05-03T11:15:08.162Z</time></trkpt><trkpt lat="41.6722831" lon="2.0651843"><ele>501.40000000000003</ele><time>2026-05-03T11:15:09.163Z</time></trkpt><trkpt lat="41.6721899" lon="2.0651755"><ele>501.20000000000005</ele><time>2026-05-03T11:15:10.163Z</time></trkpt><trkpt lat="41.6720761" lon="2.0651821"><ele>501.0</ele><time>2026-05-03T11:15:12.163Z</time></trkpt><trkpt lat="41.6719985" lon="2.0652725"><ele>501.0</ele><time>2026-05-03T11:15:14.162Z</time></trkpt><trkpt lat="41.6719783" lon="2.0653758"><ele>501.0</ele><time>2026-05-03T11:15:15.162Z</time></trkpt><trkpt lat="41.6719645" lon="2.065513"><ele>501.0</ele><time>2026-05-03T11:15:16.163Z</time></trkpt><trkpt lat="41.6719696" lon="2.0656667"><ele>501.0</ele><time>2026-05-03T11:15:17.162Z</time></trkpt><trkpt lat="41.6719786" lon="2.0658049"><ele>501.0</ele><time>2026-05-03T11:15:18.163Z</time></trkpt><trkpt lat="41.6719813" lon="2.0659365"><ele>499.5</ele><time>2026-05-03T11:15:19.163Z</time></trkpt><trkpt lat="41.6719826" lon="2.0660876"><ele>498.0</ele><time>2026-05-03T11:15:20.163Z</time></trkpt><trkpt lat="41.6719669" lon="2.0662425"><ele>496.5</ele><time>2026-05-03T11:15:21.163Z</time></trkpt><trkpt lat="41.6719297" lon="2.0664115"><ele>495.0</ele><time>2026-05-03T11:15:22.163Z</time></trkpt><trkpt lat="41.6718909" lon="2.0665804"><ele>495.2</ele><time>2026-05-03T11:15:23.163Z</time></trkpt><trkpt lat="41.6718501" lon="2.0667354"><ele>495.4</ele><time>2026-05-03T11:15:24.162Z</time></trkpt><trkpt lat="41.6718081" lon="2.0668653"><ele>495.6</ele><time>2026-05-03T11:15:25.163Z</time></trkpt><trkpt lat="41.671768" lon="2.0669697"><ele>495.8</ele><time>2026-05-03T11:15:26.162Z</time></trkpt><trkpt lat="41.671718" lon="2.0670436"><ele>496.0</ele><time>2026-05-03T11:15:27.163Z</time></trkpt><trkpt lat="41.6716487" lon="2.0671084"><ele>496.00000000000006</ele><time>2026-05-03T11:15:28.162Z</time></trkpt><trkpt lat="41.6715872" lon="2.0671486"><ele>496.0</ele><time>2026-05-03T11:15:29.163Z</time></trkpt><trkpt lat="41.6715188" lon="2.0672652"><ele>496.0</ele><time>2026-05-03T11:15:31.163Z</time></trkpt><trkpt lat="41.6715001" lon="2.067355"><ele>496.0</ele><time>2026-05-03T11:15:32.163Z</time></trkpt><trkpt lat="41.6715053" lon="2.0674519"><ele>496.00000000000006</ele><time>2026-05-03T11:15:33.163Z</time></trkpt><trkpt lat="41.6715252" lon="2.0675778"><ele>496.0</ele><time>2026-05-03T11:15:34.163Z</time></trkpt><trkpt lat="41.6715567" lon="2.0677247"><ele>496.20000000000005</ele><time>2026-05-03T11:15:35.163Z</time></trkpt><trkpt lat="41.6715797" lon="2.0678681"><ele>496.40000000000003</ele><time>2026-05-03T11:15:36.163Z</time></trkpt><trkpt lat="41.671595" lon="2.0679984"><ele>496.6</ele><time>2026-05-03T11:15:37.163Z</time></trkpt><trkpt lat="41.6716076" lon="2.0681358"><ele>496.8</ele><time>2026-05-03T11:15:38.162Z</time></trkpt><trkpt lat="41.6716239" lon="2.0682753"><ele>497.0</ele><time>2026-05-03T11:15:39.162Z</time></trkpt><trkpt lat="41.6716387" lon="2.0684023"><ele>497.0</ele><time>2026-05-03T11:15:40.162Z</time></trkpt><trkpt lat="41.6716302" lon="2.0684997"><ele>497.00000000000006</ele><time>2026-05-03T11:15:41.163Z</time></trkpt><trkpt lat="41.671601" lon="2.0685892"><ele>497.00000000000006</ele><time>2026-05-03T11:15:42.162Z</time></trkpt><trkpt lat="41.6714913" lon="2.0686622"><ele>497.0</ele><time>2026-05-03T11:15:44.162Z</time></trkpt><trkpt lat="41.6714084" lon="2.0686338"><ele>497.0</ele><time>2026-05-03T11:15:45.163Z</time></trkpt><trkpt lat="41.6713199" lon="2.068566"><ele>496.99999999999994</ele><time>2026-05-03T11:15:46.163Z</time></trkpt><trkpt lat="41.6712409" lon="2.0685019"><ele>497.0</ele><time>2026-05-03T11:15:47.163Z</time></trkpt><trkpt lat="41.6711628" lon="2.0684717"><ele>497.0</ele><time>2026-05-03T11:15:48.162Z</time></trkpt><trkpt lat="41.6710821" lon="2.0684481"><ele>497.0</ele><time>2026-05-03T11:15:49.163Z</time></trkpt><trkpt lat="41.6710071" lon="2.068456"><ele>496.99999999999994</ele><time>2026-05-03T11:15:50.163Z</time></trkpt><trkpt lat="41.6709376" lon="2.0684809"><ele>497.0</ele><time>2026-05-03T11:15:51.162Z</time></trkpt><trkpt lat="41.670871" lon="2.0685359"><ele>494.75</ele><time>2026-05-03T11:15:52.163Z</time></trkpt><trkpt lat="41.6708008" lon="2.0686292"><ele>492.5</ele><time>2026-05-03T11:15:53.163Z</time></trkpt><trkpt lat="41.67073" lon="2.0687427"><ele>490.25</ele><time>2026-05-03T11:15:54.162Z</time></trkpt><trkpt lat="41.6706517" lon="2.0688639"><ele>488.0</ele><time>2026-05-03T11:15:55.163Z</time></trkpt><trkpt lat="41.6705716" lon="2.0689881"><ele>488.0</ele><time>2026-05-03T11:15:56.163Z</time></trkpt><trkpt lat="41.6705018" lon="2.0691026"><ele>487.99999999999994</ele><time>2026-05-03T11:15:57.163Z</time></trkpt><trkpt lat="41.6704453" lon="2.0692218"><ele>487.99999999999994</ele><time>2026-05-03T11:15:58.163Z</time></trkpt><trkpt lat="41.6703922" lon="2.0693621"><ele>488.0</ele><time>2026-05-03T11:15:59.163Z</time></trkpt><trkpt lat="41.6703517" lon="2.0695007"><ele>488.0</ele><time>2026-05-03T11:16:00.163Z</time></trkpt><trkpt lat="41.6703049" lon="2.0696636"><ele>487.59999999999997</ele><time>2026-05-03T11:16:01.163Z</time></trkpt><trkpt lat="41.6702636" lon="2.0698315"><ele>487.19999999999993</ele><time>2026-05-03T11:16:02.163Z</time></trkpt><trkpt lat="41.6702273" lon="2.069995"><ele>486.8</ele><time>2026-05-03T11:16:03.163Z</time></trkpt><trkpt lat="41.6702039" lon="2.0701226"><ele>486.4</ele><time>2026-05-03T11:16:04.163Z</time></trkpt><trkpt lat="41.6701921" lon="2.0702429"><ele>486.0</ele><time>2026-05-03T11:16:05.163Z</time></trkpt><trkpt lat="41.6701961" lon="2.0703573"><ele>486.0</ele><time>2026-05-03T11:16:06.163Z</time></trkpt><trkpt lat="41.6701919" lon="2.0704608"><ele>486.0</ele><time>2026-05-03T11:16:07.163Z</time></trkpt><trkpt lat="41.6701668" lon="2.0705385"><ele>486.0</ele><time>2026-05-03T11:16:08.163Z</time></trkpt><trkpt lat="41.6700638" lon="2.0706383"><ele>486.0</ele><time>2026-05-03T11:16:10.163Z</time></trkpt><trkpt lat="41.6699788" lon="2.0706522"><ele>486.0</ele><time>2026-05-03T11:16:11.163Z</time></trkpt><trkpt lat="41.669877" lon="2.0706508"><ele>486.0</ele><time>2026-05-03T11:16:12.162Z</time></trkpt><trkpt lat="41.6697523" lon="2.0706757"><ele>486.0</ele><time>2026-05-03T11:16:13.163Z</time></trkpt><trkpt lat="41.669615" lon="2.0707106"><ele>486.0</ele><time>2026-05-03T11:16:14.163Z</time></trkpt><trkpt lat="41.6694881" lon="2.0707424"><ele>486.0</ele><time>2026-05-03T11:16:15.163Z</time></trkpt><trkpt lat="41.6693696" lon="2.0707649"><ele>487.20000000000005</ele><time>2026-05-03T11:16:16.162Z</time></trkpt><trkpt lat="41.6692617" lon="2.0707743"><ele>488.40000000000003</ele><time>2026-05-03T11:16:17.163Z</time></trkpt><trkpt lat="41.6691621" lon="2.0707804"><ele>489.6</ele><time>2026-05-03T11:16:18.162Z</time></trkpt><trkpt lat="41.6690682" lon="2.0707954"><ele>490.8</ele><time>2026-05-03T11:16:19.163Z</time></trkpt><trkpt lat="41.6689738" lon="2.0708096"><ele>492.0</ele><time>2026-05-03T11:16:20.163Z</time></trkpt><trkpt lat="41.6688878" lon="2.0708167"><ele>492.0</ele><time>2026-05-03T11:16:21.163Z</time></trkpt><trkpt lat="41.668783" lon="2.0708224"><ele>492.00000000000006</ele><time>2026-05-03T11:16:23.163Z</time></trkpt><trkpt lat="41.6686904" lon="2.0709068"><ele>492.00000000000006</ele><time>2026-05-03T11:16:25.162Z</time></trkpt><trkpt lat="41.6686486" lon="2.0709826"><ele>492.0</ele><time>2026-05-03T11:16:26.163Z</time></trkpt><trkpt lat="41.6686159" lon="2.0710913"><ele>492.0</ele><time>2026-05-03T11:16:27.162Z</time></trkpt><trkpt lat="41.6685993" lon="2.0712145"><ele>494.6</ele><time>2026-05-03T11:16:28.163Z</time></trkpt><trkpt lat="41.6686048" lon="2.0713502"><ele>497.20000000000005</ele><time>2026-05-03T11:16:29.162Z</time></trkpt><trkpt lat="41.6686089" lon="2.0714853"><ele>499.8</ele><time>2026-05-03T11:16:30.162Z</time></trkpt><trkpt lat="41.6685907" lon="2.0716146"><ele>502.4</ele><time>2026-05-03T11:16:31.162Z</time></trkpt><trkpt lat="41.6685558" lon="2.0717367"><ele>505.0</ele><time>2026-05-03T11:16:32.163Z</time></trkpt><trkpt lat="41.6684901" lon="2.0718584"><ele>505.0</ele><time>2026-05-03T11:16:33.163Z</time></trkpt><trkpt lat="41.6684072" lon="2.0719843"><ele>505.0</ele><time>2026-05-03T11:16:34.163Z</time></trkpt><trkpt lat="41.668322" lon="2.0721009"><ele>505.0</ele><time>2026-05-03T11:16:35.163Z</time></trkpt><trkpt lat="41.6682515" lon="2.0722243"><ele>505.0</ele><time>2026-05-03T11:16:36.163Z</time></trkpt><trkpt lat="41.6682035" lon="2.0723652"><ele>504.2</ele><time>2026-05-03T11:16:37.163Z</time></trkpt><trkpt lat="41.6681725" lon="2.0725189"><ele>503.4</ele><time>2026-05-03T11:16:38.163Z</time></trkpt><trkpt lat="41.6681508" lon="2.0726359"><ele>502.6</ele><time>2026-05-03T11:16:39.163Z</time></trkpt><trkpt lat="41.6681304" lon="2.0727286"><ele>501.8</ele><time>2026-05-03T11:16:40.163Z</time></trkpt><trkpt lat="41.6680937" lon="2.0728217"><ele>501.0</ele><time>2026-05-03T11:16:41.163Z</time></trkpt><trkpt lat="41.6680398" lon="2.07293"><ele>501.0</ele><time>2026-05-03T11:16:42.162Z</time></trkpt><trkpt lat="41.6679785" lon="2.073028"><ele>501.0</ele><time>2026-05-03T11:16:43.162Z</time></trkpt><trkpt lat="41.6679097" lon="2.0731387"><ele>501.0</ele><time>2026-05-03T11:16:44.163Z</time></trkpt><trkpt lat="41.6678338" lon="2.0732394"><ele>501.0</ele><time>2026-05-03T11:16:45.162Z</time></trkpt><trkpt lat="41.6677604" lon="2.0733178"><ele>501.0</ele><time>2026-05-03T11:16:46.163Z</time></trkpt><trkpt lat="41.6677078" lon="2.0734107"><ele>503.6666666666667</ele><time>2026-05-03T11:16:47.163Z</time></trkpt><trkpt lat="41.6676769" lon="2.0735223"><ele>506.33333333333337</ele><time>2026-05-03T11:16:48.163Z</time></trkpt><trkpt lat="41.6676594" lon="2.07364"><ele>509.0</ele><time>2026-05-03T11:16:49.163Z</time></trkpt><trkpt lat="41.6676477" lon="2.0737516"><ele>511.6666666666667</ele><time>2026-05-03T11:16:50.163Z</time></trkpt><trkpt lat="41.6676618" lon="2.0738648"><ele>514.3333333333334</ele><time>2026-05-03T11:16:51.162Z</time></trkpt><trkpt lat="41.6677017" lon="2.073962"><ele>517.0</ele><time>2026-05-03T11:16:52.163Z</time></trkpt><trkpt lat="41.6677756" lon="2.0740449"><ele>514.6</ele><time>2026-05-03T11:16:53.163Z</time></trkpt><trkpt lat="41.6678593" lon="2.0741125"><ele>512.2</ele><time>2026-05-03T11:16:54.163Z</time></trkpt><trkpt lat="41.6679326" lon="2.0741626"><ele>509.8</ele><time>2026-05-03T11:16:55.162Z</time></trkpt><trkpt lat="41.668004" lon="2.0743106"><ele>507.4</ele><time>2026-05-03T11:16:57.163Z</time></trkpt><trkpt lat="41.6680191" lon="2.0744323"><ele>505.0</ele><time>2026-05-03T11:16:58.163Z</time></trkpt><trkpt lat="41.6680397" lon="2.0745636"><ele>505.00000000000006</ele><time>2026-05-03T11:16:59.162Z</time></trkpt><trkpt lat="41.668077" lon="2.0746838"><ele>505.0</ele><time>2026-05-03T11:17:00.163Z</time></trkpt><trkpt lat="41.6681112" lon="2.0747861"><ele>505.0</ele><time>2026-05-03T11:17:01.163Z</time></trkpt><trkpt lat="41.6681276" lon="2.0748772"><ele>505.0</ele><time>2026-05-03T11:17:02.163Z</time></trkpt><trkpt lat="41.6681424" lon="2.0750324"><ele>505.00000000000006</ele><time>2026-05-03T11:17:04.163Z</time></trkpt><trkpt lat="41.6681235" lon="2.0751154"><ele>505.0</ele><time>2026-05-03T11:17:05.168Z</time></trkpt><trkpt lat="41.6680901" lon="2.075194"><ele>505.6</ele><time>2026-05-03T11:17:06.168Z</time></trkpt><trkpt lat="41.6679646" lon="2.0752439"><ele>506.2</ele><time>2026-05-03T11:17:08.168Z</time></trkpt><trkpt lat="41.6678798" lon="2.0752501"><ele>506.79999999999995</ele><time>2026-05-03T11:17:09.168Z</time></trkpt><trkpt lat="41.6677868" lon="2.0752427"><ele>507.4</ele><time>2026-05-03T11:17:10.168Z</time></trkpt><trkpt lat="41.6677125" lon="2.0752332"><ele>508.0</ele><time>2026-05-03T11:17:11.168Z</time></trkpt><trkpt lat="41.6675989" lon="2.0753154"><ele>510.79999999999995</ele><time>2026-05-03T11:17:13.168Z</time></trkpt><trkpt lat="41.6675301" lon="2.0754022"><ele>513.5999999999999</ele><time>2026-05-03T11:17:14.168Z</time></trkpt><trkpt lat="41.6674555" lon="2.0755164"><ele>516.4000000000001</ele><time>2026-05-03T11:17:15.167Z</time></trkpt><trkpt lat="41.6673955" lon="2.0756382"><ele>519.2</ele><time>2026-05-03T11:17:16.168Z</time></trkpt><trkpt lat="41.6673372" lon="2.0757597"><ele>522.0</ele><time>2026-05-03T11:17:17.168Z</time></trkpt><trkpt lat="41.6672779" lon="2.0758657"><ele>522.0</ele><time>2026-05-03T11:17:18.167Z</time></trkpt><trkpt lat="41.6672246" lon="2.0759625"><ele>522.0</ele><time>2026-05-03T11:17:19.168Z</time></trkpt><trkpt lat="41.6671651" lon="2.0760392"><ele>522.0</ele><time>2026-05-03T11:17:20.167Z</time></trkpt><trkpt lat="41.6671023" lon="2.0760922"><ele>522.0</ele><time>2026-05-03T11:17:21.168Z</time></trkpt><trkpt lat="41.6670209" lon="2.0761237"><ele>522.0</ele><time>2026-05-03T11:17:22.168Z</time></trkpt><trkpt lat="41.6669159" lon="2.0761381"><ele>522.0</ele><time>2026-05-03T11:17:23.168Z</time></trkpt><trkpt lat="41.6668104" lon="2.0761495"><ele>525.2</ele><time>2026-05-03T11:17:24.167Z</time></trkpt><trkpt lat="41.6667078" lon="2.0761553"><ele>528.4000000000001</ele><time>2026-05-03T11:17:25.168Z</time></trkpt><trkpt lat="41.6666108" lon="2.0761487"><ele>531.5999999999999</ele><time>2026-05-03T11:17:26.168Z</time></trkpt><trkpt lat="41.6664965" lon="2.0761211"><ele>534.8</ele><time>2026-05-03T11:17:27.167Z</time></trkpt><trkpt lat="41.6663785" lon="2.0760699"><ele>538.0</ele><time>2026-05-03T11:17:28.168Z</time></trkpt><trkpt lat="41.666265" lon="2.0760272"><ele>538.0</ele><time>2026-05-03T11:17:29.167Z</time></trkpt><trkpt lat="41.6661595" lon="2.0760158"><ele>538.0</ele><time>2026-05-03T11:17:30.168Z</time></trkpt><trkpt lat="41.6660618" lon="2.0760356"><ele>538.0</ele><time>2026-05-03T11:17:31.168Z</time></trkpt><trkpt lat="41.6659759" lon="2.0760618"><ele>538.0</ele><time>2026-05-03T11:17:32.168Z</time></trkpt><trkpt lat="41.6659118" lon="2.0760988"><ele>538.0</ele><time>2026-05-03T11:17:33.168Z</time></trkpt><trkpt lat="41.6658784" lon="2.0762419"><ele>538.0</ele><time>2026-05-03T11:17:35.168Z</time></trkpt><trkpt lat="41.6658796" lon="2.0763419"><ele>538.0</ele><time>2026-05-03T11:17:36.167Z</time></trkpt><trkpt lat="41.6658696" lon="2.0764583"><ele>538.0</ele><time>2026-05-03T11:17:37.167Z</time></trkpt><trkpt lat="41.6658388" lon="2.0766105"><ele>538.0</ele><time>2026-05-03T11:17:38.167Z</time></trkpt><trkpt lat="41.6657912" lon="2.0767517"><ele>538.0</ele><time>2026-05-03T11:17:39.167Z</time></trkpt><trkpt lat="41.6657584" lon="2.0768521"><ele>538.0</ele><time>2026-05-03T11:17:40.168Z</time></trkpt><trkpt lat="41.6657343" lon="2.0769505"><ele>538.0</ele><time>2026-05-03T11:17:41.168Z</time></trkpt><trkpt lat="41.6657672" lon="2.077058"><ele>538.0</ele><time>2026-05-03T11:17:43.168Z</time></trkpt><trkpt lat="41.6658984" lon="2.0771287"><ele>538.0</ele><time>2026-05-03T11:17:45.168Z</time></trkpt><trkpt lat="41.6659842" lon="2.0771248"><ele>538.0</ele><time>2026-05-03T11:17:46.168Z</time></trkpt><trkpt lat="41.6660613" lon="2.0771193"><ele>538.0</ele><time>2026-05-03T11:17:47.167Z</time></trkpt><trkpt lat="41.6661399" lon="2.077161"><ele>538.0</ele><time>2026-05-03T11:17:49.168Z</time></trkpt><trkpt lat="41.6661524" lon="2.0772454"><ele>538.0</ele><time>2026-05-03T11:17:51.168Z</time></trkpt><trkpt lat="41.6661012" lon="2.0773104"><ele>538.0</ele><time>2026-05-03T11:17:53.167Z</time></trkpt><trkpt lat="41.6660387" lon="2.0773451"><ele>538.0</ele><time>2026-05-03T11:17:54.167Z</time></trkpt><trkpt lat="41.6659663" lon="2.0773976"><ele>538.0</ele><time>2026-05-03T11:17:55.167Z</time></trkpt><trkpt lat="41.6658765" lon="2.07747"><ele>539.4</ele><time>2026-05-03T11:17:56.168Z</time></trkpt><trkpt lat="41.6657956" lon="2.0775426"><ele>540.8</ele><time>2026-05-03T11:17:57.167Z</time></trkpt><trkpt lat="41.6657274" lon="2.0775924"><ele>542.2</ele><time>2026-05-03T11:17:58.168Z</time></trkpt><trkpt lat="41.6655808" lon="2.0775566"><ele>543.6</ele><time>2026-05-03T11:18:00.168Z</time></trkpt><trkpt lat="41.6654851" lon="2.0774957"><ele>545.0</ele><time>2026-05-03T11:18:01.167Z</time></trkpt><trkpt lat="41.665393" lon="2.0774407"><ele>543.8333333333333</ele><time>2026-05-03T11:18:02.168Z</time></trkpt><trkpt lat="41.6653194" lon="2.0773872"><ele>542.6666666666666</ele><time>2026-05-03T11:18:03.168Z</time></trkpt><trkpt lat="41.6652473" lon="2.0773586"><ele>541.5</ele><time>2026-05-03T11:18:04.168Z</time></trkpt><trkpt lat="41.6651765" lon="2.0773337"><ele>540.3333333333334</ele><time>2026-05-03T11:18:05.168Z</time></trkpt><trkpt lat="41.6650932" lon="2.0773101"><ele>539.1666666666667</ele><time>2026-05-03T11:18:06.168Z</time></trkpt><trkpt lat="41.665" lon="2.0772982"><ele>538.0</ele><time>2026-05-03T11:18:07.168Z</time></trkpt><trkpt lat="41.6649137" lon="2.0773034"><ele>540.8</ele><time>2026-05-03T11:18:08.168Z</time></trkpt><trkpt lat="41.6648391" lon="2.0773104"><ele>543.5999999999999</ele><time>2026-05-03T11:18:09.167Z</time></trkpt><trkpt lat="41.6647323" lon="2.0773238"><ele>546.4000000000001</ele><time>2026-05-03T11:18:11.168Z</time></trkpt><trkpt lat="41.6646764" lon="2.0773708"><ele>549.2</ele><time>2026-05-03T11:18:13.168Z</time></trkpt><trkpt lat="41.6646636" lon="2.0774662"><ele>552.0</ele><time>2026-05-03T11:18:15.168Z</time></trkpt><trkpt lat="41.6647097" lon="2.0776424"><ele>552.0</ele><time>2026-05-03T11:18:17.168Z</time></trkpt><trkpt lat="41.6647277" lon="2.0777632"><ele>552.0</ele><time>2026-05-03T11:18:18.168Z</time></trkpt><trkpt lat="41.6647361" lon="2.0778939"><ele>552.0</ele><time>2026-05-03T11:18:19.168Z</time></trkpt><trkpt lat="41.6647565" lon="2.078043"><ele>552.0</ele><time>2026-05-03T11:18:20.167Z</time></trkpt><trkpt lat="41.664781" lon="2.0782086"><ele>552.0</ele><time>2026-05-03T11:18:21.167Z</time></trkpt><trkpt lat="41.6648069" lon="2.0783869"><ele>552.5</ele><time>2026-05-03T11:18:22.168Z</time></trkpt><trkpt lat="41.6648331" lon="2.0785719"><ele>553.0</ele><time>2026-05-03T11:18:23.168Z</time></trkpt><trkpt lat="41.6648515" lon="2.0787624"><ele>553.5</ele><time>2026-05-03T11:18:24.168Z</time></trkpt><trkpt lat="41.6648488" lon="2.0789437"><ele>554.0</ele><time>2026-05-03T11:18:25.168Z</time></trkpt><trkpt lat="41.6648446" lon="2.0791002"><ele>554.0</ele><time>2026-05-03T11:18:26.168Z</time></trkpt><trkpt lat="41.6648453" lon="2.0792358"><ele>554.0</ele><time>2026-05-03T11:18:27.168Z</time></trkpt><trkpt lat="41.6648591" lon="2.0793773"><ele>554.0</ele><time>2026-05-03T11:18:28.168Z</time></trkpt><trkpt lat="41.6648892" lon="2.079509"><ele>554.0</ele><time>2026-05-03T11:18:29.167Z</time></trkpt><trkpt lat="41.6649186" lon="2.0796095"><ele>554.0</ele><time>2026-05-03T11:18:30.168Z</time></trkpt><trkpt lat="41.6649626" lon="2.0796908"><ele>554.0</ele><time>2026-05-03T11:18:31.168Z</time></trkpt><trkpt lat="41.6650074" lon="2.0797517"><ele>554.0</ele><time>2026-05-03T11:18:32.168Z</time></trkpt><trkpt lat="41.665083" lon="2.0798108"><ele>554.0</ele><time>2026-05-03T11:18:33.168Z</time></trkpt><trkpt lat="41.6651825" lon="2.0798681"><ele>554.0</ele><time>2026-05-03T11:18:34.168Z</time></trkpt><trkpt lat="41.6652787" lon="2.0799333"><ele>554.0</ele><time>2026-05-03T11:18:35.168Z</time></trkpt><trkpt lat="41.6653664" lon="2.0800015"><ele>556.3333333333333</ele><time>2026-05-03T11:18:36.167Z</time></trkpt><trkpt lat="41.6654367" lon="2.08008"><ele>558.6666666666666</ele><time>2026-05-03T11:18:37.168Z</time></trkpt><trkpt lat="41.6654813" lon="2.0801665"><ele>561.0</ele><time>2026-05-03T11:18:38.168Z</time></trkpt><trkpt lat="41.6655178" lon="2.0802564"><ele>563.3333333333334</ele><time>2026-05-03T11:18:39.168Z</time></trkpt><trkpt lat="41.665529" lon="2.0803597"><ele>565.6666666666667</ele><time>2026-05-03T11:18:40.168Z</time></trkpt><trkpt lat="41.6654976" lon="2.0804606"><ele>568.0</ele><time>2026-05-03T11:18:41.168Z</time></trkpt><trkpt lat="41.6654353" lon="2.0805605"><ele>568.0</ele><time>2026-05-03T11:18:42.168Z</time></trkpt><trkpt lat="41.6653444" lon="2.080648"><ele>568.0</ele><time>2026-05-03T11:18:43.167Z</time></trkpt><trkpt lat="41.6652444" lon="2.0807407"><ele>568.0</ele><time>2026-05-03T11:18:44.168Z</time></trkpt><trkpt lat="41.6651636" lon="2.080821"><ele>568.0</ele><time>2026-05-03T11:18:45.168Z</time></trkpt><trkpt lat="41.6651076" lon="2.0808912"><ele>568.0</ele><time>2026-05-03T11:18:46.167Z</time></trkpt><trkpt lat="41.6650431" lon="2.0809957"><ele>567.25</ele><time>2026-05-03T11:18:48.168Z</time></trkpt><trkpt lat="41.6650836" lon="2.0811761"><ele>566.5</ele><time>2026-05-03T11:18:50.168Z</time></trkpt><trkpt lat="41.6651387" lon="2.0812706"><ele>565.75</ele><time>2026-05-03T11:18:51.168Z</time></trkpt><trkpt lat="41.6652092" lon="2.08138"><ele>565.0</ele><time>2026-05-03T11:18:52.168Z</time></trkpt><trkpt lat="41.6652978" lon="2.0814991"><ele>565.6</ele><time>2026-05-03T11:18:53.167Z</time></trkpt><trkpt lat="41.6653887" lon="2.0816124"><ele>566.2</ele><time>2026-05-03T11:18:54.168Z</time></trkpt><trkpt lat="41.6654714" lon="2.0817006"><ele>566.8</ele><time>2026-05-03T11:18:55.168Z</time></trkpt><trkpt lat="41.6655387" lon="2.0817648"><ele>567.4</ele><time>2026-05-03T11:18:56.168Z</time></trkpt><trkpt lat="41.6655886" lon="2.0818378"><ele>568.0</ele><time>2026-05-03T11:18:57.168Z</time></trkpt><trkpt lat="41.6655989" lon="2.0819341"><ele>568.0</ele><time>2026-05-03T11:18:58.168Z</time></trkpt><trkpt lat="41.6655872" lon="2.0820223"><ele>568.0</ele><time>2026-05-03T11:18:59.168Z</time></trkpt><trkpt lat="41.6655366" lon="2.0821171"><ele>568.0</ele><time>2026-05-03T11:19:00.168Z</time></trkpt><trkpt lat="41.6654596" lon="2.0821963"><ele>568.0</ele><time>2026-05-03T11:19:01.168Z</time></trkpt><trkpt lat="41.6653736" lon="2.082258"><ele>568.0</ele><time>2026-05-03T11:19:02.168Z</time></trkpt><trkpt lat="41.6652717" lon="2.0822665"><ele>565.0</ele><time>2026-05-03T11:19:03.168Z</time></trkpt><trkpt lat="41.6651777" lon="2.0822535"><ele>562.0</ele><time>2026-05-03T11:19:04.168Z</time></trkpt><trkpt lat="41.6650949" lon="2.0822393"><ele>559.0</ele><time>2026-05-03T11:19:05.168Z</time></trkpt><trkpt lat="41.6649877" lon="2.0822878"><ele>556.0</ele><time>2026-05-03T11:19:07.168Z</time></trkpt><trkpt lat="41.6649301" lon="2.0824086"><ele>553.0</ele><time>2026-05-03T11:19:09.168Z</time></trkpt><trkpt lat="41.6649663" lon="2.0825666"><ele>553.0</ele><time>2026-05-03T11:19:11.168Z</time></trkpt><trkpt lat="41.6650299" lon="2.0826506"><ele>553.0</ele><time>2026-05-03T11:19:12.168Z</time></trkpt><trkpt lat="41.6651266" lon="2.0827415"><ele>553.0</ele><time>2026-05-03T11:19:13.168Z</time></trkpt><trkpt lat="41.665233" lon="2.0828316"><ele>553.0</ele><time>2026-05-03T11:19:14.168Z</time></trkpt><trkpt lat="41.6653023" lon="2.082922"><ele>553.0</ele><time>2026-05-03T11:19:15.168Z</time></trkpt><trkpt lat="41.665339" lon="2.0830324"><ele>553.6</ele><time>2026-05-03T11:19:16.168Z</time></trkpt><trkpt lat="41.6653372" lon="2.083158"><ele>554.1999999999999</ele><time>2026-05-03T11:19:17.168Z</time></trkpt><trkpt lat="41.665323" lon="2.0832717"><ele>554.8</ele><time>2026-05-03T11:19:18.168Z</time></trkpt><trkpt lat="41.6652514" lon="2.0833792"><ele>555.4</ele><time>2026-05-03T11:19:19.167Z</time></trkpt><trkpt lat="41.6651713" lon="2.0834506"><ele>556.0</ele><time>2026-05-03T11:19:20.167Z</time></trkpt><trkpt lat="41.6651154" lon="2.0835186"><ele>556.0</ele><time>2026-05-03T11:19:21.168Z</time></trkpt><trkpt lat="41.6650707" lon="2.0835912"><ele>556.0</ele><time>2026-05-03T11:19:22.168Z</time></trkpt><trkpt lat="41.6650428" lon="2.0836743"><ele>556.0</ele><time>2026-05-03T11:19:23.167Z</time></trkpt><trkpt lat="41.6650306" lon="2.0837939"><ele>556.0</ele><time>2026-05-03T11:19:24.168Z</time></trkpt><trkpt lat="41.6650327" lon="2.0839287"><ele>556.0</ele><time>2026-05-03T11:19:25.168Z</time></trkpt><trkpt lat="41.6650431" lon="2.0840803"><ele>556.0</ele><time>2026-05-03T11:19:26.167Z</time></trkpt><trkpt lat="41.6650588" lon="2.0842459"><ele>556.8</ele><time>2026-05-03T11:19:27.168Z</time></trkpt><trkpt lat="41.6650748" lon="2.0843901"><ele>557.6</ele><time>2026-05-03T11:19:28.167Z</time></trkpt><trkpt lat="41.6650776" lon="2.084513"><ele>558.4</ele><time>2026-05-03T11:19:29.168Z</time></trkpt><trkpt lat="41.6650537" lon="2.0846175"><ele>559.2</ele><time>2026-05-03T11:19:30.167Z</time></trkpt><trkpt lat="41.6649582" lon="2.0847238"><ele>560.0</ele><time>2026-05-03T11:19:32.168Z</time></trkpt><trkpt lat="41.6648796" lon="2.0847421"><ele>560.0</ele><time>2026-05-03T11:19:33.168Z</time></trkpt><trkpt lat="41.6647925" lon="2.084714"><ele>560.0</ele><time>2026-05-03T11:19:34.167Z</time></trkpt><trkpt lat="41.6647108" lon="2.0846574"><ele>560.0</ele><time>2026-05-03T11:19:35.167Z</time></trkpt><trkpt lat="41.6646247" lon="2.0846104"><ele>560.0</ele><time>2026-05-03T11:19:36.167Z</time></trkpt><trkpt lat="41.6645605" lon="2.0845818"><ele>560.0</ele><time>2026-05-03T11:19:37.167Z</time></trkpt><trkpt lat="41.6644592" lon="2.0846311"><ele>559.0</ele><time>2026-05-03T11:19:39.168Z</time></trkpt><trkpt lat="41.6643981" lon="2.0847045"><ele>558.0</ele><time>2026-05-03T11:19:40.168Z</time></trkpt><trkpt lat="41.6643289" lon="2.0847904"><ele>557.0</ele><time>2026-05-03T11:19:41.168Z</time></trkpt><trkpt lat="41.6642601" lon="2.0848382"><ele>556.0</ele><time>2026-05-03T11:19:42.167Z</time></trkpt><trkpt lat="41.664176" lon="2.0848506"><ele>555.0</ele><time>2026-05-03T11:19:43.168Z</time></trkpt><trkpt lat="41.6640818" lon="2.0848165"><ele>554.0</ele><time>2026-05-03T11:19:44.168Z</time></trkpt><trkpt lat="41.6639763" lon="2.0847491"><ele>554.0</ele><time>2026-05-03T11:19:45.168Z</time></trkpt><trkpt lat="41.6638678" lon="2.0846909"><ele>554.0</ele><time>2026-05-03T11:19:46.168Z</time></trkpt><trkpt lat="41.6637657" lon="2.0846555"><ele>554.0</ele><time>2026-05-03T11:19:47.168Z</time></trkpt><trkpt lat="41.6636632" lon="2.0846271"><ele>554.0</ele><time>2026-05-03T11:19:48.167Z</time></trkpt><trkpt lat="41.6635656" lon="2.0846211"><ele>554.0</ele><time>2026-05-03T11:19:49.168Z</time></trkpt><trkpt lat="41.6634816" lon="2.0846382"><ele>555.2</ele><time>2026-05-03T11:19:50.167Z</time></trkpt><trkpt lat="41.6634121" lon="2.0846706"><ele>556.4</ele><time>2026-05-03T11:19:51.168Z</time></trkpt><trkpt lat="41.6633378" lon="2.0847942"><ele>557.6</ele><time>2026-05-03T11:19:53.168Z</time></trkpt><trkpt lat="41.6633193" lon="2.0849066"><ele>558.8</ele><time>2026-05-03T11:19:54.168Z</time></trkpt><trkpt lat="41.6633146" lon="2.0850299"><ele>560.0</ele><time>2026-05-03T11:19:55.167Z</time></trkpt><trkpt lat="41.6633388" lon="2.0851594"><ele>560.0</ele><time>2026-05-03T11:19:56.167Z</time></trkpt><trkpt lat="41.6633933" lon="2.0852945"><ele>560.0</ele><time>2026-05-03T11:19:57.168Z</time></trkpt><trkpt lat="41.6634699" lon="2.0854507"><ele>560.0</ele><time>2026-05-03T11:19:58.168Z</time></trkpt><trkpt lat="41.6635534" lon="2.085605"><ele>560.0</ele><time>2026-05-03T11:19:59.168Z</time></trkpt><trkpt lat="41.6636328" lon="2.0857672"><ele>565.25</ele><time>2026-05-03T11:20:00.168Z</time></trkpt><trkpt lat="41.663698" lon="2.0859449"><ele>570.5</ele><time>2026-05-03T11:20:01.167Z</time></trkpt><trkpt lat="41.6637525" lon="2.0861109"><ele>575.75</ele><time>2026-05-03T11:20:02.168Z</time></trkpt><trkpt lat="41.663782" lon="2.0862357"><ele>581.0</ele><time>2026-05-03T11:20:03.168Z</time></trkpt><trkpt lat="41.6638035" lon="2.0863518"><ele>581.0</ele><time>2026-05-03T11:20:04.168Z</time></trkpt><trkpt lat="41.6637943" lon="2.0864779"><ele>581.0</ele><time>2026-05-03T11:20:05.167Z</time></trkpt><trkpt lat="41.6637481" lon="2.0865988"><ele>581.0</ele><time>2026-05-03T11:20:06.168Z</time></trkpt><trkpt lat="41.6636818" lon="2.0867082"><ele>581.0</ele><time>2026-05-03T11:20:07.168Z</time></trkpt><trkpt lat="41.6636059" lon="2.086809"><ele>581.0</ele><time>2026-05-03T11:20:08.168Z</time></trkpt><trkpt lat="41.6635154" lon="2.0869016"><ele>578.0</ele><time>2026-05-03T11:20:09.167Z</time></trkpt><trkpt lat="41.6634104" lon="2.0869868"><ele>575.0</ele><time>2026-05-03T11:20:10.168Z</time></trkpt><trkpt lat="41.6633023" lon="2.0870811"><ele>572.0</ele><time>2026-05-03T11:20:11.168Z</time></trkpt><trkpt lat="41.6632024" lon="2.0871903"><ele>569.0</ele><time>2026-05-03T11:20:12.168Z</time></trkpt><trkpt lat="41.6631022" lon="2.087288"><ele>569.0</ele><time>2026-05-03T11:20:13.167Z</time></trkpt><trkpt lat="41.663016" lon="2.0873655"><ele>569.0</ele><time>2026-05-03T11:20:14.167Z</time></trkpt><trkpt lat="41.6629405" lon="2.087438"><ele>569.0</ele><time>2026-05-03T11:20:15.168Z</time></trkpt><trkpt lat="41.6628766" lon="2.0874923"><ele>569.0</ele><time>2026-05-03T11:20:16.168Z</time></trkpt><trkpt lat="41.66284" lon="2.0875649"><ele>569.0</ele><time>2026-05-03T11:20:17.168Z</time></trkpt><trkpt lat="41.6628139" lon="2.0876927"><ele>569.0</ele><time>2026-05-03T11:20:18.168Z</time></trkpt><trkpt lat="41.6627889" lon="2.0878246"><ele>569.6666666666666</ele><time>2026-05-03T11:20:19.168Z</time></trkpt><trkpt lat="41.6627626" lon="2.0879145"><ele>570.3333333333333</ele><time>2026-05-03T11:20:20.168Z</time></trkpt><trkpt lat="41.6627182" lon="2.0879783"><ele>571.0</ele><time>2026-05-03T11:20:21.168Z</time></trkpt><trkpt lat="41.6626449" lon="2.0880155"><ele>571.6666666666666</ele><time>2026-05-03T11:20:22.168Z</time></trkpt><trkpt lat="41.6625648" lon="2.0879978"><ele>572.3333333333334</ele><time>2026-05-03T11:20:23.167Z</time></trkpt><trkpt lat="41.6625001" lon="2.0879535"><ele>573.0</ele><time>2026-05-03T11:20:24.167Z</time></trkpt><trkpt lat="41.6624405" lon="2.087852"><ele>573.0</ele><time>2026-05-03T11:20:25.168Z</time></trkpt><trkpt lat="41.6623787" lon="2.087755"><ele>573.0</ele><time>2026-05-03T11:20:26.168Z</time></trkpt><trkpt lat="41.6623295" lon="2.0876804"><ele>573.0</ele><time>2026-05-03T11:20:27.168Z</time></trkpt><trkpt lat="41.6622185" lon="2.0876523"><ele>573.0</ele><time>2026-05-03T11:20:29.168Z</time></trkpt><trkpt lat="41.662141" lon="2.0876878"><ele>573.0</ele><time>2026-05-03T11:20:30.168Z</time></trkpt><trkpt lat="41.6620557" lon="2.0877416"><ele>573.0</ele><time>2026-05-03T11:20:31.167Z</time></trkpt><trkpt lat="41.6619635" lon="2.0878049"><ele>573.0</ele><time>2026-05-03T11:20:32.168Z</time></trkpt><trkpt lat="41.6618575" lon="2.0878526"><ele>573.0</ele><time>2026-05-03T11:20:33.167Z</time></trkpt><trkpt lat="41.6617466" lon="2.0878706"><ele>573.0</ele><time>2026-05-03T11:20:34.168Z</time></trkpt><trkpt lat="41.6616433" lon="2.0878602"><ele>573.0</ele><time>2026-05-03T11:20:35.168Z</time></trkpt><trkpt lat="41.6615712" lon="2.0878236"><ele>574.0</ele><time>2026-05-03T11:20:36.168Z</time></trkpt><trkpt lat="41.6615077" lon="2.0877535"><ele>575.0</ele><time>2026-05-03T11:20:37.168Z</time></trkpt><trkpt lat="41.6614498" lon="2.0876248"><ele>576.0</ele><time>2026-05-03T11:20:38.168Z</time></trkpt><trkpt lat="41.6613707" lon="2.0875225"><ele>577.0</ele><time>2026-05-03T11:20:39.168Z</time></trkpt><trkpt lat="41.6612858" lon="2.0874476"><ele>578.0</ele><time>2026-05-03T11:20:40.168Z</time></trkpt><trkpt lat="41.6612158" lon="2.0873894"><ele>579.8333333333333</ele><time>2026-05-03T11:20:41.167Z</time></trkpt><trkpt lat="41.6611372" lon="2.0873588"><ele>581.6666666666666</ele><time>2026-05-03T11:20:42.168Z</time></trkpt><trkpt lat="41.6610552" lon="2.0873416"><ele>583.5</ele><time>2026-05-03T11:20:43.168Z</time></trkpt><trkpt lat="41.6609758" lon="2.0873403"><ele>585.3333333333334</ele><time>2026-05-03T11:20:44.168Z</time></trkpt><trkpt lat="41.6608885" lon="2.0873655"><ele>587.1666666666667</ele><time>2026-05-03T11:20:45.168Z</time></trkpt><trkpt lat="41.6607807" lon="2.0874185"><ele>589.0</ele><time>2026-05-03T11:20:46.168Z</time></trkpt><trkpt lat="41.6606729" lon="2.0874524"><ele>589.0</ele><time>2026-05-03T11:20:47.168Z</time></trkpt><trkpt lat="41.6605911" lon="2.0874654"><ele>589.0</ele><time>2026-05-03T11:20:48.168Z</time></trkpt><trkpt lat="41.6605098" lon="2.0874674"><ele>589.0</ele><time>2026-05-03T11:20:49.168Z</time></trkpt><trkpt lat="41.660429" lon="2.0874458"><ele>589.0</ele><time>2026-05-03T11:20:50.168Z</time></trkpt><trkpt lat="41.6603392" lon="2.087393"><ele>589.0</ele><time>2026-05-03T11:20:51.168Z</time></trkpt><trkpt lat="41.660252" lon="2.0873399"><ele>589.0</ele><time>2026-05-03T11:20:52.167Z</time></trkpt><trkpt lat="41.6601791" lon="2.0873224"><ele>588.0</ele><time>2026-05-03T11:20:53.167Z</time></trkpt><trkpt lat="41.6600674" lon="2.0873666"><ele>587.0</ele><time>2026-05-03T11:20:55.168Z</time></trkpt><trkpt lat="41.6599766" lon="2.0875068"><ele>586.0</ele><time>2026-05-03T11:20:57.168Z</time></trkpt><trkpt lat="41.6599287" lon="2.0876226"><ele>585.0</ele><time>2026-05-03T11:20:58.168Z</time></trkpt><trkpt lat="41.6598589" lon="2.0877276"><ele>585.0</ele><time>2026-05-03T11:20:59.168Z</time></trkpt><trkpt lat="41.6597724" lon="2.0878003"><ele>585.0</ele><time>2026-05-03T11:21:00.167Z</time></trkpt><trkpt lat="41.659683" lon="2.0878627"><ele>585.0</ele><time>2026-05-03T11:21:01.168Z</time></trkpt><trkpt lat="41.6595937" lon="2.0879052"><ele>585.0</ele><time>2026-05-03T11:21:02.168Z</time></trkpt><trkpt lat="41.6594953" lon="2.0879114"><ele>585.0</ele><time>2026-05-03T11:21:03.168Z</time></trkpt><trkpt lat="41.6593988" lon="2.087879"><ele>584.2</ele><time>2026-05-03T11:21:04.168Z</time></trkpt><trkpt lat="41.659309" lon="2.087814"><ele>583.4</ele><time>2026-05-03T11:21:05.168Z</time></trkpt><trkpt lat="41.6592135" lon="2.0877417"><ele>582.6</ele><time>2026-05-03T11:21:06.168Z</time></trkpt><trkpt lat="41.6591302" lon="2.0876862"><ele>581.8</ele><time>2026-05-03T11:21:07.168Z</time></trkpt><trkpt lat="41.6590521" lon="2.087663"><ele>581.0</ele><time>2026-05-03T11:21:08.168Z</time></trkpt><trkpt lat="41.6589843" lon="2.0876758"><ele>581.0</ele><time>2026-05-03T11:21:09.168Z</time></trkpt><trkpt lat="41.6589087" lon="2.0877064"><ele>581.0</ele><time>2026-05-03T11:21:10.168Z</time></trkpt><trkpt lat="41.6588178" lon="2.0877815"><ele>581.0</ele><time>2026-05-03T11:21:11.167Z</time></trkpt><trkpt lat="41.6587019" lon="2.0878588"><ele>581.0</ele><time>2026-05-03T11:21:12.167Z</time></trkpt><trkpt lat="41.6585793" lon="2.0879309"><ele>581.0</ele><time>2026-05-03T11:21:13.168Z</time></trkpt><trkpt lat="41.6584552" lon="2.0880041"><ele>581.0</ele><time>2026-05-03T11:21:14.167Z</time></trkpt><trkpt lat="41.6583267" lon="2.0880849"><ele>581.0</ele><time>2026-05-03T11:21:15.168Z</time></trkpt><trkpt lat="41.6582174" lon="2.0881526"><ele>581.0</ele><time>2026-05-03T11:21:16.168Z</time></trkpt><trkpt lat="41.6581258" lon="2.0881819"><ele>581.0</ele><time>2026-05-03T11:21:17.168Z</time></trkpt><trkpt lat="41.658052" lon="2.0881944"><ele>581.0</ele><time>2026-05-03T11:21:18.168Z</time></trkpt><trkpt lat="41.6579872" lon="2.0881941"><ele>581.0</ele><time>2026-05-03T11:21:19.168Z</time></trkpt><trkpt lat="41.6579234" lon="2.0882397"><ele>581.0</ele><time>2026-05-03T11:21:20.168Z</time></trkpt><trkpt lat="41.6578414" lon="2.0883215"><ele>581.0</ele><time>2026-05-03T11:21:21.168Z</time></trkpt><trkpt lat="41.6577545" lon="2.0884201"><ele>581.0</ele><time>2026-05-03T11:21:22.168Z</time></trkpt><trkpt lat="41.6576657" lon="2.0885312"><ele>581.0</ele><time>2026-05-03T11:21:23.167Z</time></trkpt><trkpt lat="41.6575811" lon="2.0886373"><ele>582.0</ele><time>2026-05-03T11:21:24.168Z</time></trkpt><trkpt lat="41.6574916" lon="2.0887339"><ele>583.0</ele><time>2026-05-03T11:21:25.168Z</time></trkpt><trkpt lat="41.6573933" lon="2.0888099"><ele>584.0</ele><time>2026-05-03T11:21:26.167Z</time></trkpt><trkpt lat="41.6572968" lon="2.0888613"><ele>585.0</ele><time>2026-05-03T11:21:27.167Z</time></trkpt><trkpt lat="41.6571987" lon="2.0888856"><ele>586.0</ele><time>2026-05-03T11:21:28.168Z</time></trkpt><trkpt lat="41.657109" lon="2.0888912"><ele>586.0</ele><time>2026-05-03T11:21:29.167Z</time></trkpt><trkpt lat="41.6570312" lon="2.0888604"><ele>586.0</ele><time>2026-05-03T11:21:30.168Z</time></trkpt><trkpt lat="41.6569649" lon="2.0887859"><ele>586.0</ele><time>2026-05-03T11:21:31.168Z</time></trkpt><trkpt lat="41.6569035" lon="2.0886843"><ele>586.0</ele><time>2026-05-03T11:21:32.167Z</time></trkpt><trkpt lat="41.6568348" lon="2.0886058"><ele>586.0</ele><time>2026-05-03T11:21:33.168Z</time></trkpt><trkpt lat="41.6567611" lon="2.0885507"><ele>586.0</ele><time>2026-05-03T11:21:34.168Z</time></trkpt><trkpt lat="41.6566996" lon="2.0885051"><ele>585.8</ele><time>2026-05-03T11:21:35.167Z</time></trkpt><trkpt lat="41.6566384" lon="2.0884483"><ele>585.6</ele><time>2026-05-03T11:21:36.168Z</time></trkpt><trkpt lat="41.6565786" lon="2.0883887"><ele>585.4</ele><time>2026-05-03T11:21:37.167Z</time></trkpt><trkpt lat="41.6564786" lon="2.0883321"><ele>585.2</ele><time>2026-05-03T11:21:39.168Z</time></trkpt><trkpt lat="41.656387" lon="2.0883197"><ele>585.0</ele><time>2026-05-03T11:21:41.168Z</time></trkpt><trkpt lat="41.6562714" lon="2.0882208"><ele>585.0</ele><time>2026-05-03T11:21:43.168Z</time></trkpt><trkpt lat="41.6561989" lon="2.0881446"><ele>585.0</ele><time>2026-05-03T11:21:44.167Z</time></trkpt><trkpt lat="41.6561415" lon="2.0880455"><ele>585.0</ele><time>2026-05-03T11:21:45.168Z</time></trkpt><trkpt lat="41.6561001" lon="2.0879542"><ele>585.0</ele><time>2026-05-03T11:21:46.168Z</time></trkpt><trkpt lat="41.6560751" lon="2.0878723"><ele>585.0</ele><time>2026-05-03T11:21:47.168Z</time></trkpt><trkpt lat="41.656066" lon="2.0877792"><ele>585.0</ele><time>2026-05-03T11:21:48.167Z</time></trkpt><trkpt lat="41.6560609" lon="2.0876891"><ele>584.2</ele><time>2026-05-03T11:21:49.167Z</time></trkpt><trkpt lat="41.6559877" lon="2.0875624"><ele>583.4</ele><time>2026-05-03T11:21:51.168Z</time></trkpt><trkpt lat="41.6559131" lon="2.0875183"><ele>582.6</ele><time>2026-05-03T11:21:52.168Z</time></trkpt><trkpt lat="41.6558191" lon="2.0874861"><ele>581.8</ele><time>2026-05-03T11:21:53.168Z</time></trkpt><trkpt lat="41.6557267" lon="2.0874563"><ele>581.0</ele><time>2026-05-03T11:21:54.168Z</time></trkpt><trkpt lat="41.6556374" lon="2.0874241"><ele>581.0</ele><time>2026-05-03T11:21:55.168Z</time></trkpt><trkpt lat="41.6555506" lon="2.0873843"><ele>581.0</ele><time>2026-05-03T11:21:56.167Z</time></trkpt><trkpt lat="41.6554559" lon="2.087345"><ele>581.0</ele><time>2026-05-03T11:21:57.168Z</time></trkpt><trkpt lat="41.6553563" lon="2.0873153"><ele>581.0</ele><time>2026-05-03T11:21:58.167Z</time></trkpt><trkpt lat="41.6552518" lon="2.0873023"><ele>581.0</ele><time>2026-05-03T11:21:59.168Z</time></trkpt><trkpt lat="41.6551438" lon="2.0872978"><ele>583.75</ele><time>2026-05-03T11:22:00.168Z</time></trkpt><trkpt lat="41.6550315" lon="2.0873039"><ele>586.5</ele><time>2026-05-03T11:22:01.167Z</time></trkpt><trkpt lat="41.6549089" lon="2.0873109"><ele>589.25</ele><time>2026-05-03T11:22:02.168Z</time></trkpt><trkpt lat="41.6547726" lon="2.0873115"><ele>592.0</ele><time>2026-05-03T11:22:03.168Z</time></trkpt><trkpt lat="41.6546494" lon="2.0873182"><ele>592.0</ele><time>2026-05-03T11:22:04.168Z</time></trkpt><trkpt lat="41.6545442" lon="2.0873065"><ele>592.0</ele><time>2026-05-03T11:22:05.168Z</time></trkpt><trkpt lat="41.6544507" lon="2.0872853"><ele>592.0</ele><time>2026-05-03T11:22:06.168Z</time></trkpt><trkpt lat="41.6543618" lon="2.0872481"><ele>592.0</ele><time>2026-05-03T11:22:07.168Z</time></trkpt><trkpt lat="41.6542686" lon="2.0871817"><ele>592.0</ele><time>2026-05-03T11:22:08.168Z</time></trkpt><trkpt lat="41.6541769" lon="2.0870938"><ele>595.5</ele><time>2026-05-03T11:22:09.168Z</time></trkpt><trkpt lat="41.6540863" lon="2.0870098"><ele>599.0</ele><time>2026-05-03T11:22:10.167Z</time></trkpt><trkpt lat="41.6540016" lon="2.0869314"><ele>602.5</ele><time>2026-05-03T11:22:11.168Z</time></trkpt><trkpt lat="41.6539012" lon="2.0868406"><ele>606.0</ele><time>2026-05-03T11:22:12.167Z</time></trkpt><trkpt lat="41.6538002" lon="2.0867427"><ele>606.0</ele><time>2026-05-03T11:22:13.168Z</time></trkpt><trkpt lat="41.6537064" lon="2.0866402"><ele>606.0</ele><time>2026-05-03T11:22:14.168Z</time></trkpt><trkpt lat="41.6536205" lon="2.0865435"><ele>606.0</ele><time>2026-05-03T11:22:15.168Z</time></trkpt><trkpt lat="41.6535398" lon="2.0864512"><ele>606.0</ele><time>2026-05-03T11:22:16.168Z</time></trkpt><trkpt lat="41.6534512" lon="2.08637"><ele>606.0</ele><time>2026-05-03T11:22:17.168Z</time></trkpt><trkpt lat="41.6533545" lon="2.0863171"><ele>605.6</ele><time>2026-05-03T11:22:18.167Z</time></trkpt><trkpt lat="41.6532644" lon="2.0862949"><ele>605.2</ele><time>2026-05-03T11:22:19.167Z</time></trkpt><trkpt lat="41.6531744" lon="2.0862933"><ele>604.8</ele><time>2026-05-03T11:22:20.168Z</time></trkpt><trkpt lat="41.6530798" lon="2.0863239"><ele>604.4</ele><time>2026-05-03T11:22:21.168Z</time></trkpt><trkpt lat="41.652994" lon="2.0863678"><ele>604.0</ele><time>2026-05-03T11:22:22.168Z</time></trkpt><trkpt lat="41.6529026" lon="2.0864236"><ele>604.0</ele><time>2026-05-03T11:22:23.168Z</time></trkpt><trkpt lat="41.6528034" lon="2.0865055"><ele>604.0</ele><time>2026-05-03T11:22:24.168Z</time></trkpt><trkpt lat="41.6527023" lon="2.0865883"><ele>604.0</ele><time>2026-05-03T11:22:25.168Z</time></trkpt><trkpt lat="41.6525962" lon="2.0866817"><ele>604.0</ele><time>2026-05-03T11:22:26.167Z</time></trkpt><trkpt lat="41.6524841" lon="2.0867604"><ele>605.5</ele><time>2026-05-03T11:22:27.168Z</time></trkpt><trkpt lat="41.6523599" lon="2.0868419"><ele>607.0</ele><time>2026-05-03T11:22:28.167Z</time></trkpt><trkpt lat="41.6522421" lon="2.086918"><ele>608.5</ele><time>2026-05-03T11:22:29.167Z</time></trkpt><trkpt lat="41.652118" lon="2.0869999"><ele>610.0</ele><time>2026-05-03T11:22:30.168Z</time></trkpt><trkpt lat="41.6519943" lon="2.0871041"><ele>610.0</ele><time>2026-05-03T11:22:31.168Z</time></trkpt><trkpt lat="41.651877" lon="2.0872024"><ele>610.0</ele><time>2026-05-03T11:22:32.168Z</time></trkpt><trkpt lat="41.6517686" lon="2.0873118"><ele>610.0</ele><time>2026-05-03T11:22:33.168Z</time></trkpt><trkpt lat="41.6516826" lon="2.0874237"><ele>610.0</ele><time>2026-05-03T11:22:34.168Z</time></trkpt><trkpt lat="41.6516051" lon="2.0875322"><ele>608.6</ele><time>2026-05-03T11:22:35.168Z</time></trkpt><trkpt lat="41.65154" lon="2.0876453"><ele>607.2</ele><time>2026-05-03T11:22:36.168Z</time></trkpt><trkpt lat="41.6514894" lon="2.087756"><ele>605.8</ele><time>2026-05-03T11:22:37.168Z</time></trkpt><trkpt lat="41.6514555" lon="2.0878928"><ele>604.4</ele><time>2026-05-03T11:22:38.168Z</time></trkpt><trkpt lat="41.651443" lon="2.0880384"><ele>603.0</ele><time>2026-05-03T11:22:39.168Z</time></trkpt><trkpt lat="41.6514316" lon="2.0881579"><ele>603.0</ele><time>2026-05-03T11:22:40.168Z</time></trkpt><trkpt lat="41.6514211" lon="2.0882688"><ele>603.0</ele><time>2026-05-03T11:22:41.168Z</time></trkpt><trkpt lat="41.6514396" lon="2.0883834"><ele>603.0</ele><time>2026-05-03T11:22:42.168Z</time></trkpt><trkpt lat="41.6514686" lon="2.0884974"><ele>603.0</ele><time>2026-05-03T11:22:43.168Z</time></trkpt><trkpt lat="41.651496" lon="2.0885969"><ele>603.0</ele><time>2026-05-03T11:22:44.167Z</time></trkpt><trkpt lat="41.6515094" lon="2.0886931"><ele>603.0</ele><time>2026-05-03T11:22:45.168Z</time></trkpt><trkpt lat="41.6515093" lon="2.0887851"><ele>603.0</ele><time>2026-05-03T11:22:46.168Z</time></trkpt><trkpt lat="41.6514677" lon="2.0888613"><ele>603.0</ele><time>2026-05-03T11:22:47.167Z</time></trkpt><trkpt lat="41.6514096" lon="2.0889071"><ele>603.0</ele><time>2026-05-03T11:22:48.168Z</time></trkpt><trkpt lat="41.651334" lon="2.0889439"><ele>603.0</ele><time>2026-05-03T11:22:49.168Z</time></trkpt><trkpt lat="41.6512418" lon="2.0889729"><ele>603.0</ele><time>2026-05-03T11:22:50.168Z</time></trkpt><trkpt lat="41.6511407" lon="2.0889804"><ele>603.0</ele><time>2026-05-03T11:22:51.168Z</time></trkpt><trkpt lat="41.6510462" lon="2.0889786"><ele>602.3333333333334</ele><time>2026-05-03T11:22:52.168Z</time></trkpt><trkpt lat="41.6509704" lon="2.0889817"><ele>601.6666666666666</ele><time>2026-05-03T11:22:53.168Z</time></trkpt><trkpt lat="41.6508991" lon="2.0889971"><ele>601.0</ele><time>2026-05-03T11:22:54.168Z</time></trkpt><trkpt lat="41.650824" lon="2.0890412"><ele>600.3333333333333</ele><time>2026-05-03T11:22:55.168Z</time></trkpt><trkpt lat="41.6507434" lon="2.0890972"><ele>599.6666666666666</ele><time>2026-05-03T11:22:56.167Z</time></trkpt><trkpt lat="41.6506609" lon="2.0891458"><ele>599.0</ele><time>2026-05-03T11:22:57.167Z</time></trkpt><trkpt lat="41.6505816" lon="2.0891692"><ele>599.0</ele><time>2026-05-03T11:22:58.168Z</time></trkpt><trkpt lat="41.6504941" lon="2.0891644"><ele>599.0</ele><time>2026-05-03T11:22:59.168Z</time></trkpt><trkpt lat="41.6504045" lon="2.0891291"><ele>599.0</ele><time>2026-05-03T11:23:00.167Z</time></trkpt><trkpt lat="41.6503106" lon="2.0890848"><ele>599.0</ele><time>2026-05-03T11:23:01.168Z</time></trkpt><trkpt lat="41.6502159" lon="2.089057"><ele>599.0</ele><time>2026-05-03T11:23:02.168Z</time></trkpt><trkpt lat="41.6501255" lon="2.0890584"><ele>596.6</ele><time>2026-05-03T11:23:03.168Z</time></trkpt><trkpt lat="41.6500267" lon="2.0890774"><ele>594.2</ele><time>2026-05-03T11:23:04.168Z</time></trkpt><trkpt lat="41.6499272" lon="2.0891159"><ele>591.8000000000001</ele><time>2026-05-03T11:23:05.168Z</time></trkpt><trkpt lat="41.6498282" lon="2.0891375"><ele>589.4</ele><time>2026-05-03T11:23:06.167Z</time></trkpt><trkpt lat="41.6497267" lon="2.0891228"><ele>587.0</ele><time>2026-05-03T11:23:07.167Z</time></trkpt><trkpt lat="41.6496037" lon="2.0890926"><ele>587.0</ele><time>2026-05-03T11:23:08.167Z</time></trkpt><trkpt lat="41.6494894" lon="2.0890739"><ele>587.0</ele><time>2026-05-03T11:23:09.168Z</time></trkpt><trkpt lat="41.6493836" lon="2.0890522"><ele>587.0</ele><time>2026-05-03T11:23:10.168Z</time></trkpt><trkpt lat="41.6492946" lon="2.0890326"><ele>587.0</ele><time>2026-05-03T11:23:11.167Z</time></trkpt><trkpt lat="41.6492029" lon="2.0890327"><ele>587.0</ele><time>2026-05-03T11:23:12.168Z</time></trkpt><trkpt lat="41.6491087" lon="2.0890647"><ele>591.8000000000001</ele><time>2026-05-03T11:23:13.168Z</time></trkpt><trkpt lat="41.6490192" lon="2.0890975"><ele>596.6</ele><time>2026-05-03T11:23:14.168Z</time></trkpt><trkpt lat="41.6489459" lon="2.0891309"><ele>601.4000000000001</ele><time>2026-05-03T11:23:15.168Z</time></trkpt><trkpt lat="41.6488855" lon="2.0891649"><ele>606.2</ele><time>2026-05-03T11:23:16.168Z</time></trkpt><trkpt lat="41.6488117" lon="2.0892845"><ele>611.0</ele><time>2026-05-03T11:23:18.168Z</time></trkpt><trkpt lat="41.648784" lon="2.0894523"><ele>611.0</ele><time>2026-05-03T11:23:20.167Z</time></trkpt><trkpt lat="41.6487882" lon="2.0895651"><ele>611.0</ele><time>2026-05-03T11:23:21.168Z</time></trkpt><trkpt lat="41.6487754" lon="2.0896719"><ele>611.0</ele><time>2026-05-03T11:23:22.168Z</time></trkpt><trkpt lat="41.6487435" lon="2.089779"><ele>611.0</ele><time>2026-05-03T11:23:23.168Z</time></trkpt><trkpt lat="41.6486792" lon="2.0898549"><ele>611.0</ele><time>2026-05-03T11:23:24.168Z</time></trkpt><trkpt lat="41.6486269" lon="2.0899219"><ele>611.0</ele><time>2026-05-03T11:23:25.167Z</time></trkpt><trkpt lat="41.6485896" lon="2.0899933"><ele>612.6666666666666</ele><time>2026-05-03T11:23:26.167Z</time></trkpt><trkpt lat="41.6485619" lon="2.0901006"><ele>614.3333333333333</ele><time>2026-05-03T11:23:28.168Z</time></trkpt><trkpt lat="41.6486031" lon="2.0902261"><ele>616.0</ele><time>2026-05-03T11:23:30.168Z</time></trkpt><trkpt lat="41.6486633" lon="2.0902861"><ele>617.6666666666666</ele><time>2026-05-03T11:23:31.167Z</time></trkpt><trkpt lat="41.6487184" lon="2.0903747"><ele>619.3333333333334</ele><time>2026-05-03T11:23:32.168Z</time></trkpt><trkpt lat="41.6487595" lon="2.0904682"><ele>621.0</ele><time>2026-05-03T11:23:33.168Z</time></trkpt><trkpt lat="41.6487861" lon="2.0905767"><ele>621.0</ele><time>2026-05-03T11:23:34.168Z</time></trkpt><trkpt lat="41.6487899" lon="2.0907045"><ele>621.0</ele><time>2026-05-03T11:23:35.168Z</time></trkpt><trkpt lat="41.6487963" lon="2.0908265"><ele>621.0</ele><time>2026-05-03T11:23:36.168Z</time></trkpt><trkpt lat="41.6487894" lon="2.0909281"><ele>621.0</ele><time>2026-05-03T11:23:37.168Z</time></trkpt><trkpt lat="41.6487683" lon="2.0910232"><ele>621.0</ele><time>2026-05-03T11:23:38.167Z</time></trkpt><trkpt lat="41.6487135" lon="2.0911128"><ele>621.0</ele><time>2026-05-03T11:23:39.168Z</time></trkpt><trkpt lat="41.6486481" lon="2.0912125"><ele>615.6</ele><time>2026-05-03T11:23:40.168Z</time></trkpt><trkpt lat="41.6485927" lon="2.0913169"><ele>610.2</ele><time>2026-05-03T11:23:41.168Z</time></trkpt><trkpt lat="41.6485369" lon="2.0914265"><ele>604.8</ele><time>2026-05-03T11:23:42.168Z</time></trkpt><trkpt lat="41.6484925" lon="2.0915381"><ele>599.4</ele><time>2026-05-03T11:23:43.167Z</time></trkpt><trkpt lat="41.6484498" lon="2.0916485"><ele>594.0</ele><time>2026-05-03T11:23:44.168Z</time></trkpt><trkpt lat="41.6484169" lon="2.0917551"><ele>594.0</ele><time>2026-05-03T11:23:45.172Z</time></trkpt><trkpt lat="41.6483867" lon="2.0918686"><ele>594.0</ele><time>2026-05-03T11:23:46.171Z</time></trkpt><trkpt lat="41.6483612" lon="2.0919856"><ele>594.0</ele><time>2026-05-03T11:23:47.172Z</time></trkpt><trkpt lat="41.6483352" lon="2.092105"><ele>594.0</ele><time>2026-05-03T11:23:48.172Z</time></trkpt><trkpt lat="41.6482966" lon="2.0922242"><ele>594.0</ele><time>2026-05-03T11:23:49.171Z</time></trkpt><trkpt lat="41.6482573" lon="2.0923358"><ele>593.6</ele><time>2026-05-03T11:23:50.172Z</time></trkpt><trkpt lat="41.6482054" lon="2.0924438"><ele>593.2</ele><time>2026-05-03T11:23:51.172Z</time></trkpt><trkpt lat="41.6481504" lon="2.0925497"><ele>592.8000000000001</ele><time>2026-05-03T11:23:52.171Z</time></trkpt><trkpt lat="41.6480996" lon="2.092669"><ele>592.4</ele><time>2026-05-03T11:23:53.171Z</time></trkpt><trkpt lat="41.6480537" lon="2.092811"><ele>592.0</ele><time>2026-05-03T11:23:54.171Z</time></trkpt><trkpt lat="41.6480146" lon="2.0929486"><ele>592.0</ele><time>2026-05-03T11:23:55.172Z</time></trkpt><trkpt lat="41.6479792" lon="2.0930954"><ele>592.0</ele><time>2026-05-03T11:23:56.172Z</time></trkpt><trkpt lat="41.6479456" lon="2.093245"><ele>592.0</ele><time>2026-05-03T11:23:57.171Z</time></trkpt><trkpt lat="41.6479181" lon="2.0933998"><ele>592.0</ele><time>2026-05-03T11:23:58.172Z</time></trkpt><trkpt lat="41.6478898" lon="2.0935431"><ele>590.4</ele><time>2026-05-03T11:23:59.172Z</time></trkpt><trkpt lat="41.6478715" lon="2.0936785"><ele>588.8000000000001</ele><time>2026-05-03T11:24:00.171Z</time></trkpt><trkpt lat="41.647851" lon="2.0938111"><ele>587.2</ele><time>2026-05-03T11:24:01.172Z</time></trkpt><trkpt lat="41.647827" lon="2.0939369"><ele>585.6</ele><time>2026-05-03T11:24:02.172Z</time></trkpt><trkpt lat="41.6478032" lon="2.0940608"><ele>584.0</ele><time>2026-05-03T11:24:03.172Z</time></trkpt><trkpt lat="41.6477688" lon="2.0941813"><ele>581.0</ele><time>2026-05-03T11:24:04.172Z</time></trkpt><trkpt lat="41.6477098" lon="2.0943036"><ele>578.0</ele><time>2026-05-03T11:24:05.172Z</time></trkpt><trkpt lat="41.6476371" lon="2.094426"><ele>575.0</ele><time>2026-05-03T11:24:06.172Z</time></trkpt><trkpt lat="41.6475547" lon="2.0945291"><ele>572.0</ele><time>2026-05-03T11:24:07.171Z</time></trkpt><trkpt lat="41.6474587" lon="2.0945993"><ele>569.0</ele><time>2026-05-03T11:24:08.172Z</time></trkpt><trkpt lat="41.647359" lon="2.0946661"><ele>569.0</ele><time>2026-05-03T11:24:09.172Z</time></trkpt><trkpt lat="41.6472685" lon="2.0947393"><ele>569.0</ele><time>2026-05-03T11:24:10.172Z</time></trkpt><trkpt lat="41.6471775" lon="2.0948053"><ele>569.0</ele><time>2026-05-03T11:24:11.172Z</time></trkpt><trkpt lat="41.6470873" lon="2.0948777"><ele>569.0</ele><time>2026-05-03T11:24:12.172Z</time></trkpt><trkpt lat="41.6469944" lon="2.0949316"><ele>569.0</ele><time>2026-05-03T11:24:13.172Z</time></trkpt><trkpt lat="41.6468951" lon="2.0949508"><ele>567.8</ele><time>2026-05-03T11:24:14.172Z</time></trkpt><trkpt lat="41.6467935" lon="2.0949374"><ele>566.5999999999999</ele><time>2026-05-03T11:24:15.171Z</time></trkpt><trkpt lat="41.6467019" lon="2.0949154"><ele>565.4</ele><time>2026-05-03T11:24:16.172Z</time></trkpt><trkpt lat="41.6466225" lon="2.0948942"><ele>564.1999999999999</ele><time>2026-05-03T11:24:17.172Z</time></trkpt><trkpt lat="41.646498" lon="2.0949066"><ele>563.0</ele><time>2026-05-03T11:24:19.171Z</time></trkpt><trkpt lat="41.6464367" lon="2.0949537"><ele>564.1999999999999</ele><time>2026-05-03T11:24:20.171Z</time></trkpt><trkpt lat="41.6463741" lon="2.0950443"><ele>565.4</ele><time>2026-05-03T11:24:21.172Z</time></trkpt><trkpt lat="41.6463061" lon="2.0951409"><ele>566.5999999999999</ele><time>2026-05-03T11:24:22.172Z</time></trkpt><trkpt lat="41.6462319" lon="2.0952155"><ele>567.8</ele><time>2026-05-03T11:24:23.171Z</time></trkpt><trkpt lat="41.6461443" lon="2.095294"><ele>569.0</ele><time>2026-05-03T11:24:24.172Z</time></trkpt><trkpt lat="41.6460449" lon="2.0953629"><ele>569.0</ele><time>2026-05-03T11:24:25.172Z</time></trkpt><trkpt lat="41.6459323" lon="2.0954186"><ele>569.0</ele><time>2026-05-03T11:24:26.171Z</time></trkpt><trkpt lat="41.645805" lon="2.0954614"><ele>569.0</ele><time>2026-05-03T11:24:27.172Z</time></trkpt><trkpt lat="41.6456835" lon="2.0955125"><ele>569.0</ele><time>2026-05-03T11:24:28.171Z</time></trkpt><trkpt lat="41.6455768" lon="2.0955488"><ele>569.0</ele><time>2026-05-03T11:24:29.171Z</time></trkpt><trkpt lat="41.6454914" lon="2.0955507"><ele>569.0</ele><time>2026-05-03T11:24:30.172Z</time></trkpt><trkpt lat="41.64542" lon="2.0955263"><ele>569.0</ele><time>2026-05-03T11:24:31.172Z</time></trkpt><trkpt lat="41.6453565" lon="2.095472"><ele>569.0</ele><time>2026-05-03T11:24:32.171Z</time></trkpt><trkpt lat="41.6453059" lon="2.0953767"><ele>569.0</ele><time>2026-05-03T11:24:33.171Z</time></trkpt><trkpt lat="41.6452554" lon="2.0952506"><ele>569.0</ele><time>2026-05-03T11:24:34.172Z</time></trkpt><trkpt lat="41.6452202" lon="2.0950913"><ele>569.1666666666666</ele><time>2026-05-03T11:24:35.172Z</time></trkpt><trkpt lat="41.6451946" lon="2.094944"><ele>569.3333333333333</ele><time>2026-05-03T11:24:36.171Z</time></trkpt><trkpt lat="41.6451684" lon="2.0948353"><ele>569.5</ele><time>2026-05-03T11:24:37.172Z</time></trkpt><trkpt lat="41.6451456" lon="2.0947482"><ele>569.6666666666666</ele><time>2026-05-03T11:24:38.171Z</time></trkpt><trkpt lat="41.6451132" lon="2.0946751"><ele>569.8333333333334</ele><time>2026-05-03T11:24:39.172Z</time></trkpt><trkpt lat="41.645045" lon="2.0945915"><ele>570.0</ele><time>2026-05-03T11:24:41.171Z</time></trkpt><trkpt lat="41.6449573" lon="2.0946638"><ele>570.0</ele><time>2026-05-03T11:24:43.172Z</time></trkpt><trkpt lat="41.6449047" lon="2.094757"><ele>570.0</ele><time>2026-05-03T11:24:44.172Z</time></trkpt><trkpt lat="41.64484" lon="2.0948501"><ele>570.0</ele><time>2026-05-03T11:24:45.171Z</time></trkpt><trkpt lat="41.6447596" lon="2.0949234"><ele>570.0</ele><time>2026-05-03T11:24:46.172Z</time></trkpt><trkpt lat="41.6446777" lon="2.094989"><ele>570.0</ele><time>2026-05-03T11:24:47.171Z</time></trkpt><trkpt lat="41.6445983" lon="2.0950817"><ele>570.0</ele><time>2026-05-03T11:24:48.172Z</time></trkpt><trkpt lat="41.6445251" lon="2.0951782"><ele>570.0</ele><time>2026-05-03T11:24:49.172Z</time></trkpt><trkpt lat="41.6444657" lon="2.0952579"><ele>570.0</ele><time>2026-05-03T11:24:50.172Z</time></trkpt><trkpt lat="41.6444077" lon="2.0953023"><ele>570.0</ele><time>2026-05-03T11:24:51.172Z</time></trkpt><trkpt lat="41.6443218" lon="2.0952937"><ele>570.0</ele><time>2026-05-03T11:24:53.171Z</time></trkpt><trkpt lat="41.6442719" lon="2.0952134"><ele>570.0</ele><time>2026-05-03T11:24:54.171Z</time></trkpt><trkpt lat="41.6442275" lon="2.0951005"><ele>570.0</ele><time>2026-05-03T11:24:55.172Z</time></trkpt><trkpt lat="41.6441926" lon="2.0949761"><ele>570.0</ele><time>2026-05-03T11:24:56.171Z</time></trkpt><trkpt lat="41.6441559" lon="2.0948475"><ele>570.0</ele><time>2026-05-03T11:24:57.172Z</time></trkpt><trkpt lat="41.6441394" lon="2.0947056"><ele>570.0</ele><time>2026-05-03T11:24:58.172Z</time></trkpt><trkpt lat="41.6441218" lon="2.0945584"><ele>570.0</ele><time>2026-05-03T11:24:59.172Z</time></trkpt><trkpt lat="41.6440976" lon="2.0944262"><ele>566.8</ele><time>2026-05-03T11:25:00.172Z</time></trkpt><trkpt lat="41.6440631" lon="2.094292"><ele>563.6</ele><time>2026-05-03T11:25:01.172Z</time></trkpt><trkpt lat="41.6440298" lon="2.0941838"><ele>560.4</ele><time>2026-05-03T11:25:02.172Z</time></trkpt><trkpt lat="41.6439893" lon="2.0940698"><ele>557.2</ele><time>2026-05-03T11:25:03.172Z</time></trkpt><trkpt lat="41.6439387" lon="2.0939589"><ele>554.0</ele><time>2026-05-03T11:25:04.172Z</time></trkpt><trkpt lat="41.6438828" lon="2.0938617"><ele>553.1666666666666</ele><time>2026-05-03T11:25:05.172Z</time></trkpt><trkpt lat="41.6438242" lon="2.0937992"><ele>552.3333333333333</ele><time>2026-05-03T11:25:06.172Z</time></trkpt><trkpt lat="41.6437606" lon="2.0937598"><ele>551.5</ele><time>2026-05-03T11:25:07.171Z</time></trkpt><trkpt lat="41.6436898" lon="2.0937541"><ele>550.6666666666666</ele><time>2026-05-03T11:25:08.172Z</time></trkpt><trkpt lat="41.6436096" lon="2.0937722"><ele>549.8333333333334</ele><time>2026-05-03T11:25:09.171Z</time></trkpt><trkpt lat="41.6435116" lon="2.0936664"><ele>549.0</ele><time>2026-05-03T11:25:11.172Z</time></trkpt><trkpt lat="41.6434942" lon="2.0935689"><ele>549.0</ele><time>2026-05-03T11:25:12.172Z</time></trkpt><trkpt lat="41.643489" lon="2.093437"><ele>549.0</ele><time>2026-05-03T11:25:13.172Z</time></trkpt><trkpt lat="41.6434736" lon="2.0933102"><ele>549.0</ele><time>2026-05-03T11:25:14.172Z</time></trkpt><trkpt lat="41.6434568" lon="2.0932036"><ele>549.0</ele><time>2026-05-03T11:25:15.171Z</time></trkpt><trkpt lat="41.6434281" lon="2.0931075"><ele>549.0</ele><time>2026-05-03T11:25:16.172Z</time></trkpt><trkpt lat="41.6433916" lon="2.0930346"><ele>549.0</ele><time>2026-05-03T11:25:17.172Z</time></trkpt><trkpt lat="41.6433397" lon="2.092973"><ele>546.2</ele><time>2026-05-03T11:25:18.172Z</time></trkpt><trkpt lat="41.6432654" lon="2.0929276"><ele>543.4</ele><time>2026-05-03T11:25:19.171Z</time></trkpt><trkpt lat="41.6431776" lon="2.0928285"><ele>540.6</ele><time>2026-05-03T11:25:21.172Z</time></trkpt><trkpt lat="41.6432089" lon="2.0926567"><ele>537.8</ele><time>2026-05-03T11:25:23.172Z</time></trkpt><trkpt lat="41.6432557" lon="2.0925595"><ele>535.0</ele><time>2026-05-03T11:25:24.172Z</time></trkpt><trkpt lat="41.6432872" lon="2.0924661"><ele>531.6</ele><time>2026-05-03T11:25:25.172Z</time></trkpt><trkpt lat="41.6432942" lon="2.0923641"><ele>528.2</ele><time>2026-05-03T11:25:26.172Z</time></trkpt><trkpt lat="41.6432633" lon="2.0922589"><ele>524.8</ele><time>2026-05-03T11:25:27.172Z</time></trkpt><trkpt lat="41.6432023" lon="2.0921466"><ele>521.4</ele><time>2026-05-03T11:25:28.172Z</time></trkpt><trkpt lat="41.6431276" lon="2.0920471"><ele>518.0</ele><time>2026-05-03T11:25:29.172Z</time></trkpt><trkpt lat="41.6430759" lon="2.0919626"><ele>518.0</ele><time>2026-05-03T11:25:30.172Z</time></trkpt><trkpt lat="41.6430421" lon="2.0918826"><ele>518.0</ele><time>2026-05-03T11:25:31.172Z</time></trkpt><trkpt lat="41.6430366" lon="2.0917756"><ele>518.0</ele><time>2026-05-03T11:25:32.172Z</time></trkpt><trkpt lat="41.6430337" lon="2.0916644"><ele>518.0</ele><time>2026-05-03T11:25:33.172Z</time></trkpt><trkpt lat="41.643008" lon="2.0915595"><ele>518.0</ele><time>2026-05-03T11:25:34.171Z</time></trkpt><trkpt lat="41.6429679" lon="2.0914613"><ele>518.0</ele><time>2026-05-03T11:25:35.172Z</time></trkpt><trkpt lat="41.6429077" lon="2.091369"><ele>516.4</ele><time>2026-05-03T11:25:36.171Z</time></trkpt><trkpt lat="41.6428397" lon="2.0913069"><ele>514.8</ele><time>2026-05-03T11:25:37.172Z</time></trkpt><trkpt lat="41.6427409" lon="2.0912689"><ele>513.2</ele><time>2026-05-03T11:25:38.172Z</time></trkpt><trkpt lat="41.6426513" lon="2.0912536"><ele>511.6</ele><time>2026-05-03T11:25:39.172Z</time></trkpt><trkpt lat="41.6425676" lon="2.0912345"><ele>510.0</ele><time>2026-05-03T11:25:40.171Z</time></trkpt><trkpt lat="41.6424954" lon="2.0910995"><ele>510.0</ele><time>2026-05-03T11:25:42.172Z</time></trkpt><trkpt lat="41.6425184" lon="2.0909794"><ele>510.0</ele><time>2026-05-03T11:25:43.171Z</time></trkpt><trkpt lat="41.6425297" lon="2.090874"><ele>510.0</ele><time>2026-05-03T11:25:44.172Z</time></trkpt><trkpt lat="41.6425121" lon="2.0907819"><ele>510.0</ele><time>2026-05-03T11:25:45.172Z</time></trkpt><trkpt lat="41.642455" lon="2.0906922"><ele>510.0</ele><time>2026-05-03T11:25:46.171Z</time></trkpt><trkpt lat="41.6423794" lon="2.0906114"><ele>510.0</ele><time>2026-05-03T11:25:47.172Z</time></trkpt><trkpt lat="41.6422992" lon="2.0905656"><ele>510.0</ele><time>2026-05-03T11:25:48.172Z</time></trkpt><trkpt lat="41.6422171" lon="2.0905808"><ele>510.0</ele><time>2026-05-03T11:25:49.172Z</time></trkpt><trkpt lat="41.6421446" lon="2.0906299"><ele>510.0</ele><time>2026-05-03T11:25:50.172Z</time></trkpt><trkpt lat="41.6420685" lon="2.0907111"><ele>510.0</ele><time>2026-05-03T11:25:51.172Z</time></trkpt><trkpt lat="41.6419954" lon="2.0907729"><ele>510.0</ele><time>2026-05-03T11:25:52.171Z</time></trkpt><trkpt lat="41.6418749" lon="2.0907934"><ele>508.3333333333333</ele><time>2026-05-03T11:25:54.172Z</time></trkpt><trkpt lat="41.6418205" lon="2.0907294"><ele>506.66666666666663</ele><time>2026-05-03T11:25:55.172Z</time></trkpt><trkpt lat="41.6417974" lon="2.0906176"><ele>505.0</ele><time>2026-05-03T11:25:56.171Z</time></trkpt><trkpt lat="41.6417867" lon="2.0904859"><ele>503.3333333333333</ele><time>2026-05-03T11:25:57.171Z</time></trkpt><trkpt lat="41.6417486" lon="2.0903675"><ele>501.66666666666663</ele><time>2026-05-03T11:25:58.172Z</time></trkpt><trkpt lat="41.6416937" lon="2.0902725"><ele>500.0</ele><time>2026-05-03T11:25:59.171Z</time></trkpt><trkpt lat="41.6416202" lon="2.0902035"><ele>500.0</ele><time>2026-05-03T11:26:00.172Z</time></trkpt><trkpt lat="41.6415302" lon="2.0901516"><ele>500.0</ele><time>2026-05-03T11:26:01.171Z</time></trkpt><trkpt lat="41.6414323" lon="2.0901153"><ele>500.0</ele><time>2026-05-03T11:26:02.171Z</time></trkpt><trkpt lat="41.6413243" lon="2.0901043"><ele>500.0</ele><time>2026-05-03T11:26:03.172Z</time></trkpt><trkpt lat="41.6412208" lon="2.09011"><ele>500.0</ele><time>2026-05-03T11:26:04.172Z</time></trkpt><trkpt lat="41.6411165" lon="2.0900971"><ele>500.25</ele><time>2026-05-03T11:26:05.171Z</time></trkpt><trkpt lat="41.6410021" lon="2.0900518"><ele>500.5</ele><time>2026-05-03T11:26:06.172Z</time></trkpt><trkpt lat="41.6408868" lon="2.0899979"><ele>500.75</ele><time>2026-05-03T11:26:07.172Z</time></trkpt><trkpt lat="41.6407684" lon="2.089954"><ele>501.0</ele><time>2026-05-03T11:26:08.171Z</time></trkpt><trkpt lat="41.6406536" lon="2.0899233"><ele>497.0</ele><time>2026-05-03T11:26:09.172Z</time></trkpt><trkpt lat="41.640545" lon="2.0899002"><ele>493.0</ele><time>2026-05-03T11:26:10.172Z</time></trkpt><trkpt lat="41.6404372" lon="2.0898861"><ele>489.0</ele><time>2026-05-03T11:26:11.171Z</time></trkpt><trkpt lat="41.6403114" lon="2.0898898"><ele>485.0</ele><time>2026-05-03T11:26:12.171Z</time></trkpt><trkpt lat="41.6401847" lon="2.0899026"><ele>484.2</ele><time>2026-05-03T11:26:13.172Z</time></trkpt><trkpt lat="41.6400665" lon="2.0899064"><ele>483.4</ele><time>2026-05-03T11:26:14.172Z</time></trkpt><trkpt lat="41.6399722" lon="2.0898988"><ele>482.6</ele><time>2026-05-03T11:26:15.172Z</time></trkpt><trkpt lat="41.6398524" lon="2.0898923"><ele>481.8</ele><time>2026-05-03T11:26:17.171Z</time></trkpt><trkpt lat="41.6397843" lon="2.0899307"><ele>481.0</ele><time>2026-05-03T11:26:18.171Z</time></trkpt><trkpt lat="41.6397088" lon="2.0900053"><ele>481.25</ele><time>2026-05-03T11:26:19.171Z</time></trkpt><trkpt lat="41.639622" lon="2.0900891"><ele>481.5</ele><time>2026-05-03T11:26:20.172Z</time></trkpt><trkpt lat="41.6395193" lon="2.0901782"><ele>481.75</ele><time>2026-05-03T11:26:21.172Z</time></trkpt><trkpt lat="41.6394048" lon="2.0902599"><ele>482.0</ele><time>2026-05-03T11:26:22.171Z</time></trkpt><trkpt lat="41.639282" lon="2.0903234"><ele>481.99999999999994</ele><time>2026-05-03T11:26:23.172Z</time></trkpt><trkpt lat="41.63918" lon="2.0903591"><ele>482.0</ele><time>2026-05-03T11:26:24.172Z</time></trkpt><trkpt lat="41.639099" lon="2.0903854"><ele>482.0</ele><time>2026-05-03T11:26:25.172Z</time></trkpt><trkpt lat="41.6390046" lon="2.0904434"><ele>482.0</ele><time>2026-05-03T11:26:27.172Z</time></trkpt><trkpt lat="41.6389627" lon="2.0905077"><ele>481.99999999999994</ele><time>2026-05-03T11:26:28.172Z</time></trkpt><trkpt lat="41.6389156" lon="2.0906109"><ele>482.0</ele><time>2026-05-03T11:26:29.171Z</time></trkpt><trkpt lat="41.6388644" lon="2.0906799"><ele>482.0</ele><time>2026-05-03T11:26:30.172Z</time></trkpt><trkpt lat="41.638806" lon="2.0907155"><ele>482.00000000000006</ele><time>2026-05-03T11:26:31.172Z</time></trkpt><trkpt lat="41.6387092" lon="2.090703"><ele>482.00000000000006</ele><time>2026-05-03T11:26:32.172Z</time></trkpt><trkpt lat="41.6386044" lon="2.0906882"><ele>482.0</ele><time>2026-05-03T11:26:33.172Z</time></trkpt><trkpt lat="41.6385156" lon="2.0907011"><ele>482.0</ele><time>2026-05-03T11:26:34.171Z</time></trkpt><trkpt lat="41.6384144" lon="2.0907315"><ele>482.0</ele><time>2026-05-03T11:26:35.172Z</time></trkpt><trkpt lat="41.6383073" lon="2.0907605"><ele>482.0</ele><time>2026-05-03T11:26:36.172Z</time></trkpt><trkpt lat="41.6381812" lon="2.0907831"><ele>482.0</ele><time>2026-05-03T11:26:37.172Z</time></trkpt><trkpt lat="41.6380572" lon="2.0907844"><ele>482.0</ele><time>2026-05-03T11:26:38.172Z</time></trkpt><trkpt lat="41.6379445" lon="2.0907621"><ele>481.66666666666663</ele><time>2026-05-03T11:26:39.172Z</time></trkpt><trkpt lat="41.6378464" lon="2.0907383"><ele>481.3333333333333</ele><time>2026-05-03T11:26:40.172Z</time></trkpt><trkpt lat="41.6377631" lon="2.090729"><ele>481.0</ele><time>2026-05-03T11:26:41.172Z</time></trkpt><trkpt lat="41.6376684" lon="2.0907357"><ele>480.66666666666663</ele><time>2026-05-03T11:26:42.171Z</time></trkpt><trkpt lat="41.6375909" lon="2.0907675"><ele>480.3333333333333</ele><time>2026-05-03T11:26:43.172Z</time></trkpt><trkpt lat="41.6375249" lon="2.0907728"><ele>480.0</ele><time>2026-05-03T11:26:44.171Z</time></trkpt><trkpt lat="41.6374415" lon="2.0906581"><ele>478.2</ele><time>2026-05-03T11:26:46.172Z</time></trkpt><trkpt lat="41.6374277" lon="2.0905461"><ele>476.4</ele><time>2026-05-03T11:26:47.171Z</time></trkpt><trkpt lat="41.6374317" lon="2.0904297"><ele>474.6</ele><time>2026-05-03T11:26:48.171Z</time></trkpt><trkpt lat="41.637439" lon="2.090331"><ele>472.8</ele><time>2026-05-03T11:26:49.172Z</time></trkpt><trkpt lat="41.63739" lon="2.0901709"><ele>471.0</ele><time>2026-05-03T11:26:51.171Z</time></trkpt><trkpt lat="41.6373335" lon="2.0900943"><ele>471.0</ele><time>2026-05-03T11:26:52.172Z</time></trkpt><trkpt lat="41.6372644" lon="2.0900267"><ele>471.0</ele><time>2026-05-03T11:26:53.172Z</time></trkpt><trkpt lat="41.6371762" lon="2.0899852"><ele>471.0</ele><time>2026-05-03T11:26:54.172Z</time></trkpt><trkpt lat="41.6370784" lon="2.0899584"><ele>471.0</ele><time>2026-05-03T11:26:55.172Z</time></trkpt><trkpt lat="41.6369833" lon="2.0899343"><ele>471.0</ele><time>2026-05-03T11:26:56.172Z</time></trkpt><trkpt lat="41.6368915" lon="2.0899126"><ele>470.0</ele><time>2026-05-03T11:26:57.172Z</time></trkpt><trkpt lat="41.6368176" lon="2.0899059"><ele>469.0</ele><time>2026-05-03T11:26:58.172Z</time></trkpt><trkpt lat="41.6367019" lon="2.089956"><ele>468.0</ele><time>2026-05-03T11:27:00.172Z</time></trkpt><trkpt lat="41.6366259" lon="2.0900454"><ele>467.0</ele><time>2026-05-03T11:27:01.171Z</time></trkpt><trkpt lat="41.63655" lon="2.0901539"><ele>466.0</ele><time>2026-05-03T11:27:02.172Z</time></trkpt><trkpt lat="41.6364672" lon="2.0902732"><ele>466.0</ele><time>2026-05-03T11:27:03.172Z</time></trkpt><trkpt lat="41.6363921" lon="2.0903847"><ele>466.0</ele><time>2026-05-03T11:27:04.172Z</time></trkpt><trkpt lat="41.6363089" lon="2.0904791"><ele>466.0</ele><time>2026-05-03T11:27:05.172Z</time></trkpt><trkpt lat="41.6362298" lon="2.0905627"><ele>466.0</ele><time>2026-05-03T11:27:06.172Z</time></trkpt><trkpt lat="41.6361521" lon="2.0906356"><ele>466.0</ele><time>2026-05-03T11:27:07.171Z</time></trkpt><trkpt lat="41.6360789" lon="2.09068"><ele>464.6</ele><time>2026-05-03T11:27:08.172Z</time></trkpt><trkpt lat="41.6359972" lon="2.0906896"><ele>463.20000000000005</ele><time>2026-05-03T11:27:09.172Z</time></trkpt><trkpt lat="41.6359021" lon="2.0906788"><ele>461.79999999999995</ele><time>2026-05-03T11:27:10.172Z</time></trkpt><trkpt lat="41.6358044" lon="2.0906553"><ele>460.4</ele><time>2026-05-03T11:27:11.172Z</time></trkpt><trkpt lat="41.635707" lon="2.0906294"><ele>459.0</ele><time>2026-05-03T11:27:12.172Z</time></trkpt><trkpt lat="41.6356031" lon="2.090614"><ele>459.0</ele><time>2026-05-03T11:27:13.172Z</time></trkpt><trkpt lat="41.6355057" lon="2.0906153"><ele>459.0</ele><time>2026-05-03T11:27:14.172Z</time></trkpt><trkpt lat="41.6354046" lon="2.0906296"><ele>459.0</ele><time>2026-05-03T11:27:15.172Z</time></trkpt><trkpt lat="41.6353173" lon="2.0906447"><ele>459.0</ele><time>2026-05-03T11:27:16.171Z</time></trkpt><trkpt lat="41.6352303" lon="2.0906528"><ele>459.0</ele><time>2026-05-03T11:27:17.172Z</time></trkpt><trkpt lat="41.6351453" lon="2.0906562"><ele>458.0</ele><time>2026-05-03T11:27:18.172Z</time></trkpt><trkpt lat="41.6350629" lon="2.0906591"><ele>457.0</ele><time>2026-05-03T11:27:19.172Z</time></trkpt><trkpt lat="41.6349813" lon="2.0906621"><ele>456.0</ele><time>2026-05-03T11:27:20.171Z</time></trkpt><trkpt lat="41.634901" lon="2.0906727"><ele>455.0</ele><time>2026-05-03T11:27:21.172Z</time></trkpt><trkpt lat="41.6348151" lon="2.0906692"><ele>454.0</ele><time>2026-05-03T11:27:22.172Z</time></trkpt><trkpt lat="41.6347336" lon="2.0906695"><ele>453.0</ele><time>2026-05-03T11:27:23.172Z</time></trkpt><trkpt lat="41.6346577" lon="2.0906661"><ele>453.0</ele><time>2026-05-03T11:27:24.171Z</time></trkpt><trkpt lat="41.6345765" lon="2.0906764"><ele>453.0</ele><time>2026-05-03T11:27:25.171Z</time></trkpt><trkpt lat="41.6345006" lon="2.090705"><ele>453.0</ele><time>2026-05-03T11:27:26.172Z</time></trkpt><trkpt lat="41.6344297" lon="2.0907465"><ele>453.0</ele><time>2026-05-03T11:27:27.172Z</time></trkpt><trkpt lat="41.6343595" lon="2.0907961"><ele>453.0</ele><time>2026-05-03T11:27:28.171Z</time></trkpt><trkpt lat="41.6342917" lon="2.0908326"><ele>453.0</ele><time>2026-05-03T11:27:29.172Z</time></trkpt><trkpt lat="41.6342225" lon="2.0908403"><ele>453.5</ele><time>2026-05-03T11:27:30.173Z</time></trkpt><trkpt lat="41.6341602" lon="2.0908244"><ele>454.0</ele><time>2026-05-03T11:27:31.172Z</time></trkpt><trkpt lat="41.6340963" lon="2.0907554"><ele>454.5</ele><time>2026-05-03T11:27:32.172Z</time></trkpt><trkpt lat="41.6340306" lon="2.0906577"><ele>455.0</ele><time>2026-05-03T11:27:33.172Z</time></trkpt><trkpt lat="41.6339426" lon="2.0905751"><ele>455.5</ele><time>2026-05-03T11:27:34.172Z</time></trkpt><trkpt lat="41.6338538" lon="2.0905233"><ele>456.0</ele><time>2026-05-03T11:27:35.172Z</time></trkpt><trkpt lat="41.633777" lon="2.0904617"><ele>453.5</ele><time>2026-05-03T11:27:36.173Z</time></trkpt><trkpt lat="41.6337116" lon="2.0903797"><ele>451.0</ele><time>2026-05-03T11:27:37.172Z</time></trkpt><trkpt lat="41.6336536" lon="2.0903083"><ele>448.5</ele><time>2026-05-03T11:27:38.172Z</time></trkpt><trkpt lat="41.6335901" lon="2.0902529"><ele>446.0</ele><time>2026-05-03T11:27:39.173Z</time></trkpt><trkpt lat="41.6335006" lon="2.0901882"><ele>443.5</ele><time>2026-05-03T11:27:40.173Z</time></trkpt><trkpt lat="41.6334035" lon="2.0901411"><ele>441.0</ele><time>2026-05-03T11:27:41.173Z</time></trkpt><trkpt lat="41.63331" lon="2.0900864"><ele>440.4</ele><time>2026-05-03T11:27:42.172Z</time></trkpt><trkpt lat="41.6332116" lon="2.0900322"><ele>439.8</ele><time>2026-05-03T11:27:43.173Z</time></trkpt><trkpt lat="41.6331205" lon="2.0899788"><ele>439.19999999999993</ele><time>2026-05-03T11:27:44.172Z</time></trkpt><trkpt lat="41.6330306" lon="2.0899465"><ele>438.59999999999997</ele><time>2026-05-03T11:27:45.172Z</time></trkpt><trkpt lat="41.6329441" lon="2.0899126"><ele>438.0</ele><time>2026-05-03T11:27:46.172Z</time></trkpt><trkpt lat="41.6328569" lon="2.0898943"><ele>434.5</ele><time>2026-05-03T11:27:47.173Z</time></trkpt><trkpt lat="41.6327748" lon="2.0898802"><ele>431.0</ele><time>2026-05-03T11:27:48.173Z</time></trkpt><trkpt lat="41.6326906" lon="2.0898681"><ele>427.5</ele><time>2026-05-03T11:27:49.172Z</time></trkpt><trkpt lat="41.6326116" lon="2.0898505"><ele>424.0</ele><time>2026-05-03T11:27:50.173Z</time></trkpt><trkpt lat="41.6325385" lon="2.0898344"><ele>420.5</ele><time>2026-05-03T11:27:51.172Z</time></trkpt><trkpt lat="41.6324732" lon="2.0898225"><ele>417.0</ele><time>2026-05-03T11:27:52.173Z</time></trkpt><trkpt lat="41.632408" lon="2.0898204"><ele>417.0</ele><time>2026-05-03T11:27:53.173Z</time></trkpt><trkpt lat="41.6322984" lon="2.0898666"><ele>417.0</ele><time>2026-05-03T11:27:55.173Z</time></trkpt><trkpt lat="41.6322344" lon="2.0898902"><ele>417.0</ele><time>2026-05-03T11:27:56.173Z</time></trkpt><trkpt lat="41.6321559" lon="2.0899066"><ele>417.0</ele><time>2026-05-03T11:27:57.173Z</time></trkpt><trkpt lat="41.6320754" lon="2.0898942"><ele>417.0</ele><time>2026-05-03T11:27:58.173Z</time></trkpt><trkpt lat="41.6320061" lon="2.0898494"><ele>417.0</ele><time>2026-05-03T11:27:59.172Z</time></trkpt><trkpt lat="41.6319327" lon="2.0897558"><ele>415.40000000000003</ele><time>2026-05-03T11:28:00.173Z</time></trkpt><trkpt lat="41.6318704" lon="2.0896445"><ele>413.8</ele><time>2026-05-03T11:28:01.173Z</time></trkpt><trkpt lat="41.6318163" lon="2.0895402"><ele>412.2</ele><time>2026-05-03T11:28:02.173Z</time></trkpt><trkpt lat="41.6317542" lon="2.0894636"><ele>410.6</ele><time>2026-05-03T11:28:03.173Z</time></trkpt><trkpt lat="41.6316807" lon="2.0893977"><ele>409.0</ele><time>2026-05-03T11:28:04.173Z</time></trkpt><trkpt lat="41.6315944" lon="2.0893697"><ele>409.0</ele><time>2026-05-03T11:28:05.173Z</time></trkpt><trkpt lat="41.631499" lon="2.0893834"><ele>409.0</ele><time>2026-05-03T11:28:06.173Z</time></trkpt><trkpt lat="41.6313852" lon="2.0894318"><ele>409.0</ele><time>2026-05-03T11:28:07.172Z</time></trkpt><trkpt lat="41.6312539" lon="2.0894887"><ele>409.0</ele><time>2026-05-03T11:28:08.172Z</time></trkpt><trkpt lat="41.6311224" lon="2.0895477"><ele>406.25</ele><time>2026-05-03T11:28:09.172Z</time></trkpt><trkpt lat="41.6309861" lon="2.0896214"><ele>403.5</ele><time>2026-05-03T11:28:10.173Z</time></trkpt><trkpt lat="41.6308519" lon="2.0897014"><ele>400.75</ele><time>2026-05-03T11:28:11.173Z</time></trkpt><trkpt lat="41.6307219" lon="2.0897721"><ele>398.0</ele><time>2026-05-03T11:28:12.172Z</time></trkpt><trkpt lat="41.6305762" lon="2.0898276"><ele>398.0</ele><time>2026-05-03T11:28:13.173Z</time></trkpt><trkpt lat="41.6304292" lon="2.0898768"><ele>398.0</ele><time>2026-05-03T11:28:14.172Z</time></trkpt><trkpt lat="41.6302931" lon="2.0899302"><ele>398.0</ele><time>2026-05-03T11:28:15.173Z</time></trkpt><trkpt lat="41.6301708" lon="2.0899758"><ele>398.0</ele><time>2026-05-03T11:28:16.173Z</time></trkpt><trkpt lat="41.630072" lon="2.0900278"><ele>398.0</ele><time>2026-05-03T11:28:17.172Z</time></trkpt><trkpt lat="41.6299851" lon="2.0900696"><ele>398.0</ele><time>2026-05-03T11:28:18.173Z</time></trkpt><trkpt lat="41.6299125" lon="2.0901052"><ele>398.0</ele><time>2026-05-03T11:28:19.172Z</time></trkpt><trkpt lat="41.6298466" lon="2.0901157"><ele>398.0</ele><time>2026-05-03T11:28:20.173Z</time></trkpt><trkpt lat="41.6297491" lon="2.0899818"><ele>398.0</ele><time>2026-05-03T11:28:22.173Z</time></trkpt><trkpt lat="41.6296926" lon="2.0898612"><ele>397.99999999999994</ele><time>2026-05-03T11:28:23.172Z</time></trkpt><trkpt lat="41.6296286" lon="2.0897613"><ele>398.0</ele><time>2026-05-03T11:28:24.172Z</time></trkpt><trkpt lat="41.6295719" lon="2.0896878"><ele>398.0</ele><time>2026-05-03T11:28:25.172Z</time></trkpt><trkpt lat="41.6295025" lon="2.0896256"><ele>398.0</ele><time>2026-05-03T11:28:26.172Z</time></trkpt><trkpt lat="41.6294299" lon="2.0895963"><ele>397.99999999999994</ele><time>2026-05-03T11:28:27.172Z</time></trkpt><trkpt lat="41.6293373" lon="2.0896"><ele>398.0</ele><time>2026-05-03T11:28:28.172Z</time></trkpt><trkpt lat="41.6292424" lon="2.0896137"><ele>399.0</ele><time>2026-05-03T11:28:29.172Z</time></trkpt><trkpt lat="41.6291465" lon="2.0896486"><ele>400.0</ele><time>2026-05-03T11:28:30.173Z</time></trkpt><trkpt lat="41.6290373" lon="2.0897076"><ele>401.0</ele><time>2026-05-03T11:28:31.173Z</time></trkpt><trkpt lat="41.6289186" lon="2.089785"><ele>402.0</ele><time>2026-05-03T11:28:32.173Z</time></trkpt><trkpt lat="41.6288001" lon="2.0898682"><ele>401.5</ele><time>2026-05-03T11:28:33.173Z</time></trkpt><trkpt lat="41.6286721" lon="2.0899423"><ele>401.0</ele><time>2026-05-03T11:28:34.173Z</time></trkpt><trkpt lat="41.628545" lon="2.0899937"><ele>400.5</ele><time>2026-05-03T11:28:35.173Z</time></trkpt><trkpt lat="41.6284285" lon="2.0900276"><ele>400.0</ele><time>2026-05-03T11:28:36.173Z</time></trkpt><trkpt lat="41.6283305" lon="2.0900452"><ele>400.2</ele><time>2026-05-03T11:28:37.173Z</time></trkpt><trkpt lat="41.6282401" lon="2.0900349"><ele>400.4</ele><time>2026-05-03T11:28:38.172Z</time></trkpt><trkpt lat="41.6281511" lon="2.0900119"><ele>400.6</ele><time>2026-05-03T11:28:39.173Z</time></trkpt><trkpt lat="41.6280396" lon="2.0899664"><ele>400.8</ele><time>2026-05-03T11:28:40.173Z</time></trkpt><trkpt lat="41.6279192" lon="2.0899095"><ele>401.0</ele><time>2026-05-03T11:28:41.173Z</time></trkpt><trkpt lat="41.6278052" lon="2.0898411"><ele>398.25</ele><time>2026-05-03T11:28:42.172Z</time></trkpt><trkpt lat="41.6276746" lon="2.089789"><ele>395.5</ele><time>2026-05-03T11:28:43.173Z</time></trkpt><trkpt lat="41.6275388" lon="2.0897408"><ele>392.75</ele><time>2026-05-03T11:28:44.172Z</time></trkpt><trkpt lat="41.6274092" lon="2.089696"><ele>390.0</ele><time>2026-05-03T11:28:45.172Z</time></trkpt><trkpt lat="41.6272766" lon="2.0896525"><ele>390.0</ele><time>2026-05-03T11:28:46.173Z</time></trkpt><trkpt lat="41.6271549" lon="2.0896214"><ele>390.0</ele><time>2026-05-03T11:28:47.173Z</time></trkpt><trkpt lat="41.6270514" lon="2.0896018"><ele>390.0</ele><time>2026-05-03T11:28:48.173Z</time></trkpt><trkpt lat="41.6269544" lon="2.0895944"><ele>390.0</ele><time>2026-05-03T11:28:49.173Z</time></trkpt><trkpt lat="41.6268513" lon="2.089593"><ele>390.0</ele><time>2026-05-03T11:28:50.173Z</time></trkpt><trkpt lat="41.6267371" lon="2.0896207"><ele>388.2</ele><time>2026-05-03T11:28:51.173Z</time></trkpt><trkpt lat="41.6266336" lon="2.089662"><ele>386.4</ele><time>2026-05-03T11:28:52.173Z</time></trkpt><trkpt lat="41.6265307" lon="2.0897101"><ele>384.6</ele><time>2026-05-03T11:28:53.173Z</time></trkpt><trkpt lat="41.6264301" lon="2.0897202"><ele>382.8</ele><time>2026-05-03T11:28:54.173Z</time></trkpt><trkpt lat="41.6263301" lon="2.0896812"><ele>381.0</ele><time>2026-05-03T11:28:55.173Z</time></trkpt><trkpt lat="41.6262115" lon="2.0896219"><ele>378.25</ele><time>2026-05-03T11:28:56.173Z</time></trkpt><trkpt lat="41.626093" lon="2.0895531"><ele>375.5</ele><time>2026-05-03T11:28:57.173Z</time></trkpt><trkpt lat="41.6259844" lon="2.0894901"><ele>372.75</ele><time>2026-05-03T11:28:58.173Z</time></trkpt><trkpt lat="41.6258707" lon="2.0894226"><ele>370.0</ele><time>2026-05-03T11:28:59.173Z</time></trkpt><trkpt lat="41.6257622" lon="2.0893537"><ele>370.0</ele><time>2026-05-03T11:29:00.173Z</time></trkpt><trkpt lat="41.6256611" lon="2.0892932"><ele>370.0</ele><time>2026-05-03T11:29:01.173Z</time></trkpt><trkpt lat="41.625567" lon="2.0892469"><ele>370.0</ele><time>2026-05-03T11:29:02.173Z</time></trkpt><trkpt lat="41.6254682" lon="2.089191"><ele>370.0</ele><time>2026-05-03T11:29:03.173Z</time></trkpt><trkpt lat="41.625371" lon="2.0891385"><ele>370.0</ele><time>2026-05-03T11:29:04.173Z</time></trkpt><trkpt lat="41.6252563" lon="2.0890735"><ele>369.0</ele><time>2026-05-03T11:29:05.173Z</time></trkpt><trkpt lat="41.6251147" lon="2.0889851"><ele>368.0</ele><time>2026-05-03T11:29:06.173Z</time></trkpt><trkpt lat="41.6249611" lon="2.0888836"><ele>367.0</ele><time>2026-05-03T11:29:07.173Z</time></trkpt><trkpt lat="41.624816" lon="2.0888007"><ele>367.0</ele><time>2026-05-03T11:29:08.173Z</time></trkpt><trkpt lat="41.6246856" lon="2.0887152"><ele>367.0</ele><time>2026-05-03T11:29:09.172Z</time></trkpt><trkpt lat="41.6245643" lon="2.088648"><ele>367.0</ele><time>2026-05-03T11:29:10.172Z</time></trkpt><trkpt lat="41.6244536" lon="2.088582"><ele>367.0</ele><time>2026-05-03T11:29:11.173Z</time></trkpt><trkpt lat="41.6243497" lon="2.0885273"><ele>365.8</ele><time>2026-05-03T11:29:12.172Z</time></trkpt><trkpt lat="41.6242496" lon="2.0884829"><ele>364.6</ele><time>2026-05-03T11:29:13.173Z</time></trkpt><trkpt lat="41.6241578" lon="2.0884628"><ele>363.40000000000003</ele><time>2026-05-03T11:29:14.173Z</time></trkpt><trkpt lat="41.6240663" lon="2.0884456"><ele>362.20000000000005</ele><time>2026-05-03T11:29:15.172Z</time></trkpt><trkpt lat="41.6239846" lon="2.0884173"><ele>361.0</ele><time>2026-05-03T11:29:16.173Z</time></trkpt><trkpt lat="41.6238963" lon="2.0883891"><ele>361.0</ele><time>2026-05-03T11:29:17.173Z</time></trkpt><trkpt lat="41.6238104" lon="2.0883594"><ele>361.0</ele><time>2026-05-03T11:29:18.173Z</time></trkpt><trkpt lat="41.6237229" lon="2.0883244"><ele>361.0</ele><time>2026-05-03T11:29:19.173Z</time></trkpt><trkpt lat="41.6236412" lon="2.0882958"><ele>361.0</ele><time>2026-05-03T11:29:20.173Z</time></trkpt><trkpt lat="41.6235507" lon="2.0882741"><ele>361.0</ele><time>2026-05-03T11:29:21.173Z</time></trkpt><trkpt lat="41.6234455" lon="2.0882473"><ele>358.5</ele><time>2026-05-03T11:29:22.173Z</time></trkpt><trkpt lat="41.6233336" lon="2.0882209"><ele>356.0</ele><time>2026-05-03T11:29:23.173Z</time></trkpt><trkpt lat="41.6232094" lon="2.0881969"><ele>353.5</ele><time>2026-05-03T11:29:24.172Z</time></trkpt><trkpt lat="41.6230881" lon="2.0881715"><ele>351.0</ele><time>2026-05-03T11:29:25.173Z</time></trkpt><trkpt lat="41.6229839" lon="2.0881506"><ele>351.0</ele><time>2026-05-03T11:29:26.173Z</time></trkpt><trkpt lat="41.622894" lon="2.0881511"><ele>351.0</ele><time>2026-05-03T11:29:27.172Z</time></trkpt><trkpt lat="41.6228069" lon="2.0881669"><ele>351.0</ele><time>2026-05-03T11:29:28.172Z</time></trkpt><trkpt lat="41.6227077" lon="2.0882014"><ele>351.0</ele><time>2026-05-03T11:29:29.173Z</time></trkpt><trkpt lat="41.6226094" lon="2.0882535"><ele>351.0</ele><time>2026-05-03T11:29:30.173Z</time></trkpt><trkpt lat="41.6225053" lon="2.0883353"><ele>351.75</ele><time>2026-05-03T11:29:31.172Z</time></trkpt><trkpt lat="41.6223913" lon="2.088431"><ele>352.5</ele><time>2026-05-03T11:29:32.173Z</time></trkpt><trkpt lat="41.6222634" lon="2.0885369"><ele>353.25</ele><time>2026-05-03T11:29:33.173Z</time></trkpt><trkpt lat="41.6221299" lon="2.0886583"><ele>354.0</ele><time>2026-05-03T11:29:34.172Z</time></trkpt><trkpt lat="41.6219928" lon="2.0887886"><ele>355.6666666666667</ele><time>2026-05-03T11:29:35.172Z</time></trkpt><trkpt lat="41.6218531" lon="2.0889248"><ele>357.33333333333337</ele><time>2026-05-03T11:29:36.173Z</time></trkpt><trkpt lat="41.6217236" lon="2.0890542"><ele>359.0</ele><time>2026-05-03T11:29:37.173Z</time></trkpt><trkpt lat="41.6215964" lon="2.0891797"><ele>359.0</ele><time>2026-05-03T11:29:38.173Z</time></trkpt><trkpt lat="41.6214746" lon="2.0892985"><ele>359.0</ele><time>2026-05-03T11:29:39.173Z</time></trkpt><trkpt lat="41.6213684" lon="2.0894034"><ele>359.0</ele><time>2026-05-03T11:29:40.173Z</time></trkpt><trkpt lat="41.6212839" lon="2.0894919"><ele>359.0</ele><time>2026-05-03T11:29:41.173Z</time></trkpt><trkpt lat="41.6212186" lon="2.0895609"><ele>359.0</ele><time>2026-05-03T11:29:42.173Z</time></trkpt><trkpt lat="41.6211616" lon="2.0896358"><ele>359.0</ele><time>2026-05-03T11:29:43.173Z</time></trkpt><trkpt lat="41.6211227" lon="2.0897094"><ele>359.0</ele><time>2026-05-03T11:29:44.173Z</time></trkpt><trkpt lat="41.6210949" lon="2.089786"><ele>359.0</ele><time>2026-05-03T11:29:45.173Z</time></trkpt><trkpt lat="41.6210806" lon="2.0898717"><ele>359.0</ele><time>2026-05-03T11:29:46.172Z</time></trkpt><trkpt lat="41.6210648" lon="2.0899558"><ele>359.0</ele><time>2026-05-03T11:29:47.172Z</time></trkpt><trkpt lat="41.6209768" lon="2.0900677"><ele>359.33333333333337</ele><time>2026-05-03T11:29:49.172Z</time></trkpt><trkpt lat="41.6208971" lon="2.0900763"><ele>359.6666666666667</ele><time>2026-05-03T11:29:50.172Z</time></trkpt><trkpt lat="41.6208116" lon="2.09004"><ele>360.0</ele><time>2026-05-03T11:29:51.173Z</time></trkpt><trkpt lat="41.6207252" lon="2.0899734"><ele>360.3333333333333</ele><time>2026-05-03T11:29:52.173Z</time></trkpt><trkpt lat="41.6206668" lon="2.0899114"><ele>360.66666666666663</ele><time>2026-05-03T11:29:53.173Z</time></trkpt><trkpt lat="41.620612" lon="2.0898147"><ele>361.0</ele><time>2026-05-03T11:29:55.172Z</time></trkpt><trkpt lat="41.6205202" lon="2.0896706"><ele>360.8333333333333</ele><time>2026-05-03T11:29:58.173Z</time></trkpt><trkpt lat="41.6204454" lon="2.0895647"><ele>360.66666666666663</ele><time>2026-05-03T11:30:00.173Z</time></trkpt><trkpt lat="41.620377" lon="2.0895228"><ele>360.5</ele><time>2026-05-03T11:30:02.173Z</time></trkpt><trkpt lat="41.6203371" lon="2.0896029"><ele>360.3333333333333</ele><time>2026-05-03T11:30:04.173Z</time></trkpt><trkpt lat="41.6203255" lon="2.0896971"><ele>360.1666666666667</ele><time>2026-05-03T11:30:05.173Z</time></trkpt><trkpt lat="41.6203072" lon="2.0897982"><ele>360.0</ele><time>2026-05-03T11:30:06.172Z</time></trkpt><trkpt lat="41.6202547" lon="2.0898919"><ele>361.2</ele><time>2026-05-03T11:30:07.173Z</time></trkpt><trkpt lat="41.6201812" lon="2.0899609"><ele>362.4</ele><time>2026-05-03T11:30:08.173Z</time></trkpt><trkpt lat="41.6200816" lon="2.0900176"><ele>363.6</ele><time>2026-05-03T11:30:09.172Z</time></trkpt><trkpt lat="41.6199777" lon="2.0900709"><ele>364.8</ele><time>2026-05-03T11:30:10.173Z</time></trkpt><trkpt lat="41.6198694" lon="2.0901499"><ele>366.0</ele><time>2026-05-03T11:30:11.173Z</time></trkpt><trkpt lat="41.6197882" lon="2.0902384"><ele>366.0</ele><time>2026-05-03T11:30:12.172Z</time></trkpt><trkpt lat="41.6197178" lon="2.0903348"><ele>366.0</ele><time>2026-05-03T11:30:13.173Z</time></trkpt><trkpt lat="41.6196635" lon="2.0904059"><ele>366.0</ele><time>2026-05-03T11:30:14.172Z</time></trkpt><trkpt lat="41.6196131" lon="2.0904909"><ele>366.0</ele><time>2026-05-03T11:30:16.172Z</time></trkpt><trkpt lat="41.6196574" lon="2.0905956"><ele>366.0</ele><time>2026-05-03T11:30:18.173Z</time></trkpt><trkpt lat="41.6197205" lon="2.0906952"><ele>366.0</ele><time>2026-05-03T11:30:19.173Z</time></trkpt><trkpt lat="41.6197939" lon="2.0908126"><ele>367.8</ele><time>2026-05-03T11:30:20.173Z</time></trkpt><trkpt lat="41.6198656" lon="2.0909339"><ele>369.6</ele><time>2026-05-03T11:30:21.173Z</time></trkpt><trkpt lat="41.6199414" lon="2.0910589"><ele>371.4</ele><time>2026-05-03T11:30:22.173Z</time></trkpt><trkpt lat="41.620009" lon="2.0911756"><ele>373.2</ele><time>2026-05-03T11:30:23.173Z</time></trkpt><trkpt lat="41.6200658" lon="2.0912698"><ele>375.0</ele><time>2026-05-03T11:30:24.173Z</time></trkpt><trkpt lat="41.6201132" lon="2.0913555"><ele>375.0</ele><time>2026-05-03T11:30:25.172Z</time></trkpt><trkpt lat="41.6201498" lon="2.0914272"><ele>375.0</ele><time>2026-05-03T11:30:26.178Z</time></trkpt><trkpt lat="41.6201623" lon="2.0915131"><ele>375.0</ele><time>2026-05-03T11:30:27.178Z</time></trkpt><trkpt lat="41.6201426" lon="2.0916156"><ele>375.0</ele><time>2026-05-03T11:30:28.178Z</time></trkpt><trkpt lat="41.620078" lon="2.0917528"><ele>375.0</ele><time>2026-05-03T11:30:29.178Z</time></trkpt><trkpt lat="41.6200222" lon="2.0918873"><ele>375.0</ele><time>2026-05-03T11:30:30.178Z</time></trkpt><trkpt lat="41.6199766" lon="2.0920465"><ele>375.0</ele><time>2026-05-03T11:30:31.178Z</time></trkpt><trkpt lat="41.6199539" lon="2.0922357"><ele>375.0</ele><time>2026-05-03T11:30:32.178Z</time></trkpt><trkpt lat="41.6199562" lon="2.0924488"><ele>375.0</ele><time>2026-05-03T11:30:33.178Z</time></trkpt><trkpt lat="41.6199619" lon="2.0926818"><ele>375.0</ele><time>2026-05-03T11:30:34.178Z</time></trkpt><trkpt lat="41.6199621" lon="2.092906"><ele>375.0</ele><time>2026-05-03T11:30:35.178Z</time></trkpt><trkpt lat="41.6199557" lon="2.0931172"><ele>375.0</ele><time>2026-05-03T11:30:36.178Z</time></trkpt><trkpt lat="41.6199327" lon="2.0933216"><ele>375.0</ele><time>2026-05-03T11:30:37.178Z</time></trkpt><trkpt lat="41.619896" lon="2.0935308"><ele>375.0</ele><time>2026-05-03T11:30:38.178Z</time></trkpt><trkpt lat="41.6198477" lon="2.0937397"><ele>375.0</ele><time>2026-05-03T11:30:39.178Z</time></trkpt><trkpt lat="41.6197915" lon="2.0939393"><ele>373.75</ele><time>2026-05-03T11:30:40.178Z</time></trkpt><trkpt lat="41.6197423" lon="2.094124"><ele>372.5</ele><time>2026-05-03T11:30:41.178Z</time></trkpt><trkpt lat="41.6197004" lon="2.0942956"><ele>371.25</ele><time>2026-05-03T11:30:42.177Z</time></trkpt><trkpt lat="41.6196631" lon="2.0944459"><ele>370.0</ele><time>2026-05-03T11:30:43.178Z</time></trkpt><trkpt lat="41.6196165" lon="2.0945892"><ele>370.0</ele><time>2026-05-03T11:30:44.178Z</time></trkpt><trkpt lat="41.6195636" lon="2.0947458"><ele>370.0</ele><time>2026-05-03T11:30:45.177Z</time></trkpt><trkpt lat="41.619508" lon="2.0949003"><ele>370.0</ele><time>2026-05-03T11:30:46.178Z</time></trkpt><trkpt lat="41.6194517" lon="2.095055"><ele>370.0</ele><time>2026-05-03T11:30:47.178Z</time></trkpt><trkpt lat="41.619389" lon="2.0952036"><ele>367.75</ele><time>2026-05-03T11:30:48.178Z</time></trkpt><trkpt lat="41.6193244" lon="2.095355"><ele>365.5</ele><time>2026-05-03T11:30:49.178Z</time></trkpt><trkpt lat="41.6192497" lon="2.0955083"><ele>363.25</ele><time>2026-05-03T11:30:50.178Z</time></trkpt><trkpt lat="41.6191785" lon="2.0956618"><ele>361.0</ele><time>2026-05-03T11:30:51.178Z</time></trkpt><trkpt lat="41.6191107" lon="2.095806"><ele>361.0</ele><time>2026-05-03T11:30:52.178Z</time></trkpt><trkpt lat="41.6190426" lon="2.0959424"><ele>361.0</ele><time>2026-05-03T11:30:53.177Z</time></trkpt><trkpt lat="41.6189708" lon="2.0960857"><ele>361.0</ele><time>2026-05-03T11:30:54.177Z</time></trkpt><trkpt lat="41.6188906" lon="2.0962333"><ele>361.0</ele><time>2026-05-03T11:30:55.177Z</time></trkpt><trkpt lat="41.6188057" lon="2.0963753"><ele>361.0</ele><time>2026-05-03T11:30:56.178Z</time></trkpt><trkpt lat="41.618721" lon="2.0965167"><ele>361.0</ele><time>2026-05-03T11:30:57.177Z</time></trkpt><trkpt lat="41.6186317" lon="2.0966472"><ele>361.0</ele><time>2026-05-03T11:30:58.177Z</time></trkpt><trkpt lat="41.618544" lon="2.0967619"><ele>361.0</ele><time>2026-05-03T11:30:59.178Z</time></trkpt><trkpt lat="41.6184714" lon="2.0968549"><ele>358.6</ele><time>2026-05-03T11:31:00.178Z</time></trkpt><trkpt lat="41.6184045" lon="2.0969297"><ele>356.20000000000005</ele><time>2026-05-03T11:31:01.178Z</time></trkpt><trkpt lat="41.6183175" lon="2.0969767"><ele>353.79999999999995</ele><time>2026-05-03T11:31:02.177Z</time></trkpt><trkpt lat="41.6182226" lon="2.0970079"><ele>351.4</ele><time>2026-05-03T11:31:03.178Z</time></trkpt><trkpt lat="41.6181306" lon="2.0970475"><ele>349.0</ele><time>2026-05-03T11:31:04.178Z</time></trkpt><trkpt lat="41.6180538" lon="2.0971215"><ele>349.0</ele><time>2026-05-03T11:31:05.178Z</time></trkpt><trkpt lat="41.6180093" lon="2.0972485"><ele>349.0</ele><time>2026-05-03T11:31:06.178Z</time></trkpt><trkpt lat="41.6179939" lon="2.0973795"><ele>349.0</ele><time>2026-05-03T11:31:07.178Z</time></trkpt><trkpt lat="41.6180047" lon="2.0975084"><ele>349.0</ele><time>2026-05-03T11:31:08.178Z</time></trkpt><trkpt lat="41.6180064" lon="2.0976309"><ele>349.0</ele><time>2026-05-03T11:31:09.178Z</time></trkpt><trkpt lat="41.617979" lon="2.0977618"><ele>348.5</ele><time>2026-05-03T11:31:10.178Z</time></trkpt><trkpt lat="41.617933" lon="2.0979213"><ele>348.0</ele><time>2026-05-03T11:31:11.178Z</time></trkpt><trkpt lat="41.6178944" lon="2.0980852"><ele>347.5</ele><time>2026-05-03T11:31:12.178Z</time></trkpt><trkpt lat="41.6178647" lon="2.0982567"><ele>347.0</ele><time>2026-05-03T11:31:13.178Z</time></trkpt><trkpt lat="41.6178342" lon="2.0984362"><ele>347.0</ele><time>2026-05-03T11:31:14.178Z</time></trkpt><trkpt lat="41.6178089" lon="2.0986037"><ele>347.0</ele><time>2026-05-03T11:31:15.178Z</time></trkpt><trkpt lat="41.6178142" lon="2.0987782"><ele>347.0</ele><time>2026-05-03T11:31:16.178Z</time></trkpt><trkpt lat="41.6178516" lon="2.0989817"><ele>347.0</ele><time>2026-05-03T11:31:17.177Z</time></trkpt><trkpt lat="41.6178816" lon="2.0991979"><ele>346.6666666666667</ele><time>2026-05-03T11:31:18.177Z</time></trkpt><trkpt lat="41.6179008" lon="2.099416"><ele>346.3333333333333</ele><time>2026-05-03T11:31:19.177Z</time></trkpt><trkpt lat="41.6178962" lon="2.0996416"><ele>346.0</ele><time>2026-05-03T11:31:20.178Z</time></trkpt><trkpt lat="41.6178739" lon="2.0998635"><ele>345.3333333333333</ele><time>2026-05-03T11:31:21.178Z</time></trkpt><trkpt lat="41.6178496" lon="2.1000784"><ele>344.6666666666667</ele><time>2026-05-03T11:31:22.178Z</time></trkpt><trkpt lat="41.6178115" lon="2.1002839"><ele>344.0</ele><time>2026-05-03T11:31:23.178Z</time></trkpt><trkpt lat="41.6177674" lon="2.1004887"><ele>352.0</ele><time>2026-05-03T11:31:24.178Z</time></trkpt><trkpt lat="41.617715" lon="2.1006831"><ele>360.0</ele><time>2026-05-03T11:31:25.178Z</time></trkpt><trkpt lat="41.6176258" lon="2.1008706"><ele>368.0</ele><time>2026-05-03T11:31:26.177Z</time></trkpt><trkpt lat="41.6175283" lon="2.1010467"><ele>368.0</ele><time>2026-05-03T11:31:27.178Z</time></trkpt><trkpt lat="41.6174468" lon="2.1011899"><ele>368.0</ele><time>2026-05-03T11:31:28.178Z</time></trkpt><trkpt lat="41.617382" lon="2.1013178"><ele>368.0</ele><time>2026-05-03T11:31:29.177Z</time></trkpt><trkpt lat="41.6173255" lon="2.1014157"><ele>368.0</ele><time>2026-05-03T11:31:30.178Z</time></trkpt><trkpt lat="41.6172591" lon="2.1015274"><ele>368.0</ele><time>2026-05-03T11:31:32.178Z</time></trkpt><trkpt lat="41.617233" lon="2.1017087"><ele>366.33333333333337</ele><time>2026-05-03T11:31:34.178Z</time></trkpt><trkpt lat="41.6172248" lon="2.1018174"><ele>364.6666666666667</ele><time>2026-05-03T11:31:35.178Z</time></trkpt><trkpt lat="41.6172078" lon="2.1019258"><ele>363.0</ele><time>2026-05-03T11:31:36.178Z</time></trkpt><trkpt lat="41.6171809" lon="2.1020414"><ele>361.3333333333333</ele><time>2026-05-03T11:31:37.178Z</time></trkpt><trkpt lat="41.6171511" lon="2.1021613"><ele>359.66666666666663</ele><time>2026-05-03T11:31:38.178Z</time></trkpt><trkpt lat="41.617116" lon="2.1022816"><ele>358.0</ele><time>2026-05-03T11:31:39.178Z</time></trkpt><trkpt lat="41.6170733" lon="2.1024031"><ele>357.0</ele><time>2026-05-03T11:31:40.177Z</time></trkpt><trkpt lat="41.6170312" lon="2.1025148"><ele>356.0</ele><time>2026-05-03T11:31:41.178Z</time></trkpt><trkpt lat="41.6169795" lon="2.1026216"><ele>355.0</ele><time>2026-05-03T11:31:42.178Z</time></trkpt><trkpt lat="41.616919" lon="2.1027336"><ele>354.0</ele><time>2026-05-03T11:31:43.177Z</time></trkpt><trkpt lat="41.6168411" lon="2.1028563"><ele>353.0</ele><time>2026-05-03T11:31:44.178Z</time></trkpt><trkpt lat="41.6167675" lon="2.1029748"><ele>353.0</ele><time>2026-05-03T11:31:45.177Z</time></trkpt><trkpt lat="41.6166946" lon="2.1030974"><ele>353.0</ele><time>2026-05-03T11:31:46.178Z</time></trkpt><trkpt lat="41.6166242" lon="2.1032157"><ele>353.0</ele><time>2026-05-03T11:31:47.178Z</time></trkpt><trkpt lat="41.6165525" lon="2.103329"><ele>353.0</ele><time>2026-05-03T11:31:48.178Z</time></trkpt><trkpt lat="41.6164882" lon="2.1034585"><ele>352.0</ele><time>2026-05-03T11:31:49.178Z</time></trkpt><trkpt lat="41.6164282" lon="2.103604"><ele>351.0</ele><time>2026-05-03T11:31:50.178Z</time></trkpt><trkpt lat="41.616366" lon="2.1037595"><ele>350.0</ele><time>2026-05-03T11:31:51.178Z</time></trkpt><trkpt lat="41.6163034" lon="2.1039148"><ele>349.0</ele><time>2026-05-03T11:31:52.178Z</time></trkpt><trkpt lat="41.6162394" lon="2.1040807"><ele>348.75</ele><time>2026-05-03T11:31:53.178Z</time></trkpt><trkpt lat="41.6161836" lon="2.1042392"><ele>348.5</ele><time>2026-05-03T11:31:54.178Z</time></trkpt><trkpt lat="41.6161358" lon="2.1043709"><ele>348.25</ele><time>2026-05-03T11:31:55.177Z</time></trkpt><trkpt lat="41.6160838" lon="2.1045023"><ele>348.0</ele><time>2026-05-03T11:31:56.178Z</time></trkpt><trkpt lat="41.6160234" lon="2.1046216"><ele>348.0</ele><time>2026-05-03T11:31:57.178Z</time></trkpt><trkpt lat="41.6159586" lon="2.1047427"><ele>348.0</ele><time>2026-05-03T11:31:58.178Z</time></trkpt><trkpt lat="41.6158748" lon="2.1048641"><ele>348.0</ele><time>2026-05-03T11:31:59.178Z</time></trkpt><trkpt lat="41.6157791" lon="2.1049824"><ele>348.0</ele><time>2026-05-03T11:32:00.177Z</time></trkpt><trkpt lat="41.6156846" lon="2.105093"><ele>349.25</ele><time>2026-05-03T11:32:01.178Z</time></trkpt><trkpt lat="41.6156038" lon="2.105209"><ele>350.5</ele><time>2026-05-03T11:32:02.178Z</time></trkpt><trkpt lat="41.6155396" lon="2.1053397"><ele>351.75</ele><time>2026-05-03T11:32:03.178Z</time></trkpt><trkpt lat="41.615483" lon="2.1054873"><ele>353.0</ele><time>2026-05-03T11:32:04.177Z</time></trkpt><trkpt lat="41.6154425" lon="2.1056402"><ele>352.75</ele><time>2026-05-03T11:32:05.177Z</time></trkpt><trkpt lat="41.6153986" lon="2.1058051"><ele>352.5</ele><time>2026-05-03T11:32:06.178Z</time></trkpt><trkpt lat="41.615355" lon="2.1059739"><ele>352.25</ele><time>2026-05-03T11:32:07.178Z</time></trkpt><trkpt lat="41.6153104" lon="2.1061187"><ele>352.0</ele><time>2026-05-03T11:32:08.178Z</time></trkpt><trkpt lat="41.6152711" lon="2.1062518"><ele>352.0</ele><time>2026-05-03T11:32:09.178Z</time></trkpt><trkpt lat="41.6152355" lon="2.1063808"><ele>352.0</ele><time>2026-05-03T11:32:10.177Z</time></trkpt><trkpt lat="41.6152042" lon="2.1064966"><ele>352.0</ele><time>2026-05-03T11:32:11.178Z</time></trkpt><trkpt lat="41.6151637" lon="2.1065978"><ele>352.0</ele><time>2026-05-03T11:32:12.178Z</time></trkpt><trkpt lat="41.6151077" lon="2.1066823"><ele>352.0</ele><time>2026-05-03T11:32:13.177Z</time></trkpt><trkpt lat="41.615036" lon="2.1067699"><ele>351.6</ele><time>2026-05-03T11:32:14.177Z</time></trkpt><trkpt lat="41.6149588" lon="2.1068599"><ele>351.20000000000005</ele><time>2026-05-03T11:32:15.177Z</time></trkpt><trkpt lat="41.6148714" lon="2.1069533"><ele>350.8</ele><time>2026-05-03T11:32:16.178Z</time></trkpt><trkpt lat="41.6147923" lon="2.1070398"><ele>350.4</ele><time>2026-05-03T11:32:17.178Z</time></trkpt><trkpt lat="41.6147063" lon="2.1071198"><ele>350.0</ele><time>2026-05-03T11:32:18.177Z</time></trkpt><trkpt lat="41.614611" lon="2.1072054"><ele>350.0</ele><time>2026-05-03T11:32:19.178Z</time></trkpt><trkpt lat="41.6145193" lon="2.1072889"><ele>350.0</ele><time>2026-05-03T11:32:20.177Z</time></trkpt><trkpt lat="41.614436" lon="2.1073624"><ele>350.0</ele><time>2026-05-03T11:32:21.178Z</time></trkpt><trkpt lat="41.6143588" lon="2.1074488"><ele>350.0</ele><time>2026-05-03T11:32:22.178Z</time></trkpt><trkpt lat="41.6142845" lon="2.1075334"><ele>350.0</ele><time>2026-05-03T11:32:23.177Z</time></trkpt><trkpt lat="41.6142191" lon="2.1076413"><ele>348.8</ele><time>2026-05-03T11:32:24.178Z</time></trkpt><trkpt lat="41.614159" lon="2.107774"><ele>347.6</ele><time>2026-05-03T11:32:25.177Z</time></trkpt><trkpt lat="41.6140979" lon="2.1079139"><ele>346.4</ele><time>2026-05-03T11:32:26.178Z</time></trkpt><trkpt lat="41.6140412" lon="2.1080189"><ele>345.2</ele><time>2026-05-03T11:32:27.177Z</time></trkpt><trkpt lat="41.6140037" lon="2.1081046"><ele>344.0</ele><time>2026-05-03T11:32:28.178Z</time></trkpt><trkpt lat="41.6139461" lon="2.1082166"><ele>344.0</ele><time>2026-05-03T11:32:30.178Z</time></trkpt><trkpt lat="41.6139131" lon="2.108319"><ele>344.0</ele><time>2026-05-03T11:32:32.178Z</time></trkpt><trkpt lat="41.6138796" lon="2.1084131"><ele>344.0</ele><time>2026-05-03T11:32:34.178Z</time></trkpt><trkpt lat="41.6138399" lon="2.1085229"><ele>344.0</ele><time>2026-05-03T11:32:36.178Z</time></trkpt><trkpt lat="41.6138075" lon="2.1086402"><ele>344.0</ele><time>2026-05-03T11:32:38.178Z</time></trkpt><trkpt lat="41.6137907" lon="2.1087759"><ele>344.0</ele><time>2026-05-03T11:32:40.177Z</time></trkpt><trkpt lat="41.6137595" lon="2.1088804"><ele>344.0</ele><time>2026-05-03T11:32:42.178Z</time></trkpt><trkpt lat="41.6137047" lon="2.1089979"><ele>344.0</ele><time>2026-05-03T11:32:44.178Z</time></trkpt><trkpt lat="41.6136231" lon="2.1091442"><ele>344.0</ele><time>2026-05-03T11:32:46.177Z</time></trkpt><trkpt lat="41.6135699" lon="2.1092322"><ele>344.0</ele><time>2026-05-03T11:32:47.177Z</time></trkpt><trkpt lat="41.6135172" lon="2.1093211"><ele>344.0</ele><time>2026-05-03T11:32:48.178Z</time></trkpt><trkpt lat="41.6134606" lon="2.1094115"><ele>342.0</ele><time>2026-05-03T11:32:49.178Z</time></trkpt><trkpt lat="41.6133991" lon="2.1095008"><ele>340.0</ele><time>2026-05-03T11:32:50.177Z</time></trkpt><trkpt lat="41.6133331" lon="2.1095984"><ele>338.0</ele><time>2026-05-03T11:32:51.178Z</time></trkpt><trkpt lat="41.6132693" lon="2.1096995"><ele>336.0</ele><time>2026-05-03T11:32:52.177Z</time></trkpt><trkpt lat="41.6132085" lon="2.109802"><ele>334.0</ele><time>2026-05-03T11:32:53.178Z</time></trkpt><trkpt lat="41.6131458" lon="2.109905"><ele>332.6</ele><time>2026-05-03T11:32:54.178Z</time></trkpt><trkpt lat="41.6130862" lon="2.1100018"><ele>331.2</ele><time>2026-05-03T11:32:55.177Z</time></trkpt><trkpt lat="41.613026" lon="2.1101025"><ele>329.8</ele><time>2026-05-03T11:32:56.178Z</time></trkpt><trkpt lat="41.6129626" lon="2.1101987"><ele>328.40000000000003</ele><time>2026-05-03T11:32:57.178Z</time></trkpt><trkpt lat="41.6128961" lon="2.1102813"><ele>327.0</ele><time>2026-05-03T11:32:58.178Z</time></trkpt><trkpt lat="41.6128188" lon="2.1103483"><ele>326.8</ele><time>2026-05-03T11:32:59.178Z</time></trkpt><trkpt lat="41.6127371" lon="2.1103948"><ele>326.6</ele><time>2026-05-03T11:33:00.177Z</time></trkpt><trkpt lat="41.6126485" lon="2.1104258"><ele>326.40000000000003</ele><time>2026-05-03T11:33:01.177Z</time></trkpt><trkpt lat="41.6125428" lon="2.1104289"><ele>326.20000000000005</ele><time>2026-05-03T11:33:02.178Z</time></trkpt><trkpt lat="41.6124173" lon="2.1104273"><ele>326.0</ele><time>2026-05-03T11:33:03.178Z</time></trkpt><trkpt lat="41.6122903" lon="2.1104305"><ele>326.0</ele><time>2026-05-03T11:33:04.178Z</time></trkpt><trkpt lat="41.6121784" lon="2.1104496"><ele>326.0</ele><time>2026-05-03T11:33:05.178Z</time></trkpt><trkpt lat="41.6120658" lon="2.1104715"><ele>326.0</ele><time>2026-05-03T11:33:06.177Z</time></trkpt><trkpt lat="41.6119394" lon="2.1104859"><ele>326.0</ele><time>2026-05-03T11:33:07.177Z</time></trkpt><trkpt lat="41.6118078" lon="2.1104924"><ele>326.5</ele><time>2026-05-03T11:33:08.178Z</time></trkpt><trkpt lat="41.6116675" lon="2.1105037"><ele>327.0</ele><time>2026-05-03T11:33:09.178Z</time></trkpt><trkpt lat="41.6115253" lon="2.1105244"><ele>327.5</ele><time>2026-05-03T11:33:10.178Z</time></trkpt><trkpt lat="41.6113953" lon="2.1105401"><ele>328.0</ele><time>2026-05-03T11:33:11.177Z</time></trkpt><trkpt lat="41.6112741" lon="2.1105444"><ele>328.0</ele><time>2026-05-03T11:33:12.178Z</time></trkpt><trkpt lat="41.6111611" lon="2.1105586"><ele>328.0</ele><time>2026-05-03T11:33:13.178Z</time></trkpt><trkpt lat="41.6110401" lon="2.1105554"><ele>328.0</ele><time>2026-05-03T11:33:14.178Z</time></trkpt><trkpt lat="41.6109148" lon="2.1105506"><ele>328.0</ele><time>2026-05-03T11:33:15.177Z</time></trkpt><trkpt lat="41.6107848" lon="2.1105358"><ele>327.5</ele><time>2026-05-03T11:33:16.178Z</time></trkpt><trkpt lat="41.6106564" lon="2.1105042"><ele>327.0</ele><time>2026-05-03T11:33:17.177Z</time></trkpt><trkpt lat="41.6105301" lon="2.1104753"><ele>326.5</ele><time>2026-05-03T11:33:18.178Z</time></trkpt><trkpt lat="41.6103934" lon="2.1104294"><ele>326.0</ele><time>2026-05-03T11:33:19.177Z</time></trkpt><trkpt lat="41.6102734" lon="2.110375"><ele>326.0</ele><time>2026-05-03T11:33:20.177Z</time></trkpt><trkpt lat="41.6101605" lon="2.1103279"><ele>326.0</ele><time>2026-05-03T11:33:21.178Z</time></trkpt><trkpt lat="41.6100789" lon="2.1102916"><ele>326.0</ele><time>2026-05-03T11:33:22.178Z</time></trkpt><trkpt lat="41.6100047" lon="2.1102812"><ele>326.0</ele><time>2026-05-03T11:33:23.177Z</time></trkpt><trkpt lat="41.6099284" lon="2.1102929"><ele>326.0</ele><time>2026-05-03T11:33:24.178Z</time></trkpt><trkpt lat="41.609853" lon="2.1103553"><ele>326.0</ele><time>2026-05-03T11:33:25.178Z</time></trkpt><trkpt lat="41.6097632" lon="2.1104821"><ele>326.0</ele><time>2026-05-03T11:33:26.178Z</time></trkpt><trkpt lat="41.6096757" lon="2.1106127"><ele>326.0</ele><time>2026-05-03T11:33:27.177Z</time></trkpt><trkpt lat="41.6095677" lon="2.1107226"><ele>326.0</ele><time>2026-05-03T11:33:28.178Z</time></trkpt><trkpt lat="41.609458" lon="2.1108186"><ele>326.0</ele><time>2026-05-03T11:33:29.177Z</time></trkpt><trkpt lat="41.6093573" lon="2.1108908"><ele>327.0</ele><time>2026-05-03T11:33:30.178Z</time></trkpt><trkpt lat="41.609248" lon="2.1109366"><ele>328.0</ele><time>2026-05-03T11:33:31.177Z</time></trkpt><trkpt lat="41.6091459" lon="2.1109489"><ele>329.0</ele><time>2026-05-03T11:33:32.178Z</time></trkpt><trkpt lat="41.6090451" lon="2.110936"><ele>330.0</ele><time>2026-05-03T11:33:33.178Z</time></trkpt><trkpt lat="41.6089586" lon="2.110882"><ele>331.0</ele><time>2026-05-03T11:33:34.178Z</time></trkpt><trkpt lat="41.6088818" lon="2.1108188"><ele>331.0</ele><time>2026-05-03T11:33:35.177Z</time></trkpt><trkpt lat="41.6088056" lon="2.1107866"><ele>331.0</ele><time>2026-05-03T11:33:36.178Z</time></trkpt><trkpt lat="41.608735" lon="2.1107714"><ele>331.0</ele><time>2026-05-03T11:33:37.178Z</time></trkpt><trkpt lat="41.6086606" lon="2.1107789"><ele>331.0</ele><time>2026-05-03T11:33:38.178Z</time></trkpt><trkpt lat="41.6085967" lon="2.1108139"><ele>331.0</ele><time>2026-05-03T11:33:39.178Z</time></trkpt><trkpt lat="41.6085369" lon="2.110871"><ele>331.0</ele><time>2026-05-03T11:33:40.178Z</time></trkpt><trkpt lat="41.6084845" lon="2.1109622"><ele>331.75</ele><time>2026-05-03T11:33:41.178Z</time></trkpt><trkpt lat="41.6084301" lon="2.1110913"><ele>332.5</ele><time>2026-05-03T11:33:42.177Z</time></trkpt><trkpt lat="41.6083628" lon="2.1112437"><ele>333.25</ele><time>2026-05-03T11:33:43.177Z</time></trkpt><trkpt lat="41.6082875" lon="2.1113787"><ele>334.0</ele><time>2026-05-03T11:33:44.177Z</time></trkpt><trkpt lat="41.6082124" lon="2.1114979"><ele>334.0</ele><time>2026-05-03T11:33:45.177Z</time></trkpt><trkpt lat="41.6081343" lon="2.111572"><ele>334.0</ele><time>2026-05-03T11:33:46.177Z</time></trkpt><trkpt lat="41.6080379" lon="2.1116008"><ele>334.0</ele><time>2026-05-03T11:33:47.178Z</time></trkpt><trkpt lat="41.6079423" lon="2.1116065"><ele>334.0</ele><time>2026-05-03T11:33:48.178Z</time></trkpt><trkpt lat="41.6078403" lon="2.1116083"><ele>334.0</ele><time>2026-05-03T11:33:49.177Z</time></trkpt><trkpt lat="41.6077366" lon="2.1116127"><ele>336.0</ele><time>2026-05-03T11:33:50.178Z</time></trkpt><trkpt lat="41.6076396" lon="2.111641"><ele>338.0</ele><time>2026-05-03T11:33:51.178Z</time></trkpt><trkpt lat="41.6075492" lon="2.1116874"><ele>340.0</ele><time>2026-05-03T11:33:52.178Z</time></trkpt><trkpt lat="41.6074596" lon="2.1117511"><ele>342.0</ele><time>2026-05-03T11:33:53.178Z</time></trkpt><trkpt lat="41.6073649" lon="2.1118398"><ele>344.0</ele><time>2026-05-03T11:33:54.178Z</time></trkpt><trkpt lat="41.6072687" lon="2.1119195"><ele>344.0</ele><time>2026-05-03T11:33:55.178Z</time></trkpt><trkpt lat="41.6071778" lon="2.1119793"><ele>344.0</ele><time>2026-05-03T11:33:56.178Z</time></trkpt><trkpt lat="41.6071098" lon="2.1120031"><ele>344.0</ele><time>2026-05-03T11:33:57.178Z</time></trkpt><trkpt lat="41.6070329" lon="2.1120248"><ele>344.0</ele><time>2026-05-03T11:33:58.177Z</time></trkpt><trkpt lat="41.6069486" lon="2.1120207"><ele>344.0</ele><time>2026-05-03T11:33:59.177Z</time></trkpt><trkpt lat="41.6068263" lon="2.1120026"><ele>341.33333333333337</ele><time>2026-05-03T11:34:00.177Z</time></trkpt><trkpt lat="41.6066834" lon="2.1119586"><ele>338.6666666666667</ele><time>2026-05-03T11:34:01.178Z</time></trkpt><trkpt lat="41.6065348" lon="2.111914"><ele>336.0</ele><time>2026-05-03T11:34:02.178Z</time></trkpt><trkpt lat="41.6063768" lon="2.1118698"><ele>336.0</ele><time>2026-05-03T11:34:03.177Z</time></trkpt><trkpt lat="41.6062102" lon="2.1118263"><ele>336.0</ele><time>2026-05-03T11:34:04.178Z</time></trkpt><trkpt lat="41.6060494" lon="2.1118027"><ele>336.0</ele><time>2026-05-03T11:34:05.177Z</time></trkpt><trkpt lat="41.6059074" lon="2.1117845"><ele>336.5</ele><time>2026-05-03T11:34:06.177Z</time></trkpt><trkpt lat="41.6057764" lon="2.1117918"><ele>337.0</ele><time>2026-05-03T11:34:07.178Z</time></trkpt><trkpt lat="41.6056418" lon="2.111811"><ele>337.5</ele><time>2026-05-03T11:34:08.178Z</time></trkpt><trkpt lat="41.6054878" lon="2.1118486"><ele>338.0</ele><time>2026-05-03T11:34:09.178Z</time></trkpt><trkpt lat="41.6053034" lon="2.1118864"><ele>336.33333333333337</ele><time>2026-05-03T11:34:10.178Z</time></trkpt><trkpt lat="41.6051078" lon="2.1119288"><ele>334.6666666666667</ele><time>2026-05-03T11:34:11.178Z</time></trkpt><trkpt lat="41.6049043" lon="2.1119687"><ele>333.0</ele><time>2026-05-03T11:34:12.178Z</time></trkpt><trkpt lat="41.6047017" lon="2.1119978"><ele>333.0</ele><time>2026-05-03T11:34:13.178Z</time></trkpt><trkpt lat="41.6045108" lon="2.1120193"><ele>333.0</ele><time>2026-05-03T11:34:14.178Z</time></trkpt><trkpt lat="41.604348" lon="2.1120482"><ele>333.0</ele><time>2026-05-03T11:34:15.178Z</time></trkpt><trkpt lat="41.6041928" lon="2.1120798"><ele>332.0</ele><time>2026-05-03T11:34:16.178Z</time></trkpt><trkpt lat="41.604045" lon="2.1121204"><ele>331.0</ele><time>2026-05-03T11:34:17.177Z</time></trkpt><trkpt lat="41.6039115" lon="2.1121663"><ele>330.0</ele><time>2026-05-03T11:34:18.178Z</time></trkpt><trkpt lat="41.6037893" lon="2.1122057"><ele>329.0</ele><time>2026-05-03T11:34:19.177Z</time></trkpt><trkpt lat="41.603674" lon="2.1122241"><ele>328.6</ele><time>2026-05-03T11:34:20.178Z</time></trkpt><trkpt lat="41.6035616" lon="2.1122245"><ele>328.2</ele><time>2026-05-03T11:34:21.178Z</time></trkpt><trkpt lat="41.6034423" lon="2.1121914"><ele>327.8</ele><time>2026-05-03T11:34:22.178Z</time></trkpt><trkpt lat="41.6033326" lon="2.1121621"><ele>327.40000000000003</ele><time>2026-05-03T11:34:23.178Z</time></trkpt><trkpt lat="41.6032382" lon="2.1121723"><ele>327.0</ele><time>2026-05-03T11:34:24.178Z</time></trkpt><trkpt lat="41.6031425" lon="2.1121982"><ele>327.0</ele><time>2026-05-03T11:34:25.178Z</time></trkpt><trkpt lat="41.6030334" lon="2.1122393"><ele>327.0</ele><time>2026-05-03T11:34:26.178Z</time></trkpt><trkpt lat="41.6029119" lon="2.1122797"><ele>327.0</ele><time>2026-05-03T11:34:27.178Z</time></trkpt><trkpt lat="41.6028006" lon="2.1123134"><ele>327.0</ele><time>2026-05-03T11:34:28.178Z</time></trkpt><trkpt lat="41.6026945" lon="2.1123321"><ele>327.75</ele><time>2026-05-03T11:34:29.178Z</time></trkpt><trkpt lat="41.602584" lon="2.1123316"><ele>328.5</ele><time>2026-05-03T11:34:30.178Z</time></trkpt><trkpt lat="41.6024621" lon="2.1123042"><ele>329.25</ele><time>2026-05-03T11:34:31.178Z</time></trkpt><trkpt lat="41.6023414" lon="2.112268"><ele>330.0</ele><time>2026-05-03T11:34:32.178Z</time></trkpt><trkpt lat="41.6022285" lon="2.1122386"><ele>330.0</ele><time>2026-05-03T11:34:33.178Z</time></trkpt><trkpt lat="41.6021257" lon="2.1122171"><ele>330.0</ele><time>2026-05-03T11:34:34.177Z</time></trkpt><trkpt lat="41.6020229" lon="2.1121987"><ele>330.0</ele><time>2026-05-03T11:34:35.178Z</time></trkpt><trkpt lat="41.6019151" lon="2.1121523"><ele>330.0</ele><time>2026-05-03T11:34:36.178Z</time></trkpt><trkpt lat="41.6018055" lon="2.1120768"><ele>330.0</ele><time>2026-05-03T11:34:37.177Z</time></trkpt><trkpt lat="41.6016858" lon="2.1119881"><ele>332.0</ele><time>2026-05-03T11:34:38.177Z</time></trkpt><trkpt lat="41.6015692" lon="2.1118822"><ele>334.0</ele><time>2026-05-03T11:34:39.177Z</time></trkpt><trkpt lat="41.6014331" lon="2.1117567"><ele>336.0</ele><time>2026-05-03T11:34:40.178Z</time></trkpt><trkpt lat="41.6012875" lon="2.1116246"><ele>333.75</ele><time>2026-05-03T11:34:41.178Z</time></trkpt><trkpt lat="41.6011675" lon="2.1115124"><ele>331.5</ele><time>2026-05-03T11:34:42.178Z</time></trkpt><trkpt lat="41.6010736" lon="2.1114252"><ele>329.25</ele><time>2026-05-03T11:34:43.178Z</time></trkpt><trkpt lat="41.600984" lon="2.1113743"><ele>327.0</ele><time>2026-05-03T11:34:44.178Z</time></trkpt><trkpt lat="41.6008845" lon="2.1113522"><ele>326.5</ele><time>2026-05-03T11:34:45.178Z</time></trkpt><trkpt lat="41.6007759" lon="2.1113496"><ele>326.0</ele><time>2026-05-03T11:34:46.178Z</time></trkpt><trkpt lat="41.6006606" lon="2.1113375"><ele>325.5</ele><time>2026-05-03T11:34:47.177Z</time></trkpt><trkpt lat="41.6005377" lon="2.1113179"><ele>325.0</ele><time>2026-05-03T11:34:48.178Z</time></trkpt><trkpt lat="41.6004079" lon="2.1112921"><ele>323.66666666666663</ele><time>2026-05-03T11:34:49.178Z</time></trkpt><trkpt lat="41.6002616" lon="2.111278"><ele>322.3333333333333</ele><time>2026-05-03T11:34:50.178Z</time></trkpt><trkpt lat="41.6001035" lon="2.1112631"><ele>321.0</ele><time>2026-05-03T11:34:51.177Z</time></trkpt><trkpt lat="41.5999512" lon="2.111253"><ele>321.0</ele><time>2026-05-03T11:34:52.178Z</time></trkpt><trkpt lat="41.599796" lon="2.111268"><ele>321.0</ele><time>2026-05-03T11:34:53.178Z</time></trkpt><trkpt lat="41.5996286" lon="2.111296"><ele>321.0</ele><time>2026-05-03T11:34:54.177Z</time></trkpt><trkpt lat="41.5994611" lon="2.1113335"><ele>320.3333333333333</ele><time>2026-05-03T11:34:55.177Z</time></trkpt><trkpt lat="41.5992972" lon="2.1113551"><ele>319.66666666666663</ele><time>2026-05-03T11:34:56.178Z</time></trkpt><trkpt lat="41.5991305" lon="2.1113629"><ele>319.0</ele><time>2026-05-03T11:34:57.178Z</time></trkpt><trkpt lat="41.5989707" lon="2.1113749"><ele>319.0</ele><time>2026-05-03T11:34:58.178Z</time></trkpt><trkpt lat="41.5988206" lon="2.1113992"><ele>319.0</ele><time>2026-05-03T11:34:59.178Z</time></trkpt><trkpt lat="41.5986648" lon="2.1114141"><ele>319.0</ele><time>2026-05-03T11:35:00.178Z</time></trkpt><trkpt lat="41.5985094" lon="2.1114312"><ele>318.0</ele><time>2026-05-03T11:35:01.178Z</time></trkpt><trkpt lat="41.5983612" lon="2.1114546"><ele>317.0</ele><time>2026-05-03T11:35:02.178Z</time></trkpt><trkpt lat="41.598227" lon="2.1114874"><ele>316.0</ele><time>2026-05-03T11:35:03.178Z</time></trkpt><trkpt lat="41.598099" lon="2.1115238"><ele>315.0</ele><time>2026-05-03T11:35:04.178Z</time></trkpt><trkpt lat="41.5979733" lon="2.1115664"><ele>315.25</ele><time>2026-05-03T11:35:05.177Z</time></trkpt><trkpt lat="41.5978491" lon="2.111611"><ele>315.5</ele><time>2026-05-03T11:35:06.178Z</time></trkpt><trkpt lat="41.5977331" lon="2.1116439"><ele>315.75</ele><time>2026-05-03T11:35:07.178Z</time></trkpt><trkpt lat="41.5976259" lon="2.1116785"><ele>316.0</ele><time>2026-05-03T11:35:08.178Z</time></trkpt><trkpt lat="41.5975263" lon="2.1117115"><ele>316.0</ele><time>2026-05-03T11:35:09.177Z</time></trkpt><trkpt lat="41.5974251" lon="2.1117372"><ele>316.0</ele><time>2026-05-03T11:35:10.178Z</time></trkpt><trkpt lat="41.597331" lon="2.1117485"><ele>316.0</ele><time>2026-05-03T11:35:11.178Z</time></trkpt><trkpt lat="41.597236" lon="2.1117386"><ele>316.0</ele><time>2026-05-03T11:35:12.177Z</time></trkpt><trkpt lat="41.5971277" lon="2.1117313"><ele>316.0</ele><time>2026-05-03T11:35:13.178Z</time></trkpt><trkpt lat="41.5970211" lon="2.1117177"><ele>315.0</ele><time>2026-05-03T11:35:14.178Z</time></trkpt><trkpt lat="41.596903" lon="2.1117062"><ele>314.0</ele><time>2026-05-03T11:35:15.178Z</time></trkpt><trkpt lat="41.5967846" lon="2.1116811"><ele>313.0</ele><time>2026-05-03T11:35:16.178Z</time></trkpt><trkpt lat="41.5966654" lon="2.1116272"><ele>312.0</ele><time>2026-05-03T11:35:17.177Z</time></trkpt><trkpt lat="41.5965495" lon="2.1115613"><ele>310.0</ele><time>2026-05-03T11:35:18.177Z</time></trkpt><trkpt lat="41.5964452" lon="2.1114977"><ele>308.0</ele><time>2026-05-03T11:35:19.178Z</time></trkpt><trkpt lat="41.5963431" lon="2.1114496"><ele>306.0</ele><time>2026-05-03T11:35:20.177Z</time></trkpt><trkpt lat="41.5962558" lon="2.1114126"><ele>304.0</ele><time>2026-05-03T11:35:21.178Z</time></trkpt><trkpt lat="41.5961914" lon="2.1113844"><ele>302.0</ele><time>2026-05-03T11:35:22.177Z</time></trkpt><trkpt lat="41.5960693" lon="2.1113698"><ele>301.6666666666667</ele><time>2026-05-03T11:35:24.178Z</time></trkpt><trkpt lat="41.596004" lon="2.1114026"><ele>301.33333333333337</ele><time>2026-05-03T11:35:25.177Z</time></trkpt><trkpt lat="41.595946" lon="2.1114455"><ele>301.0</ele><time>2026-05-03T11:35:26.177Z</time></trkpt><trkpt lat="41.5958813" lon="2.1115003"><ele>300.6666666666667</ele><time>2026-05-03T11:35:27.177Z</time></trkpt><trkpt lat="41.5958132" lon="2.1115375"><ele>300.3333333333333</ele><time>2026-05-03T11:35:28.178Z</time></trkpt><trkpt lat="41.5957225" lon="2.1115475"><ele>300.0</ele><time>2026-05-03T11:35:29.178Z</time></trkpt><trkpt lat="41.5956111" lon="2.1115352"><ele>300.0</ele><time>2026-05-03T11:35:30.178Z</time></trkpt><trkpt lat="41.5954844" lon="2.111499"><ele>300.0</ele><time>2026-05-03T11:35:31.178Z</time></trkpt><trkpt lat="41.5953441" lon="2.1114563"><ele>300.0</ele><time>2026-05-03T11:35:32.177Z</time></trkpt><trkpt lat="41.595197" lon="2.1114164"><ele>300.0</ele><time>2026-05-03T11:35:33.178Z</time></trkpt><trkpt lat="41.5950386" lon="2.1113943"><ele>300.0</ele><time>2026-05-03T11:35:34.178Z</time></trkpt><trkpt lat="41.5948666" lon="2.1113914"><ele>300.0</ele><time>2026-05-03T11:35:35.178Z</time></trkpt><trkpt lat="41.5946983" lon="2.1114048"><ele>300.0</ele><time>2026-05-03T11:35:36.178Z</time></trkpt><trkpt lat="41.5945401" lon="2.111421"><ele>300.6666666666667</ele><time>2026-05-03T11:35:37.178Z</time></trkpt><trkpt lat="41.5943854" lon="2.1114401"><ele>301.33333333333337</ele><time>2026-05-03T11:35:38.177Z</time></trkpt><trkpt lat="41.5942258" lon="2.1114474"><ele>302.0</ele><time>2026-05-03T11:35:39.177Z</time></trkpt><trkpt lat="41.5940645" lon="2.1114577"><ele>302.0</ele><time>2026-05-03T11:35:40.178Z</time></trkpt><trkpt lat="41.5939028" lon="2.1114803"><ele>302.0</ele><time>2026-05-03T11:35:41.178Z</time></trkpt><trkpt lat="41.5937543" lon="2.1115237"><ele>302.0</ele><time>2026-05-03T11:35:42.178Z</time></trkpt><trkpt lat="41.5936203" lon="2.1115695"><ele>301.8</ele><time>2026-05-03T11:35:43.177Z</time></trkpt><trkpt lat="41.593508" lon="2.1116058"><ele>301.6</ele><time>2026-05-03T11:35:44.178Z</time></trkpt><trkpt lat="41.593416" lon="2.1116258"><ele>301.40000000000003</ele><time>2026-05-03T11:35:45.178Z</time></trkpt><trkpt lat="41.5933145" lon="2.1116296"><ele>301.2</ele><time>2026-05-03T11:35:46.177Z</time></trkpt><trkpt lat="41.5931893" lon="2.1116285"><ele>301.0</ele><time>2026-05-03T11:35:47.178Z</time></trkpt><trkpt lat="41.593054" lon="2.1116379"><ele>301.0</ele><time>2026-05-03T11:35:48.178Z</time></trkpt><trkpt lat="41.5929139" lon="2.1116714"><ele>301.0</ele><time>2026-05-03T11:35:49.178Z</time></trkpt><trkpt lat="41.5927642" lon="2.1117269"><ele>301.0</ele><time>2026-05-03T11:35:50.178Z</time></trkpt><trkpt lat="41.5925967" lon="2.1118089"><ele>300.3333333333333</ele><time>2026-05-03T11:35:51.178Z</time></trkpt><trkpt lat="41.5924228" lon="2.1118959"><ele>299.6666666666667</ele><time>2026-05-03T11:35:52.178Z</time></trkpt><trkpt lat="41.5922623" lon="2.1119798"><ele>299.0</ele><time>2026-05-03T11:35:53.177Z</time></trkpt><trkpt lat="41.5921256" lon="2.1120541"><ele>299.0</ele><time>2026-05-03T11:35:54.178Z</time></trkpt><trkpt lat="41.592012" lon="2.1121115"><ele>299.0</ele><time>2026-05-03T11:35:55.178Z</time></trkpt><trkpt lat="41.5919108" lon="2.1121569"><ele>299.0</ele><time>2026-05-03T11:35:56.177Z</time></trkpt><trkpt lat="41.5918085" lon="2.1121798"><ele>299.0</ele><time>2026-05-03T11:35:57.178Z</time></trkpt><trkpt lat="41.5917034" lon="2.1121682"><ele>299.0</ele><time>2026-05-03T11:35:58.177Z</time></trkpt><trkpt lat="41.5915966" lon="2.1121326"><ele>298.4</ele><time>2026-05-03T11:35:59.178Z</time></trkpt><trkpt lat="41.5914951" lon="2.1120945"><ele>297.79999999999995</ele><time>2026-05-03T11:36:00.177Z</time></trkpt><trkpt lat="41.5913982" lon="2.1120859"><ele>297.20000000000005</ele><time>2026-05-03T11:36:01.178Z</time></trkpt><trkpt lat="41.5912856" lon="2.1121124"><ele>296.6</ele><time>2026-05-03T11:36:02.177Z</time></trkpt><trkpt lat="41.5911575" lon="2.1121555"><ele>296.0</ele><time>2026-05-03T11:36:03.177Z</time></trkpt><trkpt lat="41.5910397" lon="2.1122094"><ele>296.0</ele><time>2026-05-03T11:36:04.177Z</time></trkpt><trkpt lat="41.590928" lon="2.1122554"><ele>296.0</ele><time>2026-05-03T11:36:05.178Z</time></trkpt><trkpt lat="41.5908122" lon="2.1122882"><ele>296.0</ele><time>2026-05-03T11:36:06.178Z</time></trkpt><trkpt lat="41.5907007" lon="2.1122968"><ele>296.0</ele><time>2026-05-03T11:36:07.177Z</time></trkpt><trkpt lat="41.5905819" lon="2.1122981"><ele>296.0</ele><time>2026-05-03T11:36:08.177Z</time></trkpt><trkpt lat="41.5904688" lon="2.1122875"><ele>296.0</ele><time>2026-05-03T11:36:09.178Z</time></trkpt><trkpt lat="41.590372" lon="2.1122557"><ele>296.0</ele><time>2026-05-03T11:36:10.177Z</time></trkpt><trkpt lat="41.5902824" lon="2.1122052"><ele>296.0</ele><time>2026-05-03T11:36:11.177Z</time></trkpt><trkpt lat="41.5901976" lon="2.1121438"><ele>296.0</ele><time>2026-05-03T11:36:12.178Z</time></trkpt><trkpt lat="41.5901242" lon="2.1120701"><ele>294.83333333333337</ele><time>2026-05-03T11:36:13.178Z</time></trkpt><trkpt lat="41.5900603" lon="2.1119996"><ele>293.6666666666667</ele><time>2026-05-03T11:36:14.178Z</time></trkpt><trkpt lat="41.5899951" lon="2.1119415"><ele>292.5</ele><time>2026-05-03T11:36:15.177Z</time></trkpt><trkpt lat="41.5899205" lon="2.1119063"><ele>291.3333333333333</ele><time>2026-05-03T11:36:16.178Z</time></trkpt><trkpt lat="41.5898484" lon="2.1118877"><ele>290.16666666666663</ele><time>2026-05-03T11:36:17.178Z</time></trkpt><trkpt lat="41.5897746" lon="2.1118903"><ele>289.0</ele><time>2026-05-03T11:36:18.177Z</time></trkpt><trkpt lat="41.5897105" lon="2.1119038"><ele>289.0</ele><time>2026-05-03T11:36:19.178Z</time></trkpt><trkpt lat="41.5896411" lon="2.1119258"><ele>289.0</ele><time>2026-05-03T11:36:20.177Z</time></trkpt><trkpt lat="41.589561" lon="2.1119267"><ele>289.0</ele><time>2026-05-03T11:36:21.178Z</time></trkpt><trkpt lat="41.5894576" lon="2.1118869"><ele>289.0</ele><time>2026-05-03T11:36:22.178Z</time></trkpt><trkpt lat="41.5893477" lon="2.1118203"><ele>289.0</ele><time>2026-05-03T11:36:23.178Z</time></trkpt><trkpt lat="41.5892357" lon="2.1117645"><ele>288.8</ele><time>2026-05-03T11:36:24.178Z</time></trkpt><trkpt lat="41.5891279" lon="2.1117207"><ele>288.59999999999997</ele><time>2026-05-03T11:36:25.178Z</time></trkpt><trkpt lat="41.5890306" lon="2.1116787"><ele>288.4</ele><time>2026-05-03T11:36:26.177Z</time></trkpt><trkpt lat="41.5889339" lon="2.1116413"><ele>288.2</ele><time>2026-05-03T11:36:27.178Z</time></trkpt><trkpt lat="41.5888374" lon="2.1116088"><ele>288.0</ele><time>2026-05-03T11:36:28.178Z</time></trkpt><trkpt lat="41.5887485" lon="2.1115751"><ele>286.4</ele><time>2026-05-03T11:36:29.177Z</time></trkpt><trkpt lat="41.5886657" lon="2.1115418"><ele>284.8</ele><time>2026-05-03T11:36:30.178Z</time></trkpt><trkpt lat="41.5885785" lon="2.1115167"><ele>283.2</ele><time>2026-05-03T11:36:31.178Z</time></trkpt><trkpt lat="41.5884729" lon="2.1114908"><ele>281.6</ele><time>2026-05-03T11:36:32.178Z</time></trkpt><trkpt lat="41.5883417" lon="2.1114732"><ele>280.0</ele><time>2026-05-03T11:36:33.178Z</time></trkpt><trkpt lat="41.5882014" lon="2.1114594"><ele>280.0</ele><time>2026-05-03T11:36:34.178Z</time></trkpt><trkpt lat="41.5880497" lon="2.1114412"><ele>280.0</ele><time>2026-05-03T11:36:35.178Z</time></trkpt><trkpt lat="41.5878932" lon="2.1114411"><ele>280.0</ele><time>2026-05-03T11:36:36.178Z</time></trkpt><trkpt lat="41.5877356" lon="2.1114503"><ele>278.3333333333333</ele><time>2026-05-03T11:36:37.177Z</time></trkpt><trkpt lat="41.5875578" lon="2.1114615"><ele>276.6666666666667</ele><time>2026-05-03T11:36:38.178Z</time></trkpt><trkpt lat="41.5873687" lon="2.111471"><ele>275.0</ele><time>2026-05-03T11:36:39.178Z</time></trkpt><trkpt lat="41.5871698" lon="2.1114792"><ele>272.6666666666667</ele><time>2026-05-03T11:36:40.177Z</time></trkpt><trkpt lat="41.5869827" lon="2.1114858"><ele>270.3333333333333</ele><time>2026-05-03T11:36:41.178Z</time></trkpt><trkpt lat="41.5868082" lon="2.1114895"><ele>268.0</ele><time>2026-05-03T11:36:42.178Z</time></trkpt><trkpt lat="41.5866366" lon="2.1114896"><ele>268.0</ele><time>2026-05-03T11:36:43.178Z</time></trkpt><trkpt lat="41.5864674" lon="2.1114973"><ele>268.0</ele><time>2026-05-03T11:36:44.178Z</time></trkpt><trkpt lat="41.5862995" lon="2.1115213"><ele>268.0</ele><time>2026-05-03T11:36:45.177Z</time></trkpt><trkpt lat="41.5861473" lon="2.1115535"><ele>268.0</ele><time>2026-05-03T11:36:46.178Z</time></trkpt><trkpt lat="41.5860086" lon="2.1115825"><ele>268.0</ele><time>2026-05-03T11:36:47.178Z</time></trkpt><trkpt lat="41.5858786" lon="2.1116"><ele>268.0</ele><time>2026-05-03T11:36:48.178Z</time></trkpt><trkpt lat="41.5857385" lon="2.1115979"><ele>268.0</ele><time>2026-05-03T11:36:49.178Z</time></trkpt><trkpt lat="41.5856134" lon="2.1115805"><ele>266.5</ele><time>2026-05-03T11:36:50.178Z</time></trkpt><trkpt lat="41.5854924" lon="2.1115523"><ele>265.0</ele><time>2026-05-03T11:36:51.177Z</time></trkpt><trkpt lat="41.5853717" lon="2.1115395"><ele>263.5</ele><time>2026-05-03T11:36:52.178Z</time></trkpt><trkpt lat="41.5852552" lon="2.1115397"><ele>262.0</ele><time>2026-05-03T11:36:53.178Z</time></trkpt><trkpt lat="41.585135" lon="2.1115447"><ele>262.25</ele><time>2026-05-03T11:36:54.178Z</time></trkpt><trkpt lat="41.5850153" lon="2.1115657"><ele>262.5</ele><time>2026-05-03T11:36:55.178Z</time></trkpt><trkpt lat="41.5848946" lon="2.1116055"><ele>262.75</ele><time>2026-05-03T11:36:56.178Z</time></trkpt><trkpt lat="41.5847719" lon="2.1116445"><ele>263.0</ele><time>2026-05-03T11:36:57.177Z</time></trkpt><trkpt lat="41.5846347" lon="2.1116825"><ele>262.25</ele><time>2026-05-03T11:36:58.177Z</time></trkpt><trkpt lat="41.5844894" lon="2.1117287"><ele>261.5</ele><time>2026-05-03T11:36:59.178Z</time></trkpt><trkpt lat="41.584347" lon="2.1117766"><ele>260.75</ele><time>2026-05-03T11:37:00.178Z</time></trkpt><trkpt lat="41.5842249" lon="2.1118229"><ele>260.0</ele><time>2026-05-03T11:37:01.178Z</time></trkpt><trkpt lat="41.5841033" lon="2.1118874"><ele>260.0</ele><time>2026-05-03T11:37:02.178Z</time></trkpt><trkpt lat="41.5839773" lon="2.111956"><ele>260.0</ele><time>2026-05-03T11:37:03.178Z</time></trkpt><trkpt lat="41.5838422" lon="2.112021"><ele>260.0</ele><time>2026-05-03T11:37:04.178Z</time></trkpt><trkpt lat="41.5837" lon="2.112088"><ele>260.0</ele><time>2026-05-03T11:37:05.178Z</time></trkpt><trkpt lat="41.5835731" lon="2.1121479"><ele>260.0</ele><time>2026-05-03T11:37:06.182Z</time></trkpt><trkpt lat="41.5834513" lon="2.1122083"><ele>260.0</ele><time>2026-05-03T11:37:07.182Z</time></trkpt><trkpt lat="41.5833336" lon="2.1122642"><ele>260.0</ele><time>2026-05-03T11:37:08.182Z</time></trkpt><trkpt lat="41.5832139" lon="2.1123134"><ele>260.0</ele><time>2026-05-03T11:37:09.181Z</time></trkpt><trkpt lat="41.5830831" lon="2.1123711"><ele>261.0</ele><time>2026-05-03T11:37:10.182Z</time></trkpt><trkpt lat="41.5829531" lon="2.1124409"><ele>262.0</ele><time>2026-05-03T11:37:11.182Z</time></trkpt><trkpt lat="41.5828075" lon="2.1125215"><ele>263.0</ele><time>2026-05-03T11:37:12.182Z</time></trkpt><trkpt lat="41.582661" lon="2.1126004"><ele>261.5</ele><time>2026-05-03T11:37:13.182Z</time></trkpt><trkpt lat="41.5825221" lon="2.1126805"><ele>260.0</ele><time>2026-05-03T11:37:14.182Z</time></trkpt><trkpt lat="41.5823865" lon="2.1127583"><ele>258.5</ele><time>2026-05-03T11:37:15.181Z</time></trkpt><trkpt lat="41.5822483" lon="2.112822"><ele>257.0</ele><time>2026-05-03T11:37:16.182Z</time></trkpt><trkpt lat="41.5821196" lon="2.1128725"><ele>256.0</ele><time>2026-05-03T11:37:17.182Z</time></trkpt><trkpt lat="41.5820015" lon="2.1129159"><ele>255.0</ele><time>2026-05-03T11:37:18.182Z</time></trkpt><trkpt lat="41.5818838" lon="2.1129661"><ele>254.0</ele><time>2026-05-03T11:37:19.182Z</time></trkpt><trkpt lat="41.5817794" lon="2.1130278"><ele>253.0</ele><time>2026-05-03T11:37:20.182Z</time></trkpt><trkpt lat="41.5816809" lon="2.1130786"><ele>253.0</ele><time>2026-05-03T11:37:21.182Z</time></trkpt><trkpt lat="41.5815944" lon="2.1131186"><ele>253.0</ele><time>2026-05-03T11:37:22.182Z</time></trkpt><trkpt lat="41.5815034" lon="2.1131333"><ele>253.0</ele><time>2026-05-03T11:37:23.182Z</time></trkpt><trkpt lat="41.5814115" lon="2.1131438"><ele>253.0</ele><time>2026-05-03T11:37:24.182Z</time></trkpt><trkpt lat="41.5813283" lon="2.1131612"><ele>253.0</ele><time>2026-05-03T11:37:25.181Z</time></trkpt><trkpt lat="41.5812412" lon="2.1131967"><ele>252.0</ele><time>2026-05-03T11:37:26.182Z</time></trkpt><trkpt lat="41.5811409" lon="2.1132649"><ele>251.0</ele><time>2026-05-03T11:37:27.181Z</time></trkpt><trkpt lat="41.581036" lon="2.1133598"><ele>250.0</ele><time>2026-05-03T11:37:28.182Z</time></trkpt><trkpt lat="41.5809224" lon="2.1134462"><ele>249.0</ele><time>2026-05-03T11:37:29.182Z</time></trkpt><trkpt lat="41.5807963" lon="2.1135188"><ele>249.0</ele><time>2026-05-03T11:37:30.182Z</time></trkpt><trkpt lat="41.5806623" lon="2.1135948"><ele>249.0</ele><time>2026-05-03T11:37:31.181Z</time></trkpt><trkpt lat="41.580523" lon="2.11366"><ele>249.0</ele><time>2026-05-03T11:37:32.182Z</time></trkpt><trkpt lat="41.5803906" lon="2.113726"><ele>249.0</ele><time>2026-05-03T11:37:33.182Z</time></trkpt><trkpt lat="41.5802467" lon="2.1137809"><ele>247.5</ele><time>2026-05-03T11:37:34.181Z</time></trkpt><trkpt lat="41.5801125" lon="2.1138106"><ele>246.0</ele><time>2026-05-03T11:37:35.182Z</time></trkpt><trkpt lat="41.5799773" lon="2.1138327"><ele>244.5</ele><time>2026-05-03T11:37:36.182Z</time></trkpt><trkpt lat="41.5798294" lon="2.1138638"><ele>243.0</ele><time>2026-05-03T11:37:37.182Z</time></trkpt><trkpt lat="41.5796754" lon="2.1139108"><ele>243.0</ele><time>2026-05-03T11:37:38.182Z</time></trkpt><trkpt lat="41.5795273" lon="2.113974"><ele>243.0</ele><time>2026-05-03T11:37:39.182Z</time></trkpt><trkpt lat="41.5793886" lon="2.1140314"><ele>243.0</ele><time>2026-05-03T11:37:40.182Z</time></trkpt><trkpt lat="41.5792624" lon="2.1140843"><ele>243.0</ele><time>2026-05-03T11:37:41.182Z</time></trkpt><trkpt lat="41.5791561" lon="2.1141358"><ele>244.0</ele><time>2026-05-03T11:37:42.182Z</time></trkpt><trkpt lat="41.5790657" lon="2.1141889"><ele>245.0</ele><time>2026-05-03T11:37:43.182Z</time></trkpt><trkpt lat="41.5789825" lon="2.1142418"><ele>246.0</ele><time>2026-05-03T11:37:44.182Z</time></trkpt><trkpt lat="41.578894" lon="2.1142762"><ele>247.0</ele><time>2026-05-03T11:37:45.181Z</time></trkpt><trkpt lat="41.5787955" lon="2.1143001"><ele>248.0</ele><time>2026-05-03T11:37:46.181Z</time></trkpt><trkpt lat="41.5786956" lon="2.1142722"><ele>244.5</ele><time>2026-05-03T11:37:47.182Z</time></trkpt><trkpt lat="41.5785851" lon="2.114248"><ele>241.0</ele><time>2026-05-03T11:37:48.182Z</time></trkpt><trkpt lat="41.5784688" lon="2.114236"><ele>237.5</ele><time>2026-05-03T11:37:49.182Z</time></trkpt><trkpt lat="41.5783471" lon="2.1142592"><ele>234.0</ele><time>2026-05-03T11:37:50.182Z</time></trkpt><trkpt lat="41.5782332" lon="2.1143154"><ele>234.0</ele><time>2026-05-03T11:37:51.182Z</time></trkpt><trkpt lat="41.5781451" lon="2.1144078"><ele>233.99999999999997</ele><time>2026-05-03T11:37:52.181Z</time></trkpt><trkpt lat="41.578067" lon="2.1145019"><ele>233.99999999999997</ele><time>2026-05-03T11:37:53.182Z</time></trkpt><trkpt lat="41.5780025" lon="2.1145941"><ele>234.0</ele><time>2026-05-03T11:37:54.182Z</time></trkpt><trkpt lat="41.5779454" lon="2.114669"><ele>234.0</ele><time>2026-05-03T11:37:55.182Z</time></trkpt><trkpt lat="41.5778801" lon="2.1147377"><ele>234.0</ele><time>2026-05-03T11:37:56.182Z</time></trkpt><trkpt lat="41.5778049" lon="2.1147942"><ele>233.99999999999997</ele><time>2026-05-03T11:37:57.181Z</time></trkpt><trkpt lat="41.5777172" lon="2.1148372"><ele>233.99999999999997</ele><time>2026-05-03T11:37:58.181Z</time></trkpt><trkpt lat="41.5776171" lon="2.1148625"><ele>234.0</ele><time>2026-05-03T11:37:59.181Z</time></trkpt><trkpt lat="41.5774982" lon="2.1148967"><ele>234.0</ele><time>2026-05-03T11:38:00.182Z</time></trkpt><trkpt lat="41.5773601" lon="2.1149379"><ele>234.0</ele><time>2026-05-03T11:38:01.182Z</time></trkpt><trkpt lat="41.5772121" lon="2.1149726"><ele>234.0</ele><time>2026-05-03T11:38:02.181Z</time></trkpt><trkpt lat="41.5770648" lon="2.1150186"><ele>234.0</ele><time>2026-05-03T11:38:03.181Z</time></trkpt><trkpt lat="41.5769211" lon="2.1150785"><ele>233.5</ele><time>2026-05-03T11:38:04.182Z</time></trkpt><trkpt lat="41.5767973" lon="2.1151498"><ele>233.0</ele><time>2026-05-03T11:38:05.182Z</time></trkpt><trkpt lat="41.5766858" lon="2.1152117"><ele>232.5</ele><time>2026-05-03T11:38:06.182Z</time></trkpt><trkpt lat="41.5765816" lon="2.1152592"><ele>232.0</ele><time>2026-05-03T11:38:07.182Z</time></trkpt><trkpt lat="41.5764861" lon="2.1152942"><ele>232.0</ele><time>2026-05-03T11:38:08.182Z</time></trkpt><trkpt lat="41.5763731" lon="2.115318"><ele>232.0</ele><time>2026-05-03T11:38:09.182Z</time></trkpt><trkpt lat="41.5762406" lon="2.115342"><ele>232.0</ele><time>2026-05-03T11:38:10.181Z</time></trkpt><trkpt lat="41.5761024" lon="2.1153592"><ele>232.0</ele><time>2026-05-03T11:38:11.182Z</time></trkpt><trkpt lat="41.5759581" lon="2.1153801"><ele>232.66666666666666</ele><time>2026-05-03T11:38:12.181Z</time></trkpt><trkpt lat="41.5758025" lon="2.1154062"><ele>233.33333333333331</ele><time>2026-05-03T11:38:13.182Z</time></trkpt><trkpt lat="41.5756477" lon="2.1154355"><ele>234.0</ele><time>2026-05-03T11:38:14.182Z</time></trkpt><trkpt lat="41.5755068" lon="2.1154673"><ele>234.0</ele><time>2026-05-03T11:38:15.182Z</time></trkpt><trkpt lat="41.5753823" lon="2.115502"><ele>234.0</ele><time>2026-05-03T11:38:16.182Z</time></trkpt><trkpt lat="41.5752731" lon="2.1155371"><ele>234.0</ele><time>2026-05-03T11:38:17.182Z</time></trkpt><trkpt lat="41.5751673" lon="2.1155707"><ele>234.0</ele><time>2026-05-03T11:38:18.182Z</time></trkpt><trkpt lat="41.575047" lon="2.1155961"><ele>233.66666666666669</ele><time>2026-05-03T11:38:19.182Z</time></trkpt><trkpt lat="41.5749126" lon="2.1156023"><ele>233.33333333333334</ele><time>2026-05-03T11:38:20.182Z</time></trkpt><trkpt lat="41.5747584" lon="2.1156023"><ele>233.0</ele><time>2026-05-03T11:38:21.182Z</time></trkpt><trkpt lat="41.5745937" lon="2.1156194"><ele>231.33333333333334</ele><time>2026-05-03T11:38:22.182Z</time></trkpt><trkpt lat="41.5744261" lon="2.1156401"><ele>229.66666666666669</ele><time>2026-05-03T11:38:23.182Z</time></trkpt><trkpt lat="41.5742693" lon="2.1156691"><ele>228.0</ele><time>2026-05-03T11:38:24.181Z</time></trkpt><trkpt lat="41.5741324" lon="2.1156989"><ele>228.75</ele><time>2026-05-03T11:38:25.181Z</time></trkpt><trkpt lat="41.5740055" lon="2.1157386"><ele>229.5</ele><time>2026-05-03T11:38:26.181Z</time></trkpt><trkpt lat="41.5738853" lon="2.1157962"><ele>230.25</ele><time>2026-05-03T11:38:27.182Z</time></trkpt><trkpt lat="41.5737601" lon="2.1158721"><ele>231.0</ele><time>2026-05-03T11:38:28.182Z</time></trkpt><trkpt lat="41.5736286" lon="2.1159559"><ele>231.0</ele><time>2026-05-03T11:38:29.182Z</time></trkpt><trkpt lat="41.5734901" lon="2.1160381"><ele>231.0</ele><time>2026-05-03T11:38:30.181Z</time></trkpt><trkpt lat="41.5733483" lon="2.1161087"><ele>231.0</ele><time>2026-05-03T11:38:31.181Z</time></trkpt><trkpt lat="41.5732046" lon="2.1161777"><ele>231.0</ele><time>2026-05-03T11:38:32.181Z</time></trkpt><trkpt lat="41.5730639" lon="2.1162405"><ele>231.0</ele><time>2026-05-03T11:38:33.181Z</time></trkpt><trkpt lat="41.572934" lon="2.1163009"><ele>231.0</ele><time>2026-05-03T11:38:34.182Z</time></trkpt><trkpt lat="41.5728014" lon="2.1163574"><ele>231.0</ele><time>2026-05-03T11:38:35.181Z</time></trkpt><trkpt lat="41.5726695" lon="2.1164069"><ele>231.0</ele><time>2026-05-03T11:38:36.181Z</time></trkpt><trkpt lat="41.5725406" lon="2.116443"><ele>231.0</ele><time>2026-05-03T11:38:37.181Z</time></trkpt><trkpt lat="41.572417" lon="2.1164812"><ele>231.0</ele><time>2026-05-03T11:38:38.182Z</time></trkpt><trkpt lat="41.5722942" lon="2.1165371"><ele>231.0</ele><time>2026-05-03T11:38:39.181Z</time></trkpt><trkpt lat="41.5721603" lon="2.1166094"><ele>231.33333333333331</ele><time>2026-05-03T11:38:40.182Z</time></trkpt><trkpt lat="41.5720122" lon="2.1166813"><ele>231.66666666666666</ele><time>2026-05-03T11:38:41.182Z</time></trkpt><trkpt lat="41.5718649" lon="2.116751"><ele>232.0</ele><time>2026-05-03T11:38:42.182Z</time></trkpt><trkpt lat="41.571734" lon="2.1168109"><ele>232.0</ele><time>2026-05-03T11:38:43.182Z</time></trkpt><trkpt lat="41.5716124" lon="2.1168794"><ele>232.0</ele><time>2026-05-03T11:38:44.182Z</time></trkpt><trkpt lat="41.5714919" lon="2.1169596"><ele>232.0</ele><time>2026-05-03T11:38:45.181Z</time></trkpt><trkpt lat="41.5713576" lon="2.1170582"><ele>232.0</ele><time>2026-05-03T11:38:46.182Z</time></trkpt><trkpt lat="41.5712212" lon="2.1171482"><ele>232.0</ele><time>2026-05-03T11:38:47.182Z</time></trkpt><trkpt lat="41.5710906" lon="2.117242"><ele>232.0</ele><time>2026-05-03T11:38:48.182Z</time></trkpt><trkpt lat="41.5709585" lon="2.1173372"><ele>232.0</ele><time>2026-05-03T11:38:49.181Z</time></trkpt><trkpt lat="41.5708331" lon="2.1174342"><ele>232.0</ele><time>2026-05-03T11:38:50.181Z</time></trkpt><trkpt lat="41.5707189" lon="2.1175252"><ele>232.0</ele><time>2026-05-03T11:38:51.181Z</time></trkpt><trkpt lat="41.5706047" lon="2.1176139"><ele>232.0</ele><time>2026-05-03T11:38:52.182Z</time></trkpt><trkpt lat="41.5704897" lon="2.1177072"><ele>232.0</ele><time>2026-05-03T11:38:53.182Z</time></trkpt><trkpt lat="41.570364" lon="2.1178024"><ele>232.0</ele><time>2026-05-03T11:38:54.181Z</time></trkpt><trkpt lat="41.5702196" lon="2.117911"><ele>231.0</ele><time>2026-05-03T11:38:55.182Z</time></trkpt><trkpt lat="41.5700727" lon="2.1180287"><ele>230.0</ele><time>2026-05-03T11:38:56.181Z</time></trkpt><trkpt lat="41.5699234" lon="2.1181586"><ele>229.0</ele><time>2026-05-03T11:38:57.181Z</time></trkpt><trkpt lat="41.5697735" lon="2.1182925"><ele>229.0</ele><time>2026-05-03T11:38:58.182Z</time></trkpt><trkpt lat="41.5696255" lon="2.1184259"><ele>229.0</ele><time>2026-05-03T11:38:59.182Z</time></trkpt><trkpt lat="41.5694814" lon="2.1185533"><ele>229.0</ele><time>2026-05-03T11:39:00.182Z</time></trkpt><trkpt lat="41.5693488" lon="2.118672"><ele>230.0</ele><time>2026-05-03T11:39:01.182Z</time></trkpt><trkpt lat="41.5692285" lon="2.1187818"><ele>231.0</ele><time>2026-05-03T11:39:02.182Z</time></trkpt><trkpt lat="41.5691194" lon="2.1188764"><ele>232.0</ele><time>2026-05-03T11:39:03.182Z</time></trkpt><trkpt lat="41.5690201" lon="2.1189632"><ele>233.0</ele><time>2026-05-03T11:39:04.182Z</time></trkpt><trkpt lat="41.5689216" lon="2.1190398"><ele>232.75</ele><time>2026-05-03T11:39:05.182Z</time></trkpt><trkpt lat="41.5688121" lon="2.1191265"><ele>232.5</ele><time>2026-05-03T11:39:06.181Z</time></trkpt><trkpt lat="41.5686968" lon="2.119223"><ele>232.25</ele><time>2026-05-03T11:39:07.182Z</time></trkpt><trkpt lat="41.5685811" lon="2.1193401"><ele>232.0</ele><time>2026-05-03T11:39:08.182Z</time></trkpt><trkpt lat="41.5684631" lon="2.1194609"><ele>232.0</ele><time>2026-05-03T11:39:09.182Z</time></trkpt><trkpt lat="41.5683381" lon="2.1195917"><ele>232.0</ele><time>2026-05-03T11:39:10.181Z</time></trkpt><trkpt lat="41.5682123" lon="2.119712"><ele>232.0</ele><time>2026-05-03T11:39:11.182Z</time></trkpt><trkpt lat="41.5680955" lon="2.1198175"><ele>231.8</ele><time>2026-05-03T11:39:12.182Z</time></trkpt><trkpt lat="41.5680024" lon="2.1199128"><ele>231.6</ele><time>2026-05-03T11:39:13.181Z</time></trkpt><trkpt lat="41.5679182" lon="2.1200003"><ele>231.40000000000003</ele><time>2026-05-03T11:39:14.181Z</time></trkpt><trkpt lat="41.5678315" lon="2.1200799"><ele>231.20000000000002</ele><time>2026-05-03T11:39:15.182Z</time></trkpt><trkpt lat="41.5677461" lon="2.1201642"><ele>231.0</ele><time>2026-05-03T11:39:16.182Z</time></trkpt><trkpt lat="41.5676592" lon="2.1202384"><ele>231.0</ele><time>2026-05-03T11:39:17.181Z</time></trkpt><trkpt lat="41.567558" lon="2.1203114"><ele>231.00000000000003</ele><time>2026-05-03T11:39:18.182Z</time></trkpt><trkpt lat="41.5674542" lon="2.1203742"><ele>231.00000000000003</ele><time>2026-05-03T11:39:19.182Z</time></trkpt><trkpt lat="41.5673538" lon="2.1204256"><ele>231.0</ele><time>2026-05-03T11:39:20.181Z</time></trkpt><trkpt lat="41.5672517" lon="2.1204747"><ele>231.0</ele><time>2026-05-03T11:39:21.182Z</time></trkpt><trkpt lat="41.5671385" lon="2.1205176"><ele>229.25</ele><time>2026-05-03T11:39:22.182Z</time></trkpt><trkpt lat="41.5670152" lon="2.1205558"><ele>227.5</ele><time>2026-05-03T11:39:23.181Z</time></trkpt><trkpt lat="41.566895" lon="2.120613"><ele>225.75</ele><time>2026-05-03T11:39:24.182Z</time></trkpt><trkpt lat="41.5667769" lon="2.1206988"><ele>224.0</ele><time>2026-05-03T11:39:25.182Z</time></trkpt><trkpt lat="41.5666643" lon="2.120802"><ele>223.5</ele><time>2026-05-03T11:39:26.182Z</time></trkpt><trkpt lat="41.5665396" lon="2.1209051"><ele>223.0</ele><time>2026-05-03T11:39:27.182Z</time></trkpt><trkpt lat="41.5664193" lon="2.1210077"><ele>222.5</ele><time>2026-05-03T11:39:28.182Z</time></trkpt><trkpt lat="41.5663073" lon="2.1211"><ele>222.0</ele><time>2026-05-03T11:39:29.181Z</time></trkpt><trkpt lat="41.5662068" lon="2.1211766"><ele>223.0</ele><time>2026-05-03T11:39:30.182Z</time></trkpt><trkpt lat="41.5661153" lon="2.1212488"><ele>224.0</ele><time>2026-05-03T11:39:31.181Z</time></trkpt><trkpt lat="41.5660239" lon="2.1213103"><ele>225.0</ele><time>2026-05-03T11:39:32.181Z</time></trkpt><trkpt lat="41.5659431" lon="2.1213641"><ele>226.0</ele><time>2026-05-03T11:39:33.182Z</time></trkpt><trkpt lat="41.5658537" lon="2.1214076"><ele>227.0</ele><time>2026-05-03T11:39:34.182Z</time></trkpt><trkpt lat="41.5657466" lon="2.1214491"><ele>227.0</ele><time>2026-05-03T11:39:35.182Z</time></trkpt><trkpt lat="41.5656448" lon="2.121492"><ele>227.0</ele><time>2026-05-03T11:39:36.182Z</time></trkpt><trkpt lat="41.565555" lon="2.121532"><ele>227.0</ele><time>2026-05-03T11:39:37.182Z</time></trkpt><trkpt lat="41.5654864" lon="2.1215595"><ele>227.0</ele><time>2026-05-03T11:39:38.181Z</time></trkpt><trkpt lat="41.5654202" lon="2.121581"><ele>227.0</ele><time>2026-05-03T11:39:39.182Z</time></trkpt><trkpt lat="41.565313" lon="2.1216147"><ele>226.8</ele><time>2026-05-03T11:39:41.181Z</time></trkpt><trkpt lat="41.5652345" lon="2.1216565"><ele>226.6</ele><time>2026-05-03T11:39:43.182Z</time></trkpt><trkpt lat="41.5651225" lon="2.1216832"><ele>226.40000000000003</ele><time>2026-05-03T11:39:45.182Z</time></trkpt><trkpt lat="41.5650336" lon="2.1216702"><ele>226.20000000000002</ele><time>2026-05-03T11:39:46.182Z</time></trkpt><trkpt lat="41.5649265" lon="2.1216423"><ele>226.0</ele><time>2026-05-03T11:39:47.182Z</time></trkpt><trkpt lat="41.5648001" lon="2.1216122"><ele>226.0</ele><time>2026-05-03T11:39:48.182Z</time></trkpt><trkpt lat="41.5646619" lon="2.121584"><ele>226.0</ele><time>2026-05-03T11:39:49.182Z</time></trkpt><trkpt lat="41.5645086" lon="2.1215581"><ele>226.0</ele><time>2026-05-03T11:39:50.182Z</time></trkpt><trkpt lat="41.5643419" lon="2.1215283"><ele>222.66666666666666</ele><time>2026-05-03T11:39:51.182Z</time></trkpt><trkpt lat="41.5641668" lon="2.1214955"><ele>219.33333333333331</ele><time>2026-05-03T11:39:52.182Z</time></trkpt><trkpt lat="41.5640001" lon="2.1214647"><ele>216.0</ele><time>2026-05-03T11:39:53.182Z</time></trkpt><trkpt lat="41.5638357" lon="2.1214339"><ele>216.0</ele><time>2026-05-03T11:39:54.181Z</time></trkpt><trkpt lat="41.5636771" lon="2.1214025"><ele>216.0</ele><time>2026-05-03T11:39:55.182Z</time></trkpt><trkpt lat="41.563516" lon="2.1213696"><ele>216.0</ele><time>2026-05-03T11:39:56.182Z</time></trkpt><trkpt lat="41.5633527" lon="2.1213376"><ele>216.0</ele><time>2026-05-03T11:39:57.181Z</time></trkpt><trkpt lat="41.5631923" lon="2.121305"><ele>216.0</ele><time>2026-05-03T11:39:58.181Z</time></trkpt><trkpt lat="41.5630314" lon="2.1212767"><ele>216.0</ele><time>2026-05-03T11:39:59.181Z</time></trkpt><trkpt lat="41.5628735" lon="2.1212441"><ele>215.75</ele><time>2026-05-03T11:40:00.181Z</time></trkpt><trkpt lat="41.56272" lon="2.1212197"><ele>215.5</ele><time>2026-05-03T11:40:01.182Z</time></trkpt><trkpt lat="41.5625733" lon="2.121195"><ele>215.25</ele><time>2026-05-03T11:40:02.182Z</time></trkpt><trkpt lat="41.5624335" lon="2.1211713"><ele>215.0</ele><time>2026-05-03T11:40:03.182Z</time></trkpt><trkpt lat="41.5622994" lon="2.1211569"><ele>215.0</ele><time>2026-05-03T11:40:04.182Z</time></trkpt><trkpt lat="41.5621635" lon="2.1211462"><ele>215.0</ele><time>2026-05-03T11:40:05.182Z</time></trkpt><trkpt lat="41.5620198" lon="2.1211507"><ele>215.0</ele><time>2026-05-03T11:40:06.181Z</time></trkpt><trkpt lat="41.5618757" lon="2.1211781"><ele>215.0</ele><time>2026-05-03T11:40:07.182Z</time></trkpt><trkpt lat="41.5617299" lon="2.1212339"><ele>214.0</ele><time>2026-05-03T11:40:08.182Z</time></trkpt><trkpt lat="41.5615935" lon="2.1212973"><ele>213.0</ele><time>2026-05-03T11:40:09.182Z</time></trkpt><trkpt lat="41.5614809" lon="2.1213755"><ele>212.0</ele><time>2026-05-03T11:40:10.182Z</time></trkpt><trkpt lat="41.5613785" lon="2.121464"><ele>211.0</ele><time>2026-05-03T11:40:11.182Z</time></trkpt><trkpt lat="41.5612807" lon="2.1215202"><ele>209.4</ele><time>2026-05-03T11:40:12.182Z</time></trkpt><trkpt lat="41.561168" lon="2.1215516"><ele>207.8</ele><time>2026-05-03T11:40:13.182Z</time></trkpt><trkpt lat="41.5610613" lon="2.1215532"><ele>206.20000000000002</ele><time>2026-05-03T11:40:14.182Z</time></trkpt><trkpt lat="41.5609586" lon="2.1215273"><ele>204.60000000000002</ele><time>2026-05-03T11:40:15.182Z</time></trkpt><trkpt lat="41.5608856" lon="2.121448"><ele>203.0</ele><time>2026-05-03T11:40:16.182Z</time></trkpt><trkpt lat="41.5608327" lon="2.1213197"><ele>203.0</ele><time>2026-05-03T11:40:17.182Z</time></trkpt><trkpt lat="41.5608132" lon="2.1211693"><ele>203.0</ele><time>2026-05-03T11:40:18.182Z</time></trkpt><trkpt lat="41.5608397" lon="2.1210108"><ele>203.0</ele><time>2026-05-03T11:40:19.181Z</time></trkpt><trkpt lat="41.5609096" lon="2.1208678"><ele>203.0</ele><time>2026-05-03T11:40:20.182Z</time></trkpt><trkpt lat="41.5609816" lon="2.1207285"><ele>203.25</ele><time>2026-05-03T11:40:21.181Z</time></trkpt><trkpt lat="41.5610535" lon="2.1205799"><ele>203.5</ele><time>2026-05-03T11:40:22.181Z</time></trkpt><trkpt lat="41.5611234" lon="2.1204188"><ele>203.75</ele><time>2026-05-03T11:40:23.181Z</time></trkpt><trkpt lat="41.5611846" lon="2.1202433"><ele>204.0</ele><time>2026-05-03T11:40:24.182Z</time></trkpt><trkpt lat="41.5612371" lon="2.1200642"><ele>202.0</ele><time>2026-05-03T11:40:25.182Z</time></trkpt><trkpt lat="41.5612797" lon="2.1198888"><ele>200.0</ele><time>2026-05-03T11:40:26.182Z</time></trkpt><trkpt lat="41.5613008" lon="2.1196992"><ele>198.0</ele><time>2026-05-03T11:40:27.182Z</time></trkpt><trkpt lat="41.5613056" lon="2.1194947"><ele>196.0</ele><time>2026-05-03T11:40:28.182Z</time></trkpt><trkpt lat="41.5612961" lon="2.1192889"><ele>196.0</ele><time>2026-05-03T11:40:29.182Z</time></trkpt><trkpt lat="41.5612508" lon="2.1190791"><ele>196.0</ele><time>2026-05-03T11:40:30.182Z</time></trkpt><trkpt lat="41.5611745" lon="2.1188906"><ele>196.0</ele><time>2026-05-03T11:40:31.181Z</time></trkpt><trkpt lat="41.5610688" lon="2.1187273"><ele>191.66666666666666</ele><time>2026-05-03T11:40:32.182Z</time></trkpt><trkpt lat="41.5609487" lon="2.1185922"><ele>187.33333333333331</ele><time>2026-05-03T11:40:33.182Z</time></trkpt><trkpt lat="41.560803" lon="2.1184877"><ele>183.0</ele><time>2026-05-03T11:40:34.181Z</time></trkpt><trkpt lat="41.5606398" lon="2.1184196"><ele>183.0</ele><time>2026-05-03T11:40:35.182Z</time></trkpt><trkpt lat="41.5604612" lon="2.1183792"><ele>183.0</ele><time>2026-05-03T11:40:36.181Z</time></trkpt><trkpt lat="41.5602774" lon="2.1183751"><ele>183.0</ele><time>2026-05-03T11:40:37.182Z</time></trkpt><trkpt lat="41.5600956" lon="2.1183785"><ele>180.0</ele><time>2026-05-03T11:40:38.181Z</time></trkpt><trkpt lat="41.5599245" lon="2.1183866"><ele>177.0</ele><time>2026-05-03T11:40:39.182Z</time></trkpt><trkpt lat="41.5597592" lon="2.1183762"><ele>174.0</ele><time>2026-05-03T11:40:40.181Z</time></trkpt><trkpt lat="41.5596049" lon="2.1183326"><ele>174.0</ele><time>2026-05-03T11:40:41.182Z</time></trkpt><trkpt lat="41.5594528" lon="2.1182488"><ele>174.0</ele><time>2026-05-03T11:40:42.181Z</time></trkpt><trkpt lat="41.5593071" lon="2.1181351"><ele>174.0</ele><time>2026-05-03T11:40:43.182Z</time></trkpt><trkpt lat="41.5591693" lon="2.1180107"><ele>170.33333333333334</ele><time>2026-05-03T11:40:44.181Z</time></trkpt><trkpt lat="41.5590327" lon="2.1179019"><ele>166.66666666666669</ele><time>2026-05-03T11:40:45.181Z</time></trkpt><trkpt lat="41.5588946" lon="2.1178096"><ele>163.0</ele><time>2026-05-03T11:40:46.182Z</time></trkpt><trkpt lat="41.55875" lon="2.1177334"><ele>160.66666666666669</ele><time>2026-05-03T11:40:47.181Z</time></trkpt><trkpt lat="41.5585908" lon="2.1177095"><ele>158.33333333333334</ele><time>2026-05-03T11:40:48.181Z</time></trkpt><trkpt lat="41.5584294" lon="2.1177124"><ele>156.0</ele><time>2026-05-03T11:40:49.182Z</time></trkpt><trkpt lat="41.5582693" lon="2.1177613"><ele>156.0</ele><time>2026-05-03T11:40:50.182Z</time></trkpt><trkpt lat="41.5581144" lon="2.1178022"><ele>156.0</ele><time>2026-05-03T11:40:51.181Z</time></trkpt><trkpt lat="41.557972" lon="2.1178297"><ele>156.0</ele><time>2026-05-03T11:40:52.182Z</time></trkpt><trkpt lat="41.5578317" lon="2.1178324"><ele>156.0</ele><time>2026-05-03T11:40:53.182Z</time></trkpt><trkpt lat="41.5576957" lon="2.1178198"><ele>155.5</ele><time>2026-05-03T11:40:54.182Z</time></trkpt><trkpt lat="41.5575684" lon="2.1177812"><ele>155.0</ele><time>2026-05-03T11:40:55.182Z</time></trkpt><trkpt lat="41.5574424" lon="2.1177178"><ele>154.5</ele><time>2026-05-03T11:40:56.181Z</time></trkpt><trkpt lat="41.5573158" lon="2.117624"><ele>154.0</ele><time>2026-05-03T11:40:57.182Z</time></trkpt><trkpt lat="41.5571856" lon="2.1175159"><ele>154.0</ele><time>2026-05-03T11:40:58.181Z</time></trkpt><trkpt lat="41.5570578" lon="2.1174068"><ele>154.0</ele><time>2026-05-03T11:40:59.182Z</time></trkpt><trkpt lat="41.5569285" lon="2.1173026"><ele>154.0</ele><time>2026-05-03T11:41:00.182Z</time></trkpt><trkpt lat="41.5567971" lon="2.1172029"><ele>151.5</ele><time>2026-05-03T11:41:01.182Z</time></trkpt><trkpt lat="41.5566712" lon="2.1171063"><ele>149.0</ele><time>2026-05-03T11:41:02.182Z</time></trkpt><trkpt lat="41.5565539" lon="2.1170169"><ele>146.5</ele><time>2026-05-03T11:41:03.182Z</time></trkpt><trkpt lat="41.5564443" lon="2.1169293"><ele>144.0</ele><time>2026-05-03T11:41:04.181Z</time></trkpt><trkpt lat="41.5563152" lon="2.1168389"><ele>146.66666666666666</ele><time>2026-05-03T11:41:05.182Z</time></trkpt><trkpt lat="41.5561732" lon="2.1167271"><ele>149.33333333333331</ele><time>2026-05-03T11:41:06.181Z</time></trkpt><trkpt lat="41.5560311" lon="2.1166104"><ele>152.0</ele><time>2026-05-03T11:41:07.182Z</time></trkpt><trkpt lat="41.5558924" lon="2.11648"><ele>154.0</ele><time>2026-05-03T11:41:08.182Z</time></trkpt><trkpt lat="41.5557516" lon="2.1163567"><ele>156.0</ele><time>2026-05-03T11:41:09.182Z</time></trkpt><trkpt lat="41.5556135" lon="2.1162418"><ele>158.0</ele><time>2026-05-03T11:41:10.181Z</time></trkpt><trkpt lat="41.5554719" lon="2.1161248"><ele>160.33333333333331</ele><time>2026-05-03T11:41:11.182Z</time></trkpt><trkpt lat="41.5553273" lon="2.1160117"><ele>162.66666666666666</ele><time>2026-05-03T11:41:12.182Z</time></trkpt><trkpt lat="41.5551887" lon="2.115903"><ele>165.0</ele><time>2026-05-03T11:41:13.182Z</time></trkpt><trkpt lat="41.555065" lon="2.1158073"><ele>167.2</ele><time>2026-05-03T11:41:14.181Z</time></trkpt><trkpt lat="41.5549559" lon="2.1157192"><ele>169.4</ele><time>2026-05-03T11:41:15.182Z</time></trkpt><trkpt lat="41.5548606" lon="2.1156375"><ele>171.60000000000002</ele><time>2026-05-03T11:41:16.182Z</time></trkpt><trkpt lat="41.554772" lon="2.1155623"><ele>173.8</ele><time>2026-05-03T11:41:17.181Z</time></trkpt><trkpt lat="41.5546934" lon="2.1154977"><ele>176.0</ele><time>2026-05-03T11:41:18.181Z</time></trkpt><trkpt lat="41.5546311" lon="2.1154444"><ele>176.4</ele><time>2026-05-03T11:41:19.181Z</time></trkpt><trkpt lat="41.5545195" lon="2.1153502"><ele>176.8</ele><time>2026-05-03T11:41:21.182Z</time></trkpt><trkpt lat="41.5544438" lon="2.1152878"><ele>177.20000000000002</ele><time>2026-05-03T11:41:22.182Z</time></trkpt><trkpt lat="41.5543439" lon="2.1152324"><ele>177.60000000000002</ele><time>2026-05-03T11:41:23.182Z</time></trkpt><trkpt lat="41.5542272" lon="2.1152019"><ele>178.0</ele><time>2026-05-03T11:41:24.181Z</time></trkpt><trkpt lat="41.5541043" lon="2.1152194"><ele>178.0</ele><time>2026-05-03T11:41:25.182Z</time></trkpt><trkpt lat="41.5539915" lon="2.1152806"><ele>178.0</ele><time>2026-05-03T11:41:26.182Z</time></trkpt><trkpt lat="41.5538857" lon="2.115402"><ele>178.0</ele><time>2026-05-03T11:41:27.182Z</time></trkpt><trkpt lat="41.5537878" lon="2.115537"><ele>178.0</ele><time>2026-05-03T11:41:28.182Z</time></trkpt><trkpt lat="41.5537013" lon="2.1156616"><ele>176.8</ele><time>2026-05-03T11:41:29.182Z</time></trkpt><trkpt lat="41.5536321" lon="2.1157598"><ele>175.60000000000002</ele><time>2026-05-03T11:41:30.181Z</time></trkpt><trkpt lat="41.5535664" lon="2.1158457"><ele>174.39999999999998</ele><time>2026-05-03T11:41:31.182Z</time></trkpt><trkpt lat="41.5534872" lon="2.115896"><ele>173.2</ele><time>2026-05-03T11:41:32.182Z</time></trkpt><trkpt lat="41.5534014" lon="2.1158949"><ele>172.0</ele><time>2026-05-03T11:41:33.181Z</time></trkpt><trkpt lat="41.5533239" lon="2.1158293"><ele>175.6</ele><time>2026-05-03T11:41:34.182Z</time></trkpt><trkpt lat="41.5532659" lon="2.1157259"><ele>179.2</ele><time>2026-05-03T11:41:35.181Z</time></trkpt><trkpt lat="41.5532338" lon="2.1156031"><ele>182.8</ele><time>2026-05-03T11:41:36.181Z</time></trkpt><trkpt lat="41.5532431" lon="2.1154757"><ele>186.4</ele><time>2026-05-03T11:41:37.181Z</time></trkpt><trkpt lat="41.5533359" lon="2.1153518"><ele>190.0</ele><time>2026-05-03T11:41:38.181Z</time></trkpt><trkpt lat="41.5534496" lon="2.1152245"><ele>190.0</ele><time>2026-05-03T11:41:39.182Z</time></trkpt><trkpt lat="41.5535586" lon="2.1151028"><ele>190.0</ele><time>2026-05-03T11:41:40.182Z</time></trkpt><trkpt lat="41.553677" lon="2.1149718"><ele>190.0</ele><time>2026-05-03T11:41:41.182Z</time></trkpt><trkpt lat="41.5537905" lon="2.1148206"><ele>190.25</ele><time>2026-05-03T11:41:42.182Z</time></trkpt><trkpt lat="41.5538968" lon="2.1146777"><ele>190.5</ele><time>2026-05-03T11:41:43.182Z</time></trkpt><trkpt lat="41.5539929" lon="2.1145553"><ele>190.75</ele><time>2026-05-03T11:41:44.182Z</time></trkpt><trkpt lat="41.5540776" lon="2.1144393"><ele>191.0</ele><time>2026-05-03T11:41:45.182Z</time></trkpt><trkpt lat="41.5541483" lon="2.1143316"><ele>191.0</ele><time>2026-05-03T11:41:46.181Z</time></trkpt><trkpt lat="41.5541986" lon="2.1142162"><ele>191.0</ele><time>2026-05-03T11:41:47.181Z</time></trkpt><trkpt lat="41.5542258" lon="2.1141104"><ele>191.0</ele><time>2026-05-03T11:41:48.182Z</time></trkpt><trkpt lat="41.5542232" lon="2.1140155"><ele>191.0</ele><time>2026-05-03T11:41:49.181Z</time></trkpt><trkpt lat="41.5541938" lon="2.1139396"><ele>191.0</ele><time>2026-05-03T11:41:50.182Z</time></trkpt><trkpt lat="41.5541505" lon="2.1138633"><ele>191.0</ele><time>2026-05-03T11:41:52.182Z</time></trkpt><trkpt lat="41.5541264" lon="2.1137211"><ele>192.4</ele><time>2026-05-03T11:42:10.182Z</time></trkpt><trkpt lat="41.5541131" lon="2.1136271"><ele>193.8</ele><time>2026-05-03T11:42:11.181Z</time></trkpt><trkpt lat="41.5540898" lon="2.1135108"><ele>195.20000000000002</ele><time>2026-05-03T11:42:12.182Z</time></trkpt><trkpt lat="41.5540611" lon="2.1133731"><ele>196.60000000000002</ele><time>2026-05-03T11:42:13.181Z</time></trkpt><trkpt lat="41.5540244" lon="2.1132313"><ele>198.0</ele><time>2026-05-03T11:42:14.181Z</time></trkpt><trkpt lat="41.5539824" lon="2.1130792"><ele>198.60000000000002</ele><time>2026-05-03T11:42:15.182Z</time></trkpt><trkpt lat="41.5539437" lon="2.112941"><ele>199.20000000000002</ele><time>2026-05-03T11:42:16.182Z</time></trkpt><trkpt lat="41.5539125" lon="2.1128254"><ele>199.8</ele><time>2026-05-03T11:42:17.182Z</time></trkpt><trkpt lat="41.5538759" lon="2.112695"><ele>200.4</ele><time>2026-05-03T11:42:19.182Z</time></trkpt><trkpt lat="41.5538659" lon="2.1126087"><ele>201.0</ele><time>2026-05-03T11:42:51.182Z</time></trkpt><trkpt lat="41.5538648" lon="2.112467"><ele>201.0</ele><time>2026-05-03T11:42:53.182Z</time></trkpt><trkpt lat="41.5538111" lon="2.1122854"><ele>201.0</ele><time>2026-05-03T11:42:55.182Z</time></trkpt><trkpt lat="41.5537509" lon="2.1121731"><ele>201.0</ele><time>2026-05-03T11:42:56.182Z</time></trkpt><trkpt lat="41.5537" lon="2.1120401"><ele>201.0</ele><time>2026-05-03T11:42:57.181Z</time></trkpt><trkpt lat="41.5536529" lon="2.1118824"><ele>201.0</ele><time>2026-05-03T11:42:58.182Z</time></trkpt><trkpt lat="41.553611" lon="2.1117375"><ele>201.0</ele><time>2026-05-03T11:42:59.182Z</time></trkpt><trkpt lat="41.553569" lon="2.1116008"><ele>201.0</ele><time>2026-05-03T11:43:00.181Z</time></trkpt><trkpt lat="41.5535358" lon="2.1114805"><ele>201.0</ele><time>2026-05-03T11:43:01.182Z</time></trkpt><trkpt lat="41.5535107" lon="2.1113763"><ele>201.0</ele><time>2026-05-03T11:43:02.182Z</time></trkpt><trkpt lat="41.5534893" lon="2.1112839"><ele>201.20000000000002</ele><time>2026-05-03T11:43:03.182Z</time></trkpt><trkpt lat="41.5534633" lon="2.1111699"><ele>201.4</ele><time>2026-05-03T11:43:05.181Z</time></trkpt><trkpt lat="41.5534197" lon="2.1110147"><ele>201.6</ele><time>2026-05-03T11:43:23.182Z</time></trkpt><trkpt lat="41.5533915" lon="2.1109058"><ele>201.8</ele><time>2026-05-03T11:43:24.181Z</time></trkpt><trkpt lat="41.5533618" lon="2.1107698"><ele>202.0</ele><time>2026-05-03T11:43:25.182Z</time></trkpt><trkpt lat="41.5533193" lon="2.1106267"><ele>202.0</ele><time>2026-05-03T11:43:26.181Z</time></trkpt><trkpt lat="41.5532626" lon="2.1104723"><ele>202.0</ele><time>2026-05-03T11:43:27.182Z</time></trkpt><trkpt lat="41.5532121" lon="2.1103125"><ele>202.0</ele><time>2026-05-03T11:43:28.182Z</time></trkpt><trkpt lat="41.5531698" lon="2.1101459"><ele>202.0</ele><time>2026-05-03T11:43:29.182Z</time></trkpt><trkpt lat="41.5531227" lon="2.1099738"><ele>202.25</ele><time>2026-05-03T11:43:30.181Z</time></trkpt><trkpt lat="41.5530751" lon="2.1098106"><ele>202.5</ele><time>2026-05-03T11:43:31.182Z</time></trkpt><trkpt lat="41.5530313" lon="2.1096518"><ele>202.75</ele><time>2026-05-03T11:43:32.182Z</time></trkpt><trkpt lat="41.5529883" lon="2.1094814"><ele>203.0</ele><time>2026-05-03T11:43:33.182Z</time></trkpt><trkpt lat="41.5529426" lon="2.1093032"><ele>203.0</ele><time>2026-05-03T11:43:34.182Z</time></trkpt><trkpt lat="41.5528973" lon="2.1091377"><ele>203.0</ele><time>2026-05-03T11:43:35.181Z</time></trkpt><trkpt lat="41.5528468" lon="2.1089703"><ele>203.0</ele><time>2026-05-03T11:43:36.181Z</time></trkpt><trkpt lat="41.5528023" lon="2.1088129"><ele>203.0</ele><time>2026-05-03T11:43:37.181Z</time></trkpt><trkpt lat="41.5527643" lon="2.108663"><ele>202.4</ele><time>2026-05-03T11:43:38.182Z</time></trkpt><trkpt lat="41.5527267" lon="2.1085309"><ele>201.8</ele><time>2026-05-03T11:43:39.182Z</time></trkpt><trkpt lat="41.55269" lon="2.1083968"><ele>201.2</ele><time>2026-05-03T11:43:40.182Z</time></trkpt><trkpt lat="41.5526551" lon="2.1082611"><ele>200.6</ele><time>2026-05-03T11:43:41.182Z</time></trkpt><trkpt lat="41.5526136" lon="2.1081196"><ele>200.0</ele><time>2026-05-03T11:43:42.182Z</time></trkpt><trkpt lat="41.5525342" lon="2.1078534"><ele>199.8</ele><time>2026-05-03T11:43:44.181Z</time></trkpt><trkpt lat="41.5525015" lon="2.1077368"><ele>199.6</ele><time>2026-05-03T11:43:45.181Z</time></trkpt><trkpt lat="41.5524758" lon="2.1076265"><ele>199.39999999999998</ele><time>2026-05-03T11:43:46.182Z</time></trkpt><trkpt lat="41.5524449" lon="2.1075065"><ele>199.2</ele><time>2026-05-03T11:43:47.185Z</time></trkpt><trkpt lat="41.5524143" lon="2.1073825"><ele>199.0</ele><time>2026-05-03T11:43:48.185Z</time></trkpt><trkpt lat="41.5523796" lon="2.1072626"><ele>198.99999999999997</ele><time>2026-05-03T11:43:49.185Z</time></trkpt><trkpt lat="41.5523443" lon="2.107152"><ele>199.0</ele><time>2026-05-03T11:43:50.185Z</time></trkpt><trkpt lat="41.5523123" lon="2.1070536"><ele>199.0</ele><time>2026-05-03T11:43:51.185Z</time></trkpt><trkpt lat="41.5522786" lon="2.1069566"><ele>199.0</ele><time>2026-05-03T11:43:52.184Z</time></trkpt><trkpt lat="41.5522486" lon="2.1068589"><ele>198.99999999999997</ele><time>2026-05-03T11:43:53.185Z</time></trkpt><trkpt lat="41.5522179" lon="2.1067547"><ele>199.0</ele><time>2026-05-03T11:43:54.184Z</time></trkpt><trkpt lat="41.5521848" lon="2.1066486"><ele>199.16666666666666</ele><time>2026-05-03T11:43:55.185Z</time></trkpt><trkpt lat="41.5521485" lon="2.106539"><ele>199.33333333333331</ele><time>2026-05-03T11:43:56.184Z</time></trkpt><trkpt lat="41.5521143" lon="2.1064288"><ele>199.5</ele><time>2026-05-03T11:43:57.184Z</time></trkpt><trkpt lat="41.5520802" lon="2.1063187"><ele>199.66666666666669</ele><time>2026-05-03T11:43:58.184Z</time></trkpt><trkpt lat="41.5520521" lon="2.1062337"><ele>199.83333333333334</ele><time>2026-05-03T11:43:59.185Z</time></trkpt><trkpt lat="41.5520302" lon="2.1061538"><ele>200.0</ele><time>2026-05-03T11:44:00.185Z</time></trkpt><trkpt lat="41.5519864" lon="2.1060135"><ele>200.0</ele><time>2026-05-03T11:44:02.184Z</time></trkpt><trkpt lat="41.5519307" lon="2.1058544"><ele>200.0</ele><time>2026-05-03T11:44:04.185Z</time></trkpt><trkpt lat="41.5518876" lon="2.1057388"><ele>200.0</ele><time>2026-05-03T11:44:05.184Z</time></trkpt><trkpt lat="41.551851" lon="2.1056061"><ele>200.0</ele><time>2026-05-03T11:44:06.185Z</time></trkpt><trkpt lat="41.5518181" lon="2.1054809"><ele>200.0</ele><time>2026-05-03T11:44:07.185Z</time></trkpt><trkpt lat="41.5517925" lon="2.1053565"><ele>199.83333333333334</ele><time>2026-05-03T11:44:08.184Z</time></trkpt><trkpt lat="41.5517702" lon="2.1052427"><ele>199.66666666666669</ele><time>2026-05-03T11:44:09.185Z</time></trkpt><trkpt lat="41.551742" lon="2.1051607"><ele>199.5</ele><time>2026-05-03T11:44:10.185Z</time></trkpt><trkpt lat="41.5516927" lon="2.1050115"><ele>199.33333333333331</ele><time>2026-05-03T11:44:12.185Z</time></trkpt><trkpt lat="41.5516693" lon="2.1049201"><ele>199.16666666666666</ele><time>2026-05-03T11:44:13.184Z</time></trkpt><trkpt lat="41.5516466" lon="2.104833"><ele>199.0</ele><time>2026-05-03T11:44:14.184Z</time></trkpt><trkpt lat="41.5516248" lon="2.1047354"><ele>198.66666666666666</ele><time>2026-05-03T11:44:15.185Z</time></trkpt><trkpt lat="41.5516019" lon="2.1046381"><ele>198.33333333333331</ele><time>2026-05-03T11:44:16.184Z</time></trkpt><trkpt lat="41.551578" lon="2.1045376"><ele>198.0</ele><time>2026-05-03T11:44:17.185Z</time></trkpt><trkpt lat="41.5515585" lon="2.104438"><ele>197.66666666666669</ele><time>2026-05-03T11:44:18.185Z</time></trkpt><trkpt lat="41.551542" lon="2.1043435"><ele>197.33333333333334</ele><time>2026-05-03T11:44:19.184Z</time></trkpt><trkpt lat="41.5515126" lon="2.1042117"><ele>197.0</ele><time>2026-05-03T11:44:21.185Z</time></trkpt><trkpt lat="41.5514861" lon="2.1040957"><ele>197.25</ele><time>2026-05-03T11:45:02.185Z</time></trkpt><trkpt lat="41.5514607" lon="2.1040058"><ele>197.5</ele><time>2026-05-03T11:45:03.185Z</time></trkpt><trkpt lat="41.5514372" lon="2.1038951"><ele>197.75</ele><time>2026-05-03T11:45:04.185Z</time></trkpt><trkpt lat="41.5513793" lon="2.1036296"><ele>198.0</ele><time>2026-05-03T11:45:06.184Z</time></trkpt><trkpt lat="41.5513368" lon="2.1034709"><ele>198.0</ele><time>2026-05-03T11:45:07.184Z</time></trkpt><trkpt lat="41.5512922" lon="2.1032877"><ele>198.0</ele><time>2026-05-03T11:45:08.185Z</time></trkpt><trkpt lat="41.5512465" lon="2.1030959"><ele>198.0</ele><time>2026-05-03T11:45:09.184Z</time></trkpt><trkpt lat="41.5512" lon="2.1028989"><ele>198.0</ele><time>2026-05-03T11:45:10.184Z</time></trkpt><trkpt lat="41.5511498" lon="2.102702"><ele>198.0</ele><time>2026-05-03T11:45:11.185Z</time></trkpt><trkpt lat="41.5511061" lon="2.1025225"><ele>198.0</ele><time>2026-05-03T11:45:12.184Z</time></trkpt><trkpt lat="41.5510665" lon="2.1023451"><ele>198.0</ele><time>2026-05-03T11:45:13.184Z</time></trkpt><trkpt lat="41.5510298" lon="2.102191"><ele>198.0</ele><time>2026-05-03T11:45:14.185Z</time></trkpt><trkpt lat="41.55099" lon="2.1020423"><ele>198.0</ele><time>2026-05-03T11:45:15.184Z</time></trkpt><trkpt lat="41.550952" lon="2.1018836"><ele>198.0</ele><time>2026-05-03T11:45:16.184Z</time></trkpt><trkpt lat="41.5509133" lon="2.1017171"><ele>198.0</ele><time>2026-05-03T11:45:17.184Z</time></trkpt><trkpt lat="41.550872" lon="2.1015547"><ele>198.0</ele><time>2026-05-03T11:45:18.185Z</time></trkpt><trkpt lat="41.5508327" lon="2.1014038"><ele>198.33333333333334</ele><time>2026-05-03T11:45:19.184Z</time></trkpt><trkpt lat="41.5508065" lon="2.10127"><ele>198.66666666666669</ele><time>2026-05-03T11:45:20.185Z</time></trkpt><trkpt lat="41.55078" lon="2.10114"><ele>199.0</ele><time>2026-05-03T11:45:22.185Z</time></trkpt><trkpt lat="41.5507578" lon="2.1010523"><ele>199.33333333333334</ele><time>2026-05-03T11:45:24.185Z</time></trkpt><trkpt lat="41.5507426" lon="2.1009483"><ele>199.66666666666669</ele><time>2026-05-03T11:45:26.185Z</time></trkpt><trkpt lat="41.5507135" lon="2.1008257"><ele>200.0</ele><time>2026-05-03T11:45:28.185Z</time></trkpt><trkpt lat="41.5506835" lon="2.1007145"><ele>200.2</ele><time>2026-05-03T11:45:30.184Z</time></trkpt><trkpt lat="41.5506554" lon="2.1005883"><ele>200.4</ele><time>2026-05-03T11:45:32.184Z</time></trkpt><trkpt lat="41.5506254" lon="2.10047"><ele>200.60000000000002</ele><time>2026-05-03T11:45:34.185Z</time></trkpt><trkpt lat="41.5506033" lon="2.1003838"><ele>200.8</ele><time>2026-05-03T11:45:35.185Z</time></trkpt><trkpt lat="41.5505624" lon="2.10025"><ele>201.0</ele><time>2026-05-03T11:45:36.185Z</time></trkpt><trkpt lat="41.5505281" lon="2.1001007"><ele>201.0</ele><time>2026-05-03T11:45:37.185Z</time></trkpt><trkpt lat="41.5504916" lon="2.0999313"><ele>201.0</ele><time>2026-05-03T11:45:38.185Z</time></trkpt><trkpt lat="41.5504475" lon="2.0997441"><ele>201.0</ele><time>2026-05-03T11:45:39.185Z</time></trkpt><trkpt lat="41.5504012" lon="2.0995731"><ele>201.0</ele><time>2026-05-03T11:45:40.185Z</time></trkpt><trkpt lat="41.5503607" lon="2.0994164"><ele>200.0</ele><time>2026-05-03T11:45:41.185Z</time></trkpt><trkpt lat="41.5503305" lon="2.0992835"><ele>199.0</ele><time>2026-05-03T11:45:42.185Z</time></trkpt><trkpt lat="41.5503063" lon="2.0991801"><ele>198.0</ele><time>2026-05-03T11:45:43.184Z</time></trkpt><trkpt lat="41.5502798" lon="2.0990871"><ele>197.0</ele><time>2026-05-03T11:45:45.185Z</time></trkpt><trkpt lat="41.55028" lon="2.098942"><ele>196.0</ele><time>2026-05-03T11:46:00.185Z</time></trkpt><trkpt lat="41.5502641" lon="2.0988242"><ele>195.49999999999997</ele><time>2026-05-03T11:46:01.184Z</time></trkpt><trkpt lat="41.5502607" lon="2.0987244"><ele>195.0</ele><time>2026-05-03T11:46:02.185Z</time></trkpt><trkpt lat="41.5502797" lon="2.0986355"><ele>194.5</ele><time>2026-05-03T11:46:03.185Z</time></trkpt><trkpt lat="41.5503138" lon="2.0985501"><ele>194.0</ele><time>2026-05-03T11:46:04.185Z</time></trkpt><trkpt lat="41.5503494" lon="2.0984547"><ele>193.49999999999997</ele><time>2026-05-03T11:46:05.185Z</time></trkpt><trkpt lat="41.5503737" lon="2.0983533"><ele>193.0</ele><time>2026-05-03T11:46:06.185Z</time></trkpt><trkpt lat="41.5503838" lon="2.0982336"><ele>193.60000000000002</ele><time>2026-05-03T11:46:07.185Z</time></trkpt><trkpt lat="41.5503615" lon="2.0981018"><ele>194.20000000000002</ele><time>2026-05-03T11:46:08.184Z</time></trkpt><trkpt lat="41.5503157" lon="2.0979638"><ele>194.8</ele><time>2026-05-03T11:46:09.185Z</time></trkpt><trkpt lat="41.5502685" lon="2.0978295"><ele>195.4</ele><time>2026-05-03T11:46:10.185Z</time></trkpt><trkpt lat="41.5502424" lon="2.0976896"><ele>196.0</ele><time>2026-05-03T11:46:11.184Z</time></trkpt><trkpt lat="41.5502438" lon="2.0975355"><ele>196.25</ele><time>2026-05-03T11:46:12.184Z</time></trkpt><trkpt lat="41.5502712" lon="2.0973646"><ele>196.5</ele><time>2026-05-03T11:46:13.185Z</time></trkpt><trkpt lat="41.5503126" lon="2.0971755"><ele>196.75</ele><time>2026-05-03T11:46:14.185Z</time></trkpt><trkpt lat="41.5503529" lon="2.09698"><ele>197.0</ele><time>2026-05-03T11:46:15.185Z</time></trkpt><trkpt lat="41.5504076" lon="2.0967462"><ele>196.66666666666669</ele><time>2026-05-03T11:46:16.185Z</time></trkpt><trkpt lat="41.5504592" lon="2.096507"><ele>196.33333333333331</ele><time>2026-05-03T11:46:17.185Z</time></trkpt><trkpt lat="41.5504869" lon="2.096263"><ele>196.0</ele><time>2026-05-03T11:46:18.185Z</time></trkpt><trkpt lat="41.5505171" lon="2.0960227"><ele>196.0</ele><time>2026-05-03T11:46:19.185Z</time></trkpt><trkpt lat="41.5505592" lon="2.0958037"><ele>196.0</ele><time>2026-05-03T11:46:20.185Z</time></trkpt><trkpt lat="41.5505979" lon="2.0956114"><ele>196.0</ele><time>2026-05-03T11:46:21.184Z</time></trkpt><trkpt lat="41.5506202" lon="2.0954607"><ele>196.0</ele><time>2026-05-03T11:46:22.185Z</time></trkpt><trkpt lat="41.5506419" lon="2.0953303"><ele>196.66666666666666</ele><time>2026-05-03T11:46:23.185Z</time></trkpt><trkpt lat="41.5506561" lon="2.0952247"><ele>197.33333333333331</ele><time>2026-05-03T11:46:24.184Z</time></trkpt><trkpt lat="41.5506438" lon="2.0951321"><ele>198.0</ele><time>2026-05-03T11:46:25.185Z</time></trkpt><trkpt lat="41.5505985" lon="2.0950722"><ele>198.66666666666669</ele><time>2026-05-03T11:46:26.184Z</time></trkpt><trkpt lat="41.5505327" lon="2.0950503"><ele>199.33333333333334</ele><time>2026-05-03T11:46:27.185Z</time></trkpt><trkpt lat="41.5504294" lon="2.0950642"><ele>200.0</ele><time>2026-05-03T11:46:28.185Z</time></trkpt><trkpt lat="41.5503395" lon="2.095144"><ele>200.0</ele><time>2026-05-03T11:46:29.185Z</time></trkpt><trkpt lat="41.5502306" lon="2.0951599"><ele>200.0</ele><time>2026-05-03T11:46:30.185Z</time></trkpt><trkpt lat="41.5501091" lon="2.0951167"><ele>200.0</ele><time>2026-05-03T11:46:31.184Z</time></trkpt><trkpt lat="41.5499875" lon="2.095086"><ele>200.0</ele><time>2026-05-03T11:46:32.184Z</time></trkpt><trkpt lat="41.5498666" lon="2.0950546"><ele>200.0</ele><time>2026-05-03T11:46:33.185Z</time></trkpt><trkpt lat="41.5497426" lon="2.0950316"><ele>200.0</ele><time>2026-05-03T11:46:34.185Z</time></trkpt><trkpt lat="41.5496308" lon="2.0950072"><ele>200.0</ele><time>2026-05-03T11:46:35.185Z</time></trkpt><trkpt lat="41.5495173" lon="2.0949823"><ele>200.0</ele><time>2026-05-03T11:46:36.185Z</time></trkpt><trkpt lat="41.5494005" lon="2.094956"><ele>199.75</ele><time>2026-05-03T11:46:37.184Z</time></trkpt><trkpt lat="41.5492793" lon="2.0949296"><ele>199.5</ele><time>2026-05-03T11:46:38.185Z</time></trkpt><trkpt lat="41.5491535" lon="2.0949117"><ele>199.25</ele><time>2026-05-03T11:46:39.185Z</time></trkpt><trkpt lat="41.5490282" lon="2.094891"><ele>199.0</ele><time>2026-05-03T11:46:40.185Z</time></trkpt><trkpt lat="41.548895" lon="2.0948688"><ele>198.75</ele><time>2026-05-03T11:46:41.184Z</time></trkpt><trkpt lat="41.5487635" lon="2.094844"><ele>198.5</ele><time>2026-05-03T11:46:42.184Z</time></trkpt><trkpt lat="41.5486335" lon="2.0948245"><ele>198.25</ele><time>2026-05-03T11:46:43.185Z</time></trkpt><trkpt lat="41.5485028" lon="2.0948014"><ele>198.0</ele><time>2026-05-03T11:46:44.185Z</time></trkpt><trkpt lat="41.5483721" lon="2.0947765"><ele>198.0</ele><time>2026-05-03T11:46:45.184Z</time></trkpt><trkpt lat="41.5482457" lon="2.094754"><ele>198.0</ele><time>2026-05-03T11:46:46.185Z</time></trkpt><trkpt lat="41.5481205" lon="2.094734"><ele>198.0</ele><time>2026-05-03T11:46:47.185Z</time></trkpt><trkpt lat="41.5479909" lon="2.0947146"><ele>198.0</ele><time>2026-05-03T11:46:48.185Z</time></trkpt><trkpt lat="41.5478697" lon="2.0946932"><ele>198.25</ele><time>2026-05-03T11:46:49.185Z</time></trkpt><trkpt lat="41.5477476" lon="2.0946678"><ele>198.5</ele><time>2026-05-03T11:46:50.184Z</time></trkpt><trkpt lat="41.5476303" lon="2.0946513"><ele>198.75</ele><time>2026-05-03T11:46:51.184Z</time></trkpt><trkpt lat="41.5475139" lon="2.0946357"><ele>199.0</ele><time>2026-05-03T11:46:52.184Z</time></trkpt><trkpt lat="41.5473945" lon="2.0946239"><ele>199.0</ele><time>2026-05-03T11:46:53.185Z</time></trkpt><trkpt lat="41.5472798" lon="2.0946021"><ele>199.0</ele><time>2026-05-03T11:46:54.185Z</time></trkpt><trkpt lat="41.5471656" lon="2.0945782"><ele>199.0</ele><time>2026-05-03T11:46:55.184Z</time></trkpt><trkpt lat="41.5470608" lon="2.0945567"><ele>199.0</ele><time>2026-05-03T11:46:56.184Z</time></trkpt><trkpt lat="41.5469607" lon="2.0945379"><ele>199.0</ele><time>2026-05-03T11:46:57.184Z</time></trkpt><trkpt lat="41.5468706" lon="2.0945221"><ele>199.16666666666666</ele><time>2026-05-03T11:46:58.185Z</time></trkpt><trkpt lat="41.5467866" lon="2.0945097"><ele>199.33333333333331</ele><time>2026-05-03T11:46:59.185Z</time></trkpt><trkpt lat="41.546718" lon="2.0944939"><ele>199.5</ele><time>2026-05-03T11:47:00.185Z</time></trkpt><trkpt lat="41.5466294" lon="2.0945459"><ele>199.66666666666669</ele><time>2026-05-03T11:47:02.184Z</time></trkpt><trkpt lat="41.5466248" lon="2.0946645"><ele>199.83333333333334</ele><time>2026-05-03T11:47:04.185Z</time></trkpt><trkpt lat="41.5466453" lon="2.0947823"><ele>200.0</ele><time>2026-05-03T11:47:06.184Z</time></trkpt><trkpt lat="41.5467133" lon="2.0948724"><ele>200.00000000000003</ele><time>2026-05-03T11:47:08.185Z</time></trkpt><trkpt lat="41.5467638" lon="2.0949421"><ele>200.0</ele><time>2026-05-03T11:47:10.185Z</time></trkpt><trkpt lat="41.546795" lon="2.0950606"><ele>200.0</ele><time>2026-05-03T11:53:11.192Z</time></trkpt><trkpt lat="41.5467607" lon="2.0949713"><ele>200.0</ele><time>2026-05-03T11:53:20.191Z</time></trkpt><trkpt lat="41.5467282" lon="2.0948933"><ele>200.0</ele><time>2026-05-03T11:53:25.192Z</time></trkpt><trkpt lat="41.5467667" lon="2.0949712"><ele>200.00000000000003</ele><time>2026-05-03T11:54:05.191Z</time></trkpt><trkpt lat="41.5467917" lon="2.0950486"><ele>200.0</ele><time>2026-05-03T11:54:11.192Z</time></trkpt><trkpt lat="41.5467044" lon="2.0951135"><ele>200.00000000000003</ele><time>2026-05-03T11:59:50.197Z</time></trkpt><trkpt lat="41.5466186" lon="2.0950425"><ele>200.0</ele><time>2026-05-03T11:59:56.197Z</time></trkpt><trkpt lat="41.5465935" lon="2.0949431"><ele>200.0</ele><time>2026-05-03T11:59:57.197Z</time></trkpt><trkpt lat="41.546571" lon="2.0948487"><ele>200.0</ele><time>2026-05-03T11:59:58.197Z</time></trkpt><trkpt lat="41.5465381" lon="2.0947376"><ele>200.00000000000003</ele><time>2026-05-03T12:00:00.197Z</time></trkpt><trkpt lat="41.5465195" lon="2.0946534"><ele>200.0</ele><time>2026-05-03T12:00:03.197Z</time></trkpt><trkpt lat="41.5466123" lon="2.0945562"><ele>200.00000000000003</ele><time>2026-05-03T12:00:35.196Z</time></trkpt><trkpt lat="41.5466822" lon="2.0945411"><ele>200.0</ele><time>2026-05-03T12:00:36.196Z</time></trkpt><trkpt lat="41.546746" lon="2.0945421"><ele>200.0</ele><time>2026-05-03T12:00:37.196Z</time></trkpt><trkpt lat="41.5468177" lon="2.0945426"><ele>200.0</ele><time>2026-05-03T12:00:38.197Z</time></trkpt><trkpt lat="41.5469064" lon="2.0945461"><ele>200.00000000000003</ele><time>2026-05-03T12:00:39.196Z</time></trkpt><trkpt lat="41.547006" lon="2.0945538"><ele>200.0</ele><time>2026-05-03T12:00:40.196Z</time></trkpt><trkpt lat="41.5471042" lon="2.0945653"><ele>199.75</ele><time>2026-05-03T12:00:41.197Z</time></trkpt><trkpt lat="41.5472087" lon="2.094583"><ele>199.5</ele><time>2026-05-03T12:00:42.197Z</time></trkpt><trkpt lat="41.5473258" lon="2.0945999"><ele>199.25</ele><time>2026-05-03T12:00:43.197Z</time></trkpt><trkpt lat="41.5474427" lon="2.0946238"><ele>199.0</ele><time>2026-05-03T12:00:44.197Z</time></trkpt><trkpt lat="41.5475611" lon="2.0946397"><ele>199.0</ele><time>2026-05-03T12:00:45.197Z</time></trkpt><trkpt lat="41.5476841" lon="2.0946695"><ele>199.0</ele><time>2026-05-03T12:00:46.196Z</time></trkpt><trkpt lat="41.5478201" lon="2.0946902"><ele>199.0</ele><time>2026-05-03T12:00:47.196Z</time></trkpt><trkpt lat="41.5479598" lon="2.0947131"><ele>199.0</ele><time>2026-05-03T12:00:48.197Z</time></trkpt><trkpt lat="41.5481011" lon="2.0947316"><ele>198.75</ele><time>2026-05-03T12:00:49.196Z</time></trkpt><trkpt lat="41.5482438" lon="2.0947609"><ele>198.5</ele><time>2026-05-03T12:00:50.197Z</time></trkpt><trkpt lat="41.5483927" lon="2.0947827"><ele>198.25</ele><time>2026-05-03T12:00:51.196Z</time></trkpt><trkpt lat="41.5485333" lon="2.0947994"><ele>198.0</ele><time>2026-05-03T12:00:52.197Z</time></trkpt><trkpt lat="41.5486832" lon="2.0948212"><ele>199.75</ele><time>2026-05-03T12:00:53.197Z</time></trkpt><trkpt lat="41.5488339" lon="2.0948445"><ele>201.5</ele><time>2026-05-03T12:00:54.197Z</time></trkpt><trkpt lat="41.5489755" lon="2.0948779"><ele>203.25</ele><time>2026-05-03T12:00:55.196Z</time></trkpt><trkpt lat="41.5491234" lon="2.0948901"><ele>205.0</ele><time>2026-05-03T12:00:56.197Z</time></trkpt><trkpt lat="41.5492661" lon="2.0949137"><ele>203.75</ele><time>2026-05-03T12:00:57.197Z</time></trkpt><trkpt lat="41.5494047" lon="2.0949404"><ele>202.5</ele><time>2026-05-03T12:00:58.196Z</time></trkpt><trkpt lat="41.5495518" lon="2.0949639"><ele>201.25</ele><time>2026-05-03T12:00:59.196Z</time></trkpt><trkpt lat="41.549685" lon="2.0949946"><ele>200.0</ele><time>2026-05-03T12:01:00.197Z</time></trkpt><trkpt lat="41.5498011" lon="2.095015"><ele>200.0</ele><time>2026-05-03T12:01:01.197Z</time></trkpt><trkpt lat="41.5499096" lon="2.0950419"><ele>200.0</ele><time>2026-05-03T12:01:02.197Z</time></trkpt><trkpt lat="41.5500112" lon="2.0950591"><ele>200.0</ele><time>2026-05-03T12:01:03.197Z</time></trkpt><trkpt lat="41.5501116" lon="2.0950709"><ele>200.0</ele><time>2026-05-03T12:01:04.197Z</time></trkpt><trkpt lat="41.5502095" lon="2.0950849"><ele>200.0</ele><time>2026-05-03T12:01:05.197Z</time></trkpt><trkpt lat="41.5502942" lon="2.095109"><ele>200.00000000000003</ele><time>2026-05-03T12:01:06.197Z</time></trkpt><trkpt lat="41.5503635" lon="2.095128"><ele>200.0</ele><time>2026-05-03T12:01:07.197Z</time></trkpt><trkpt lat="41.5504246" lon="2.0951646"><ele>200.0</ele><time>2026-05-03T12:01:08.196Z</time></trkpt><trkpt lat="41.5504865" lon="2.0952155"><ele>200.0</ele><time>2026-05-03T12:01:09.197Z</time></trkpt><trkpt lat="41.5505889" lon="2.0952529"><ele>200.00000000000003</ele><time>2026-05-03T12:01:11.197Z</time></trkpt><trkpt lat="41.5506734" lon="2.095133"><ele>200.0</ele><time>2026-05-03T12:01:13.197Z</time></trkpt><trkpt lat="41.5507023" lon="2.0950129"><ele>202.0</ele><time>2026-05-03T12:01:14.197Z</time></trkpt><trkpt lat="41.5507273" lon="2.0948734"><ele>204.0</ele><time>2026-05-03T12:01:15.196Z</time></trkpt><trkpt lat="41.5507494" lon="2.0947243"><ele>206.0</ele><time>2026-05-03T12:01:16.197Z</time></trkpt><trkpt lat="41.5507656" lon="2.0945522"><ele>208.0</ele><time>2026-05-03T12:01:17.197Z</time></trkpt><trkpt lat="41.5507686" lon="2.0943809"><ele>208.0</ele><time>2026-05-03T12:01:18.197Z</time></trkpt><trkpt lat="41.5507665" lon="2.0942083"><ele>208.0</ele><time>2026-05-03T12:01:19.196Z</time></trkpt><trkpt lat="41.5507541" lon="2.0940234"><ele>208.0</ele><time>2026-05-03T12:01:20.197Z</time></trkpt><trkpt lat="41.55073" lon="2.0938294"><ele>208.0</ele><time>2026-05-03T12:01:21.197Z</time></trkpt><trkpt lat="41.5506989" lon="2.0936235"><ele>209.33333333333331</ele><time>2026-05-03T12:01:22.197Z</time></trkpt><trkpt lat="41.5506502" lon="2.0934205"><ele>210.66666666666669</ele><time>2026-05-03T12:01:23.197Z</time></trkpt><trkpt lat="41.550593" lon="2.0932237"><ele>212.0</ele><time>2026-05-03T12:01:24.196Z</time></trkpt><trkpt lat="41.5505307" lon="2.0930238"><ele>212.0</ele><time>2026-05-03T12:01:25.197Z</time></trkpt><trkpt lat="41.5504602" lon="2.0928316"><ele>212.0</ele><time>2026-05-03T12:01:26.196Z</time></trkpt><trkpt lat="41.5503915" lon="2.0926647"><ele>212.0</ele><time>2026-05-03T12:01:27.196Z</time></trkpt><trkpt lat="41.5503182" lon="2.0925161"><ele>212.0</ele><time>2026-05-03T12:01:28.197Z</time></trkpt><trkpt lat="41.550246" lon="2.0923871"><ele>211.25</ele><time>2026-05-03T12:01:29.197Z</time></trkpt><trkpt lat="41.5501694" lon="2.0922664"><ele>210.5</ele><time>2026-05-03T12:01:30.197Z</time></trkpt><trkpt lat="41.5500895" lon="2.0921521"><ele>209.75</ele><time>2026-05-03T12:01:31.196Z</time></trkpt><trkpt lat="41.5500035" lon="2.0920483"><ele>209.0</ele><time>2026-05-03T12:01:32.197Z</time></trkpt><trkpt lat="41.5499206" lon="2.0919414"><ele>209.0</ele><time>2026-05-03T12:01:33.197Z</time></trkpt><trkpt lat="41.5498357" lon="2.0918407"><ele>209.0</ele><time>2026-05-03T12:01:34.197Z</time></trkpt><trkpt lat="41.5497517" lon="2.0917459"><ele>209.0</ele><time>2026-05-03T12:01:35.196Z</time></trkpt><trkpt lat="41.5496785" lon="2.0916496"><ele>209.0</ele><time>2026-05-03T12:01:36.197Z</time></trkpt><trkpt lat="41.5496063" lon="2.0915404"><ele>209.0</ele><time>2026-05-03T12:01:37.197Z</time></trkpt><trkpt lat="41.549542" lon="2.0914191"><ele>207.39999999999998</ele><time>2026-05-03T12:01:38.196Z</time></trkpt><trkpt lat="41.549487" lon="2.0913007"><ele>205.8</ele><time>2026-05-03T12:01:39.196Z</time></trkpt><trkpt lat="41.5494365" lon="2.0911699"><ele>204.2</ele><time>2026-05-03T12:01:40.197Z</time></trkpt><trkpt lat="41.5493906" lon="2.0910336"><ele>202.60000000000002</ele><time>2026-05-03T12:01:41.197Z</time></trkpt><trkpt lat="41.549352" lon="2.0909057"><ele>201.0</ele><time>2026-05-03T12:01:42.196Z</time></trkpt><trkpt lat="41.5493127" lon="2.0907918"><ele>200.60000000000002</ele><time>2026-05-03T12:01:43.197Z</time></trkpt><trkpt lat="41.5492816" lon="2.0906636"><ele>200.2</ele><time>2026-05-03T12:01:44.197Z</time></trkpt><trkpt lat="41.5492644" lon="2.0905425"><ele>199.8</ele><time>2026-05-03T12:01:45.197Z</time></trkpt><trkpt lat="41.5492642" lon="2.0904292"><ele>199.39999999999998</ele><time>2026-05-03T12:01:46.197Z</time></trkpt><trkpt lat="41.5492783" lon="2.0903165"><ele>199.0</ele><time>2026-05-03T12:01:47.197Z</time></trkpt><trkpt lat="41.5492936" lon="2.0901726"><ele>198.99999999999997</ele><time>2026-05-03T12:01:49.197Z</time></trkpt><trkpt lat="41.549325" lon="2.090073"><ele>199.0</ele><time>2026-05-03T12:01:52.196Z</time></trkpt><trkpt lat="41.5493798" lon="2.0899419"><ele>199.0</ele><time>2026-05-03T12:01:54.196Z</time></trkpt><trkpt lat="41.5494168" lon="2.0898637"><ele>199.0</ele><time>2026-05-03T12:01:55.197Z</time></trkpt><trkpt lat="41.5494644" lon="2.0898013"><ele>198.99999999999997</ele><time>2026-05-03T12:01:56.197Z</time></trkpt><trkpt lat="41.5495168" lon="2.0897302"><ele>199.0</ele><time>2026-05-03T12:01:57.196Z</time></trkpt><trkpt lat="41.5495701" lon="2.0896546"><ele>198.66666666666666</ele><time>2026-05-03T12:01:58.197Z</time></trkpt><trkpt lat="41.5496288" lon="2.0895883"><ele>198.33333333333331</ele><time>2026-05-03T12:01:59.197Z</time></trkpt><trkpt lat="41.5496824" lon="2.0895275"><ele>198.0</ele><time>2026-05-03T12:02:00.196Z</time></trkpt><trkpt lat="41.5497589" lon="2.0894611"><ele>197.66666666666669</ele><time>2026-05-03T12:02:02.196Z</time></trkpt><trkpt lat="41.5498671" lon="2.0894545"><ele>197.33333333333334</ele><time>2026-05-03T12:02:06.197Z</time></trkpt><trkpt lat="41.5499384" lon="2.0894299"><ele>197.0</ele><time>2026-05-03T12:02:10.197Z</time></trkpt><trkpt lat="41.5500007" lon="2.0894112"><ele>197.0</ele><time>2026-05-03T12:02:11.197Z</time></trkpt><trkpt lat="41.5500983" lon="2.0893931"><ele>197.0</ele><time>2026-05-03T12:02:12.197Z</time></trkpt><trkpt lat="41.5501998" lon="2.0893881"><ele>197.0</ele><time>2026-05-03T12:02:13.197Z</time></trkpt><trkpt lat="41.5503119" lon="2.0894046"><ele>197.0</ele><time>2026-05-03T12:02:14.196Z</time></trkpt><trkpt lat="41.5504262" lon="2.089441"><ele>197.0</ele><time>2026-05-03T12:02:15.197Z</time></trkpt><trkpt lat="41.5505464" lon="2.0894972"><ele>197.5</ele><time>2026-05-03T12:02:16.197Z</time></trkpt><trkpt lat="41.550675" lon="2.0895387"><ele>198.0</ele><time>2026-05-03T12:02:17.197Z</time></trkpt><trkpt lat="41.5508177" lon="2.0895699"><ele>198.5</ele><time>2026-05-03T12:02:18.197Z</time></trkpt><trkpt lat="41.5509659" lon="2.0895742"><ele>199.0</ele><time>2026-05-03T12:02:19.197Z</time></trkpt><trkpt lat="41.5511289" lon="2.0895572"><ele>200.0</ele><time>2026-05-03T12:02:20.197Z</time></trkpt><trkpt lat="41.5513016" lon="2.0894987"><ele>201.0</ele><time>2026-05-03T12:02:21.197Z</time></trkpt><trkpt lat="41.5514578" lon="2.0894458"><ele>202.0</ele><time>2026-05-03T12:02:22.197Z</time></trkpt><trkpt lat="41.551606" lon="2.089407"><ele>202.0</ele><time>2026-05-03T12:02:23.197Z</time></trkpt><trkpt lat="41.5517622" lon="2.0893925"><ele>202.0</ele><time>2026-05-03T12:02:24.197Z</time></trkpt><trkpt lat="41.5519238" lon="2.0894107"><ele>202.0</ele><time>2026-05-03T12:02:25.197Z</time></trkpt><trkpt lat="41.5520869" lon="2.0894433"><ele>202.5</ele><time>2026-05-03T12:02:26.197Z</time></trkpt><trkpt lat="41.5522365" lon="2.0894772"><ele>203.0</ele><time>2026-05-03T12:02:27.197Z</time></trkpt><trkpt lat="41.5523726" lon="2.0895039"><ele>203.5</ele><time>2026-05-03T12:02:28.197Z</time></trkpt><trkpt lat="41.5525016" lon="2.0895324"><ele>204.0</ele><time>2026-05-03T12:02:29.196Z</time></trkpt><trkpt lat="41.5526278" lon="2.0895489"><ele>204.0</ele><time>2026-05-03T12:02:30.196Z</time></trkpt><trkpt lat="41.5527389" lon="2.0895402"><ele>204.0</ele><time>2026-05-03T12:02:31.197Z</time></trkpt><trkpt lat="41.5528414" lon="2.0895364"><ele>204.0</ele><time>2026-05-03T12:02:32.197Z</time></trkpt><trkpt lat="41.5529298" lon="2.089524"><ele>204.0</ele><time>2026-05-03T12:02:33.197Z</time></trkpt><trkpt lat="41.5530038" lon="2.0895137"><ele>204.0</ele><time>2026-05-03T12:02:34.196Z</time></trkpt><trkpt lat="41.5530761" lon="2.0894986"><ele>205.0</ele><time>2026-05-03T12:02:35.197Z</time></trkpt><trkpt lat="41.5531492" lon="2.0894616"><ele>206.0</ele><time>2026-05-03T12:02:36.196Z</time></trkpt><trkpt lat="41.5531992" lon="2.0893759"><ele>207.0</ele><time>2026-05-03T12:02:37.196Z</time></trkpt><trkpt lat="41.5532023" lon="2.0892685"><ele>208.0</ele><time>2026-05-03T12:02:38.197Z</time></trkpt><trkpt lat="41.5531656" lon="2.0891733"><ele>209.0</ele><time>2026-05-03T12:02:39.197Z</time></trkpt><trkpt lat="41.5530894" lon="2.0890963"><ele>210.0</ele><time>2026-05-03T12:02:40.196Z</time></trkpt><trkpt lat="41.5530052" lon="2.089023"><ele>210.0</ele><time>2026-05-03T12:02:41.197Z</time></trkpt><trkpt lat="41.5529442" lon="2.0889144"><ele>210.0</ele><time>2026-05-03T12:02:42.196Z</time></trkpt><trkpt lat="41.5528919" lon="2.0887838"><ele>210.0</ele><time>2026-05-03T12:02:43.197Z</time></trkpt><trkpt lat="41.5528599" lon="2.0886391"><ele>210.0</ele><time>2026-05-03T12:02:44.197Z</time></trkpt><trkpt lat="41.5528425" lon="2.0884798"><ele>210.0</ele><time>2026-05-03T12:02:45.197Z</time></trkpt><trkpt lat="41.5528399" lon="2.0883044"><ele>209.0</ele><time>2026-05-03T12:02:46.197Z</time></trkpt><trkpt lat="41.5528548" lon="2.0881084"><ele>208.0</ele><time>2026-05-03T12:02:47.196Z</time></trkpt><trkpt lat="41.552872" lon="2.0878945"><ele>207.0</ele><time>2026-05-03T12:02:48.196Z</time></trkpt><trkpt lat="41.5528858" lon="2.0876739"><ele>208.33333333333331</ele><time>2026-05-03T12:02:49.197Z</time></trkpt><trkpt lat="41.5529023" lon="2.0874438"><ele>209.66666666666666</ele><time>2026-05-03T12:02:50.197Z</time></trkpt><trkpt lat="41.5529206" lon="2.0872059"><ele>211.0</ele><time>2026-05-03T12:02:51.197Z</time></trkpt><trkpt lat="41.5529415" lon="2.0869773"><ele>211.0</ele><time>2026-05-03T12:02:52.197Z</time></trkpt><trkpt lat="41.5529602" lon="2.0867789"><ele>211.0</ele><time>2026-05-03T12:02:53.197Z</time></trkpt><trkpt lat="41.5529865" lon="2.0866048"><ele>211.0</ele><time>2026-05-03T12:02:54.196Z</time></trkpt><trkpt lat="41.5530059" lon="2.0864781"><ele>211.0</ele><time>2026-05-03T12:02:55.196Z</time></trkpt><trkpt lat="41.5530371" lon="2.0863809"><ele>210.60000000000002</ele><time>2026-05-03T12:02:56.196Z</time></trkpt><trkpt lat="41.5530963" lon="2.0863003"><ele>210.2</ele><time>2026-05-03T12:02:57.197Z</time></trkpt><trkpt lat="41.5531766" lon="2.0862238"><ele>209.8</ele><time>2026-05-03T12:02:58.197Z</time></trkpt><trkpt lat="41.5532597" lon="2.0861326"><ele>209.39999999999998</ele><time>2026-05-03T12:02:59.197Z</time></trkpt><trkpt lat="41.5533278" lon="2.0860548"><ele>209.0</ele><time>2026-05-03T12:03:00.197Z</time></trkpt><trkpt lat="41.5533762" lon="2.0859774"><ele>209.0</ele><time>2026-05-03T12:03:01.197Z</time></trkpt><trkpt lat="41.5534542" lon="2.0859086"><ele>209.0</ele><time>2026-05-03T12:03:03.196Z</time></trkpt><trkpt lat="41.5535091" lon="2.085976"><ele>209.0</ele><time>2026-05-03T12:03:05.196Z</time></trkpt><trkpt lat="41.5535787" lon="2.0861648"><ele>209.0</ele><time>2026-05-03T12:03:07.197Z</time></trkpt><trkpt lat="41.5536155" lon="2.0863054"><ele>209.0</ele><time>2026-05-03T12:03:08.197Z</time></trkpt><trkpt lat="41.5536654" lon="2.0864636"><ele>211.0</ele><time>2026-05-03T12:03:09.197Z</time></trkpt><trkpt lat="41.5537167" lon="2.0866186"><ele>213.0</ele><time>2026-05-03T12:03:10.197Z</time></trkpt><trkpt lat="41.5537679" lon="2.0867823"><ele>215.0</ele><time>2026-05-03T12:03:11.197Z</time></trkpt><trkpt lat="41.5538243" lon="2.086945"><ele>217.0</ele><time>2026-05-03T12:03:12.197Z</time></trkpt><trkpt lat="41.5538518" lon="2.0871008"><ele>216.99999999999997</ele><time>2026-05-03T12:03:13.197Z</time></trkpt><trkpt lat="41.5538851" lon="2.0872209"><ele>217.0</ele><time>2026-05-03T12:03:14.197Z</time></trkpt><trkpt lat="41.553929" lon="2.0873232"><ele>217.0</ele><time>2026-05-03T12:03:15.197Z</time></trkpt><trkpt lat="41.5539724" lon="2.0874524"><ele>217.0</ele><time>2026-05-03T12:03:17.197Z</time></trkpt><trkpt lat="41.5539163" lon="2.0875064"><ele>216.99999999999997</ele><time>2026-05-03T12:03:21.197Z</time></trkpt><trkpt lat="41.5538606" lon="2.087435"><ele>217.0</ele><time>2026-05-03T12:03:23.197Z</time></trkpt><trkpt lat="41.5538228" lon="2.0873335"><ele>217.0</ele><time>2026-05-03T12:03:25.197Z</time></trkpt><trkpt lat="41.5537865" lon="2.0872635"><ele>217.0</ele><time>2026-05-03T12:03:29.197Z</time></trkpt><trkpt lat="41.553473" lon="2.0864717"><ele>214.33333333333331</ele><time>2026-05-03T12:05:02.56Z</time></trkpt><trkpt lat="41.5533974" lon="2.0864214"><ele>211.66666666666669</ele><time>2026-05-03T12:05:17.296Z</time></trkpt><trkpt lat="41.5532652" lon="2.0860883"><ele>209.0</ele><time>2026-05-03T12:07:29.121Z</time></trkpt><trkpt lat="41.5533092" lon="2.0861886"><ele>209.0</ele><time>2026-05-03T12:07:31.204Z</time></trkpt><trkpt lat="41.5533657" lon="2.086251"><ele>209.0</ele><time>2026-05-03T12:07:49.203Z</time></trkpt><trkpt lat="41.5533887" lon="2.0861656"><ele>209.0</ele><time>2026-05-03T12:07:55.203Z</time></trkpt><trkpt lat="41.5534208" lon="2.086086"><ele>209.0</ele><time>2026-05-03T12:08:04.204Z</time></trkpt><trkpt lat="41.5534807" lon="2.0860333"><ele>209.0</ele><time>2026-05-03T12:08:11.204Z</time></trkpt><trkpt lat="41.5535459" lon="2.0859951"><ele>209.0</ele><time>2026-05-03T12:08:17.204Z</time></trkpt><trkpt lat="41.5536047" lon="2.0859535"><ele>209.0</ele><time>2026-05-03T12:08:24.204Z</time></trkpt><trkpt lat="41.5537903" lon="2.0858686"><ele>214.0</ele><time>2026-05-03T12:08:43.204Z</time></trkpt></trkseg></trk></gpx>